<?xml version="1.0" encoding="UTF-8" standalone="no" ?>
<gpx xmlns="http://www.topografix.com/GPX/1/1" xmlns:xsi="http://www.w3.org/2001/XMLSchema-instance" xsi:schemaLocation="http://www.topografix.com/GPX/1/1 http://www.topografix.com/GPX/1/1/gpx.xsd" version="1.1" creator="VisuGPX - https://www.visugpx.com">
  <metadata>
    <name>83-D -Bras       </name>
    <desc><![CDATA[83-D -Bras : pont de Sumian                ]]></desc>
  </metadata>
  <trk>
    <name><![CDATA[2017-01-15-D+ - Bras]]></name>
    <trkseg>
      <trkpt lat="43.47053" lon="5.95773">
        <ele>270.4</ele>
        <time>2017-01-15T08:17:25Z</time>
      </trkpt>
      <trkpt lat="43.47053" lon="5.95773">
        <ele>270</ele>
        <time>2017-01-15T08:17:24Z</time>
      </trkpt>
      <trkpt lat="43.47044" lon="5.95774">
        <ele>269.4</ele>
        <time>2017-01-15T08:20:33Z</time>
      </trkpt>
      <trkpt lat="43.47038" lon="5.95784">
        <ele>268.6</ele>
        <time>2017-01-15T08:25:51Z</time>
      </trkpt>
      <trkpt lat="43.47029" lon="5.95783">
        <ele>269.5</ele>
        <time>2017-01-15T08:26:00Z</time>
      </trkpt>
      <trkpt lat="43.47022" lon="5.95794">
        <ele>269.9</ele>
        <time>2017-01-15T08:26:08Z</time>
      </trkpt>
      <trkpt lat="43.47018" lon="5.95806">
        <ele>270.3</ele>
        <time>2017-01-15T08:26:18Z</time>
      </trkpt>
      <trkpt lat="43.47016" lon="5.95819">
        <ele>270.4</ele>
        <time>2017-01-15T08:26:27Z</time>
      </trkpt>
      <trkpt lat="43.47014" lon="5.95832">
        <ele>270.6</ele>
        <time>2017-01-15T08:26:34Z</time>
      </trkpt>
      <trkpt lat="43.47013" lon="5.95845">
        <ele>271.2</ele>
        <time>2017-01-15T08:26:43Z</time>
      </trkpt>
      <trkpt lat="43.47013" lon="5.9586">
        <ele>271.6</ele>
        <time>2017-01-15T08:26:52Z</time>
      </trkpt>
      <trkpt lat="43.47014" lon="5.95875">
        <ele>271.6</ele>
        <time>2017-01-15T08:26:59Z</time>
      </trkpt>
      <trkpt lat="43.47011" lon="5.95887">
        <ele>272.1</ele>
        <time>2017-01-15T08:27:09Z</time>
      </trkpt>
      <trkpt lat="43.47007" lon="5.95899">
        <ele>272.6</ele>
        <time>2017-01-15T08:27:19Z</time>
      </trkpt>
      <trkpt lat="43.47004" lon="5.95911">
        <ele>273.1</ele>
        <time>2017-01-15T08:27:25Z</time>
      </trkpt>
      <trkpt lat="43.47002" lon="5.95924">
        <ele>273.5</ele>
        <time>2017-01-15T08:27:32Z</time>
      </trkpt>
      <trkpt lat="43.47001" lon="5.95936">
        <ele>273.7</ele>
        <time>2017-01-15T08:27:40Z</time>
      </trkpt>
      <trkpt lat="43.47001" lon="5.9595">
        <ele>273.4</ele>
        <time>2017-01-15T08:27:48Z</time>
      </trkpt>
      <trkpt lat="43.47" lon="5.95963">
        <ele>273.6</ele>
        <time>2017-01-15T08:27:56Z</time>
      </trkpt>
      <trkpt lat="43.46995" lon="5.95974">
        <ele>273.5</ele>
        <time>2017-01-15T08:28:05Z</time>
      </trkpt>
      <trkpt lat="43.46985" lon="5.95975">
        <ele>273.9</ele>
        <time>2017-01-15T08:28:14Z</time>
      </trkpt>
      <trkpt lat="43.46976" lon="5.9598">
        <ele>274.2</ele>
        <time>2017-01-15T08:28:22Z</time>
      </trkpt>
      <trkpt lat="43.46969" lon="5.95989">
        <ele>274.9</ele>
        <time>2017-01-15T08:28:30Z</time>
      </trkpt>
      <trkpt lat="43.46965" lon="5.96001">
        <ele>276.3</ele>
        <time>2017-01-15T08:28:38Z</time>
      </trkpt>
      <trkpt lat="43.46962" lon="5.96014">
        <ele>277.2</ele>
        <time>2017-01-15T08:28:46Z</time>
      </trkpt>
      <trkpt lat="43.46955" lon="5.96023">
        <ele>279.2</ele>
        <time>2017-01-15T08:28:57Z</time>
      </trkpt>
      <trkpt lat="43.46947" lon="5.96027">
        <ele>282.1</ele>
        <time>2017-01-15T08:29:13Z</time>
      </trkpt>
      <trkpt lat="43.46938" lon="5.96027">
        <ele>282.8</ele>
        <time>2017-01-15T08:29:23Z</time>
      </trkpt>
      <trkpt lat="43.46927" lon="5.96031">
        <ele>283.6</ele>
        <time>2017-01-15T08:29:29Z</time>
      </trkpt>
      <trkpt lat="43.46925" lon="5.96044">
        <ele>286.4</ele>
        <time>2017-01-15T08:29:46Z</time>
      </trkpt>
      <trkpt lat="43.46929" lon="5.96056">
        <ele>288</ele>
        <time>2017-01-15T08:29:57Z</time>
      </trkpt>
      <trkpt lat="43.46932" lon="5.96068">
        <ele>290.5</ele>
        <time>2017-01-15T08:30:13Z</time>
      </trkpt>
      <trkpt lat="43.46934" lon="5.9608">
        <ele>292.6</ele>
        <time>2017-01-15T08:30:29Z</time>
      </trkpt>
      <trkpt lat="43.46935" lon="5.96094">
        <ele>294.2</ele>
        <time>2017-01-15T08:30:40Z</time>
      </trkpt>
      <trkpt lat="43.46934" lon="5.96106">
        <ele>295.9</ele>
        <time>2017-01-15T08:30:52Z</time>
      </trkpt>
      <trkpt lat="43.46937" lon="5.9612">
        <ele>298.1</ele>
        <time>2017-01-15T08:31:05Z</time>
      </trkpt>
      <trkpt lat="43.46946" lon="5.9612">
        <ele>298.7</ele>
        <time>2017-01-15T08:31:46Z</time>
      </trkpt>
      <trkpt lat="43.46938" lon="5.96128">
        <ele>299.4</ele>
        <time>2017-01-15T08:32:01Z</time>
      </trkpt>
      <trkpt lat="43.46944" lon="5.96138">
        <ele>300.2</ele>
        <time>2017-01-15T08:32:17Z</time>
      </trkpt>
      <trkpt lat="43.46946" lon="5.96152">
        <ele>300.8</ele>
        <time>2017-01-15T08:32:28Z</time>
      </trkpt>
      <trkpt lat="43.46942" lon="5.96167">
        <ele>300.4</ele>
        <time>2017-01-15T08:32:38Z</time>
      </trkpt>
      <trkpt lat="43.4694" lon="5.9618">
        <ele>300.8</ele>
        <time>2017-01-15T08:32:45Z</time>
      </trkpt>
      <trkpt lat="43.46935" lon="5.9619">
        <ele>301.2</ele>
        <time>2017-01-15T08:32:55Z</time>
      </trkpt>
      <trkpt lat="43.4693" lon="5.96202">
        <ele>302.4</ele>
        <time>2017-01-15T08:33:07Z</time>
      </trkpt>
      <trkpt lat="43.4693" lon="5.96215">
        <ele>303.7</ele>
        <time>2017-01-15T08:33:17Z</time>
      </trkpt>
      <trkpt lat="43.46928" lon="5.96228">
        <ele>305.6</ele>
        <time>2017-01-15T08:33:29Z</time>
      </trkpt>
      <trkpt lat="43.46926" lon="5.9624">
        <ele>307.1</ele>
        <time>2017-01-15T08:33:40Z</time>
      </trkpt>
      <trkpt lat="43.46925" lon="5.96253">
        <ele>307.8</ele>
        <time>2017-01-15T08:33:50Z</time>
      </trkpt>
      <trkpt lat="43.46924" lon="5.96265">
        <ele>307.7</ele>
        <time>2017-01-15T08:33:56Z</time>
      </trkpt>
      <trkpt lat="43.46923" lon="5.96278">
        <ele>307.1</ele>
        <time>2017-01-15T08:34:05Z</time>
      </trkpt>
      <trkpt lat="43.4692" lon="5.96291">
        <ele>306.2</ele>
        <time>2017-01-15T08:34:17Z</time>
      </trkpt>
      <trkpt lat="43.46919" lon="5.96304">
        <ele>305.7</ele>
        <time>2017-01-15T08:34:27Z</time>
      </trkpt>
      <trkpt lat="43.46923" lon="5.96317">
        <ele>304.2</ele>
        <time>2017-01-15T08:34:36Z</time>
      </trkpt>
      <trkpt lat="43.46926" lon="5.9633">
        <ele>303.6</ele>
        <time>2017-01-15T08:34:46Z</time>
      </trkpt>
      <trkpt lat="43.46931" lon="5.96344">
        <ele>302.5</ele>
        <time>2017-01-15T08:34:54Z</time>
      </trkpt>
      <trkpt lat="43.46935" lon="5.96356">
        <ele>301.5</ele>
        <time>2017-01-15T08:35:02Z</time>
      </trkpt>
      <trkpt lat="43.4694" lon="5.96367">
        <ele>299.3</ele>
        <time>2017-01-15T08:35:15Z</time>
      </trkpt>
      <trkpt lat="43.46941" lon="5.9638">
        <ele>297.3</ele>
        <time>2017-01-15T08:35:28Z</time>
      </trkpt>
      <trkpt lat="43.46945" lon="5.96393">
        <ele>295.9</ele>
        <time>2017-01-15T08:35:36Z</time>
      </trkpt>
      <trkpt lat="43.46947" lon="5.96406">
        <ele>295.1</ele>
        <time>2017-01-15T08:35:46Z</time>
      </trkpt>
      <trkpt lat="43.46949" lon="5.9642">
        <ele>295.4</ele>
        <time>2017-01-15T08:35:54Z</time>
      </trkpt>
      <trkpt lat="43.46955" lon="5.96429">
        <ele>295.5</ele>
        <time>2017-01-15T08:36:15Z</time>
      </trkpt>
      <trkpt lat="43.46962" lon="5.96438">
        <ele>295.3</ele>
        <time>2017-01-15T08:36:41Z</time>
      </trkpt>
      <trkpt lat="43.4697" lon="5.96444">
        <ele>295.5</ele>
        <time>2017-01-15T08:36:50Z</time>
      </trkpt>
      <trkpt lat="43.46974" lon="5.96456">
        <ele>296.1</ele>
        <time>2017-01-15T08:37:00Z</time>
      </trkpt>
      <trkpt lat="43.46977" lon="5.96469">
        <ele>296.6</ele>
        <time>2017-01-15T08:37:10Z</time>
      </trkpt>
      <trkpt lat="43.46978" lon="5.96483">
        <ele>296.9</ele>
        <time>2017-01-15T08:37:21Z</time>
      </trkpt>
      <trkpt lat="43.46981" lon="5.96495">
        <ele>296.9</ele>
        <time>2017-01-15T08:37:29Z</time>
      </trkpt>
      <trkpt lat="43.46982" lon="5.96508">
        <ele>297.2</ele>
        <time>2017-01-15T08:37:38Z</time>
      </trkpt>
      <trkpt lat="43.46983" lon="5.96521">
        <ele>297.9</ele>
        <time>2017-01-15T08:37:52Z</time>
      </trkpt>
      <trkpt lat="43.46986" lon="5.96533">
        <ele>298.8</ele>
        <time>2017-01-15T08:38:03Z</time>
      </trkpt>
      <trkpt lat="43.46987" lon="5.96546">
        <ele>299.5</ele>
        <time>2017-01-15T08:38:13Z</time>
      </trkpt>
      <trkpt lat="43.46987" lon="5.96558">
        <ele>300.4</ele>
        <time>2017-01-15T08:38:22Z</time>
      </trkpt>
      <trkpt lat="43.46984" lon="5.9657">
        <ele>302.1</ele>
        <time>2017-01-15T08:38:32Z</time>
      </trkpt>
      <trkpt lat="43.46982" lon="5.96584">
        <ele>303.4</ele>
        <time>2017-01-15T08:38:41Z</time>
      </trkpt>
      <trkpt lat="43.46991" lon="5.96595">
        <ele>304.1</ele>
        <time>2017-01-15T08:38:49Z</time>
      </trkpt>
      <trkpt lat="43.46996" lon="5.96606">
        <ele>304.2</ele>
        <time>2017-01-15T08:39:17Z</time>
      </trkpt>
      <trkpt lat="43.47005" lon="5.96606">
        <ele>304.3</ele>
        <time>2017-01-15T08:39:44Z</time>
      </trkpt>
      <trkpt lat="43.47013" lon="5.96613">
        <ele>304</ele>
        <time>2017-01-15T08:39:59Z</time>
      </trkpt>
      <trkpt lat="43.47022" lon="5.96618">
        <ele>303.7</ele>
        <time>2017-01-15T08:40:07Z</time>
      </trkpt>
      <trkpt lat="43.47032" lon="5.96622">
        <ele>303.5</ele>
        <time>2017-01-15T08:40:14Z</time>
      </trkpt>
      <trkpt lat="43.47042" lon="5.96625">
        <ele>303.8</ele>
        <time>2017-01-15T08:40:22Z</time>
      </trkpt>
      <trkpt lat="43.47051" lon="5.96627">
        <ele>304.1</ele>
        <time>2017-01-15T08:40:30Z</time>
      </trkpt>
      <trkpt lat="43.47061" lon="5.9663">
        <ele>304.5</ele>
        <time>2017-01-15T08:40:38Z</time>
      </trkpt>
      <trkpt lat="43.47069" lon="5.96636">
        <ele>305.6</ele>
        <time>2017-01-15T08:40:45Z</time>
      </trkpt>
      <trkpt lat="43.47078" lon="5.96642">
        <ele>305</ele>
        <time>2017-01-15T08:40:54Z</time>
      </trkpt>
      <trkpt lat="43.47086" lon="5.96649">
        <ele>305.2</ele>
        <time>2017-01-15T08:41:01Z</time>
      </trkpt>
      <trkpt lat="43.47093" lon="5.96659">
        <ele>305.6</ele>
        <time>2017-01-15T08:41:10Z</time>
      </trkpt>
      <trkpt lat="43.471" lon="5.96668">
        <ele>305.8</ele>
        <time>2017-01-15T08:41:17Z</time>
      </trkpt>
      <trkpt lat="43.47107" lon="5.96677">
        <ele>306.4</ele>
        <time>2017-01-15T08:41:24Z</time>
      </trkpt>
      <trkpt lat="43.47113" lon="5.96687">
        <ele>306.9</ele>
        <time>2017-01-15T08:41:32Z</time>
      </trkpt>
      <trkpt lat="43.47116" lon="5.967">
        <ele>307.5</ele>
        <time>2017-01-15T08:41:42Z</time>
      </trkpt>
      <trkpt lat="43.47126" lon="5.96704">
        <ele>307.4</ele>
        <time>2017-01-15T08:42:18Z</time>
      </trkpt>
      <trkpt lat="43.47123" lon="5.96717">
        <ele>307.7</ele>
        <time>2017-01-15T08:42:26Z</time>
      </trkpt>
      <trkpt lat="43.47117" lon="5.96728">
        <ele>307.7</ele>
        <time>2017-01-15T08:42:32Z</time>
      </trkpt>
      <trkpt lat="43.47112" lon="5.96738">
        <ele>308.1</ele>
        <time>2017-01-15T08:42:38Z</time>
      </trkpt>
      <trkpt lat="43.47106" lon="5.96749">
        <ele>308</ele>
        <time>2017-01-15T08:42:44Z</time>
      </trkpt>
      <trkpt lat="43.47099" lon="5.96759">
        <ele>307.7</ele>
        <time>2017-01-15T08:42:52Z</time>
      </trkpt>
      <trkpt lat="43.47093" lon="5.96769">
        <ele>308.3</ele>
        <time>2017-01-15T08:42:59Z</time>
      </trkpt>
      <trkpt lat="43.47087" lon="5.9678">
        <ele>308.5</ele>
        <time>2017-01-15T08:43:05Z</time>
      </trkpt>
      <trkpt lat="43.47083" lon="5.96792">
        <ele>309.3</ele>
        <time>2017-01-15T08:43:12Z</time>
      </trkpt>
      <trkpt lat="43.47076" lon="5.96801">
        <ele>310.2</ele>
        <time>2017-01-15T08:43:19Z</time>
      </trkpt>
      <trkpt lat="43.47069" lon="5.9681">
        <ele>311</ele>
        <time>2017-01-15T08:43:26Z</time>
      </trkpt>
      <trkpt lat="43.47061" lon="5.96819">
        <ele>311.9</ele>
        <time>2017-01-15T08:43:33Z</time>
      </trkpt>
      <trkpt lat="43.47052" lon="5.96825">
        <ele>312.5</ele>
        <time>2017-01-15T08:43:40Z</time>
      </trkpt>
      <trkpt lat="43.47043" lon="5.96828">
        <ele>313.5</ele>
        <time>2017-01-15T08:43:47Z</time>
      </trkpt>
      <trkpt lat="43.47034" lon="5.96831">
        <ele>313.5</ele>
        <time>2017-01-15T08:43:54Z</time>
      </trkpt>
      <trkpt lat="43.47025" lon="5.96833">
        <ele>313.7</ele>
        <time>2017-01-15T08:44:01Z</time>
      </trkpt>
      <trkpt lat="43.47018" lon="5.96843">
        <ele>314.1</ele>
        <time>2017-01-15T08:44:08Z</time>
      </trkpt>
      <trkpt lat="43.47017" lon="5.96856">
        <ele>314.6</ele>
        <time>2017-01-15T08:44:15Z</time>
      </trkpt>
      <trkpt lat="43.47016" lon="5.96869">
        <ele>314.7</ele>
        <time>2017-01-15T08:44:23Z</time>
      </trkpt>
      <trkpt lat="43.4702" lon="5.96882">
        <ele>315</ele>
        <time>2017-01-15T08:44:31Z</time>
      </trkpt>
      <trkpt lat="43.47021" lon="5.96895">
        <ele>315.2</ele>
        <time>2017-01-15T08:44:38Z</time>
      </trkpt>
      <trkpt lat="43.4702" lon="5.96908">
        <ele>315.6</ele>
        <time>2017-01-15T08:44:45Z</time>
      </trkpt>
      <trkpt lat="43.47018" lon="5.96921">
        <ele>316.1</ele>
        <time>2017-01-15T08:44:53Z</time>
      </trkpt>
      <trkpt lat="43.47012" lon="5.96932">
        <ele>317</ele>
        <time>2017-01-15T08:45:01Z</time>
      </trkpt>
      <trkpt lat="43.47004" lon="5.96939">
        <ele>317.8</ele>
        <time>2017-01-15T08:45:09Z</time>
      </trkpt>
      <trkpt lat="43.46998" lon="5.96949">
        <ele>318.8</ele>
        <time>2017-01-15T08:45:18Z</time>
      </trkpt>
      <trkpt lat="43.46993" lon="5.96961">
        <ele>319.6</ele>
        <time>2017-01-15T08:45:26Z</time>
      </trkpt>
      <trkpt lat="43.46984" lon="5.96965">
        <ele>321</ele>
        <time>2017-01-15T08:45:39Z</time>
      </trkpt>
      <trkpt lat="43.46976" lon="5.96959">
        <ele>322.4</ele>
        <time>2017-01-15T08:45:55Z</time>
      </trkpt>
      <trkpt lat="43.46967" lon="5.96965">
        <ele>324.3</ele>
        <time>2017-01-15T08:46:07Z</time>
      </trkpt>
      <trkpt lat="43.46958" lon="5.96971">
        <ele>325</ele>
        <time>2017-01-15T08:46:18Z</time>
      </trkpt>
      <trkpt lat="43.46949" lon="5.96973">
        <ele>325.3</ele>
        <time>2017-01-15T08:46:29Z</time>
      </trkpt>
      <trkpt lat="43.46939" lon="5.96972">
        <ele>326.6</ele>
        <time>2017-01-15T08:46:41Z</time>
      </trkpt>
      <trkpt lat="43.4693" lon="5.96968">
        <ele>327.7</ele>
        <time>2017-01-15T08:46:51Z</time>
      </trkpt>
      <trkpt lat="43.46921" lon="5.96964">
        <ele>328.7</ele>
        <time>2017-01-15T08:47:02Z</time>
      </trkpt>
      <trkpt lat="43.46912" lon="5.96958">
        <ele>329.5</ele>
        <time>2017-01-15T08:47:13Z</time>
      </trkpt>
      <trkpt lat="43.46903" lon="5.96955">
        <ele>329.9</ele>
        <time>2017-01-15T08:47:19Z</time>
      </trkpt>
      <trkpt lat="43.46894" lon="5.96951">
        <ele>331.1</ele>
        <time>2017-01-15T08:47:28Z</time>
      </trkpt>
      <trkpt lat="43.46885" lon="5.96945">
        <ele>332.4</ele>
        <time>2017-01-15T08:47:37Z</time>
      </trkpt>
      <trkpt lat="43.46877" lon="5.9694">
        <ele>333.7</ele>
        <time>2017-01-15T08:47:46Z</time>
      </trkpt>
      <trkpt lat="43.46868" lon="5.96935">
        <ele>334.2</ele>
        <time>2017-01-15T08:47:56Z</time>
      </trkpt>
      <trkpt lat="43.46858" lon="5.9693">
        <ele>334.4</ele>
        <time>2017-01-15T08:48:04Z</time>
      </trkpt>
      <trkpt lat="43.46849" lon="5.96927">
        <ele>335.2</ele>
        <time>2017-01-15T08:48:12Z</time>
      </trkpt>
      <trkpt lat="43.46839" lon="5.96929">
        <ele>335.3</ele>
        <time>2017-01-15T08:48:19Z</time>
      </trkpt>
      <trkpt lat="43.46832" lon="5.96937">
        <ele>335.3</ele>
        <time>2017-01-15T08:48:28Z</time>
      </trkpt>
      <trkpt lat="43.46822" lon="5.96939">
        <ele>335.2</ele>
        <time>2017-01-15T08:48:36Z</time>
      </trkpt>
      <trkpt lat="43.46816" lon="5.96929">
        <ele>336</ele>
        <time>2017-01-15T08:48:45Z</time>
      </trkpt>
      <trkpt lat="43.46808" lon="5.96922">
        <ele>336.9</ele>
        <time>2017-01-15T08:48:53Z</time>
      </trkpt>
      <trkpt lat="43.46799" lon="5.96918">
        <ele>338.3</ele>
        <time>2017-01-15T08:49:03Z</time>
      </trkpt>
      <trkpt lat="43.46789" lon="5.96918">
        <ele>339.4</ele>
        <time>2017-01-15T08:49:13Z</time>
      </trkpt>
      <trkpt lat="43.46783" lon="5.96927">
        <ele>339.5</ele>
        <time>2017-01-15T08:49:22Z</time>
      </trkpt>
      <trkpt lat="43.46777" lon="5.96937">
        <ele>339.5</ele>
        <time>2017-01-15T08:49:30Z</time>
      </trkpt>
      <trkpt lat="43.46771" lon="5.96947">
        <ele>339.3</ele>
        <time>2017-01-15T08:49:39Z</time>
      </trkpt>
      <trkpt lat="43.46769" lon="5.9696">
        <ele>339.1</ele>
        <time>2017-01-15T08:49:48Z</time>
      </trkpt>
      <trkpt lat="43.4677" lon="5.96975">
        <ele>339.1</ele>
        <time>2017-01-15T08:49:58Z</time>
      </trkpt>
      <trkpt lat="43.46766" lon="5.96986">
        <ele>339.4</ele>
        <time>2017-01-15T08:50:10Z</time>
      </trkpt>
      <trkpt lat="43.46769" lon="5.96998">
        <ele>339.5</ele>
        <time>2017-01-15T08:50:24Z</time>
      </trkpt>
      <trkpt lat="43.46762" lon="5.97008">
        <ele>340.5</ele>
        <time>2017-01-15T08:54:00Z</time>
      </trkpt>
      <trkpt lat="43.46754" lon="5.97018">
        <ele>341.4</ele>
        <time>2017-01-15T08:54:09Z</time>
      </trkpt>
      <trkpt lat="43.46748" lon="5.97026">
        <ele>342.7</ele>
        <time>2017-01-15T08:54:16Z</time>
      </trkpt>
      <trkpt lat="43.46743" lon="5.97037">
        <ele>344.8</ele>
        <time>2017-01-15T08:54:27Z</time>
      </trkpt>
      <trkpt lat="43.46736" lon="5.97046">
        <ele>346.3</ele>
        <time>2017-01-15T08:54:37Z</time>
      </trkpt>
      <trkpt lat="43.46735" lon="5.97059">
        <ele>347.9</ele>
        <time>2017-01-15T08:54:47Z</time>
      </trkpt>
      <trkpt lat="43.46729" lon="5.9707">
        <ele>348.4</ele>
        <time>2017-01-15T08:54:57Z</time>
      </trkpt>
      <trkpt lat="43.46721" lon="5.97076">
        <ele>352</ele>
        <time>2017-01-15T08:55:14Z</time>
      </trkpt>
      <trkpt lat="43.46712" lon="5.9708">
        <ele>354.4</ele>
        <time>2017-01-15T08:55:28Z</time>
      </trkpt>
      <trkpt lat="43.46704" lon="5.97088">
        <ele>357.9</ele>
        <time>2017-01-15T08:55:45Z</time>
      </trkpt>
      <trkpt lat="43.46696" lon="5.97095">
        <ele>361</ele>
        <time>2017-01-15T08:55:58Z</time>
      </trkpt>
      <trkpt lat="43.46687" lon="5.97099">
        <ele>366.4</ele>
        <time>2017-01-15T08:56:22Z</time>
      </trkpt>
      <trkpt lat="43.46678" lon="5.97104">
        <ele>372.5</ele>
        <time>2017-01-15T08:56:51Z</time>
      </trkpt>
      <trkpt lat="43.46669" lon="5.971">
        <ele>377</ele>
        <time>2017-01-15T08:57:12Z</time>
      </trkpt>
      <trkpt lat="43.4666" lon="5.97102">
        <ele>379.7</ele>
        <time>2017-01-15T08:57:27Z</time>
      </trkpt>
      <trkpt lat="43.46656" lon="5.97113">
        <ele>384</ele>
        <time>2017-01-15T08:57:49Z</time>
      </trkpt>
      <trkpt lat="43.46647" lon="5.97116">
        <ele>389.2</ele>
        <time>2017-01-15T08:58:14Z</time>
      </trkpt>
      <trkpt lat="43.46638" lon="5.97118">
        <ele>393.4</ele>
        <time>2017-01-15T08:58:34Z</time>
      </trkpt>
      <trkpt lat="43.46627" lon="5.9712">
        <ele>397.5</ele>
        <time>2017-01-15T08:58:53Z</time>
      </trkpt>
      <trkpt lat="43.46617" lon="5.97125">
        <ele>401.3</ele>
        <time>2017-01-15T08:59:11Z</time>
      </trkpt>
      <trkpt lat="43.46609" lon="5.97131">
        <ele>405.6</ele>
        <time>2017-01-15T08:59:31Z</time>
      </trkpt>
      <trkpt lat="43.46601" lon="5.97137">
        <ele>407.7</ele>
        <time>2017-01-15T08:59:41Z</time>
      </trkpt>
      <trkpt lat="43.46602" lon="5.97149">
        <ele>409.6</ele>
        <time>2017-01-15T08:59:53Z</time>
      </trkpt>
      <trkpt lat="43.46609" lon="5.97159">
        <ele>411.4</ele>
        <time>2017-01-15T09:00:31Z</time>
      </trkpt>
      <trkpt lat="43.46615" lon="5.9717">
        <ele>413.4</ele>
        <time>2017-01-15T09:00:41Z</time>
      </trkpt>
      <trkpt lat="43.4662" lon="5.97181">
        <ele>415.4</ele>
        <time>2017-01-15T09:00:51Z</time>
      </trkpt>
      <trkpt lat="43.46623" lon="5.97193">
        <ele>418.4</ele>
        <time>2017-01-15T09:01:03Z</time>
      </trkpt>
      <trkpt lat="43.46622" lon="5.97206">
        <ele>421.4</ele>
        <time>2017-01-15T09:01:17Z</time>
      </trkpt>
      <trkpt lat="43.46618" lon="5.97216">
        <ele>424.6</ele>
        <time>2017-01-15T09:03:46Z</time>
      </trkpt>
      <trkpt lat="43.46609" lon="5.9722">
        <ele>424.6</ele>
        <time>2017-01-15T09:04:05Z</time>
      </trkpt>
      <trkpt lat="43.46617" lon="5.97214">
        <ele>424</ele>
        <time>2017-01-15T09:05:13Z</time>
      </trkpt>
      <trkpt lat="43.46626" lon="5.97214">
        <ele>424.3</ele>
        <time>2017-01-15T09:05:23Z</time>
      </trkpt>
      <trkpt lat="43.46631" lon="5.97225">
        <ele>425.8</ele>
        <time>2017-01-15T09:05:33Z</time>
      </trkpt>
      <trkpt lat="43.46635" lon="5.97236">
        <ele>427.8</ele>
        <time>2017-01-15T09:05:43Z</time>
      </trkpt>
      <trkpt lat="43.46631" lon="5.97248">
        <ele>429.9</ele>
        <time>2017-01-15T09:05:53Z</time>
      </trkpt>
      <trkpt lat="43.46634" lon="5.9726">
        <ele>432.1</ele>
        <time>2017-01-15T09:06:03Z</time>
      </trkpt>
      <trkpt lat="43.46638" lon="5.97272">
        <ele>434.6</ele>
        <time>2017-01-15T09:06:13Z</time>
      </trkpt>
      <trkpt lat="43.46641" lon="5.97285">
        <ele>437</ele>
        <time>2017-01-15T09:06:23Z</time>
      </trkpt>
      <trkpt lat="43.46647" lon="5.97294">
        <ele>440.4</ele>
        <time>2017-01-15T09:06:40Z</time>
      </trkpt>
      <trkpt lat="43.46656" lon="5.97298">
        <ele>443.1</ele>
        <time>2017-01-15T09:06:52Z</time>
      </trkpt>
      <trkpt lat="43.46665" lon="5.97296">
        <ele>444</ele>
        <time>2017-01-15T09:07:01Z</time>
      </trkpt>
      <trkpt lat="43.46668" lon="5.97308">
        <ele>443.8</ele>
        <time>2017-01-15T09:10:03Z</time>
      </trkpt>
      <trkpt lat="43.46671" lon="5.9732">
        <ele>446.3</ele>
        <time>2017-01-15T09:10:24Z</time>
      </trkpt>
      <trkpt lat="43.46667" lon="5.97332">
        <ele>449.5</ele>
        <time>2017-01-15T09:10:42Z</time>
      </trkpt>
      <trkpt lat="43.46672" lon="5.97344">
        <ele>451.3</ele>
        <time>2017-01-15T09:10:51Z</time>
      </trkpt>
      <trkpt lat="43.4667" lon="5.97356">
        <ele>453.2</ele>
        <time>2017-01-15T09:11:03Z</time>
      </trkpt>
      <trkpt lat="43.46671" lon="5.97369">
        <ele>454.7</ele>
        <time>2017-01-15T09:11:16Z</time>
      </trkpt>
      <trkpt lat="43.46675" lon="5.97381">
        <ele>457.5</ele>
        <time>2017-01-15T09:11:31Z</time>
      </trkpt>
      <trkpt lat="43.46679" lon="5.97393">
        <ele>459.8</ele>
        <time>2017-01-15T09:11:48Z</time>
      </trkpt>
      <trkpt lat="43.46683" lon="5.97404">
        <ele>461.2</ele>
        <time>2017-01-15T09:12:00Z</time>
      </trkpt>
      <trkpt lat="43.46688" lon="5.97415">
        <ele>462.5</ele>
        <time>2017-01-15T09:12:11Z</time>
      </trkpt>
      <trkpt lat="43.46691" lon="5.97427">
        <ele>465.2</ele>
        <time>2017-01-15T09:12:27Z</time>
      </trkpt>
      <trkpt lat="43.46697" lon="5.97438">
        <ele>467</ele>
        <time>2017-01-15T09:12:39Z</time>
      </trkpt>
      <trkpt lat="43.46703" lon="5.97447">
        <ele>469.7</ele>
        <time>2017-01-15T09:12:55Z</time>
      </trkpt>
      <trkpt lat="43.46706" lon="5.97459">
        <ele>473.4</ele>
        <time>2017-01-15T09:13:16Z</time>
      </trkpt>
      <trkpt lat="43.4671" lon="5.97471">
        <ele>475.6</ele>
        <time>2017-01-15T09:13:29Z</time>
      </trkpt>
      <trkpt lat="43.46714" lon="5.97482">
        <ele>478.8</ele>
        <time>2017-01-15T09:13:50Z</time>
      </trkpt>
      <trkpt lat="43.46719" lon="5.97493">
        <ele>480.7</ele>
        <time>2017-01-15T09:14:04Z</time>
      </trkpt>
      <trkpt lat="43.46722" lon="5.97505">
        <ele>484.5</ele>
        <time>2017-01-15T09:14:27Z</time>
      </trkpt>
      <trkpt lat="43.46723" lon="5.97518">
        <ele>488.6</ele>
        <time>2017-01-15T09:15:00Z</time>
      </trkpt>
      <trkpt lat="43.46724" lon="5.97531">
        <ele>491.4</ele>
        <time>2017-01-15T09:15:13Z</time>
      </trkpt>
      <trkpt lat="43.4673" lon="5.97541">
        <ele>493.7</ele>
        <time>2017-01-15T09:15:26Z</time>
      </trkpt>
      <trkpt lat="43.46735" lon="5.97552">
        <ele>496.3</ele>
        <time>2017-01-15T09:15:41Z</time>
      </trkpt>
      <trkpt lat="43.46742" lon="5.9756">
        <ele>498.6</ele>
        <time>2017-01-15T09:15:58Z</time>
      </trkpt>
      <trkpt lat="43.4675" lon="5.97566">
        <ele>501.8</ele>
        <time>2017-01-15T09:16:29Z</time>
      </trkpt>
      <trkpt lat="43.46754" lon="5.97578">
        <ele>504.4</ele>
        <time>2017-01-15T09:16:41Z</time>
      </trkpt>
      <trkpt lat="43.46755" lon="5.97591">
        <ele>506.7</ele>
        <time>2017-01-15T09:16:53Z</time>
      </trkpt>
      <trkpt lat="43.4676" lon="5.97601">
        <ele>509.2</ele>
        <time>2017-01-15T09:17:06Z</time>
      </trkpt>
      <trkpt lat="43.46761" lon="5.97615">
        <ele>511.9</ele>
        <time>2017-01-15T09:17:26Z</time>
      </trkpt>
      <trkpt lat="43.46764" lon="5.97627">
        <ele>514.7</ele>
        <time>2017-01-15T09:17:46Z</time>
      </trkpt>
      <trkpt lat="43.4676" lon="5.97639">
        <ele>517.7</ele>
        <time>2017-01-15T09:18:20Z</time>
      </trkpt>
      <trkpt lat="43.46769" lon="5.97637">
        <ele>517.4</ele>
        <time>2017-01-15T09:20:20Z</time>
      </trkpt>
      <trkpt lat="43.46775" lon="5.97647">
        <ele>517.6</ele>
        <time>2017-01-15T09:23:59Z</time>
      </trkpt>
      <trkpt lat="43.46776" lon="5.97659">
        <ele>521.4</ele>
        <time>2017-01-15T09:24:31Z</time>
      </trkpt>
      <trkpt lat="43.46781" lon="5.9767">
        <ele>523</ele>
        <time>2017-01-15T09:24:39Z</time>
      </trkpt>
      <trkpt lat="43.46782" lon="5.97683">
        <ele>524.5</ele>
        <time>2017-01-15T09:25:00Z</time>
      </trkpt>
      <trkpt lat="43.46788" lon="5.97692">
        <ele>525.9</ele>
        <time>2017-01-15T09:25:10Z</time>
      </trkpt>
      <trkpt lat="43.46796" lon="5.97699">
        <ele>527.3</ele>
        <time>2017-01-15T09:25:24Z</time>
      </trkpt>
      <trkpt lat="43.46804" lon="5.97706">
        <ele>529.7</ele>
        <time>2017-01-15T09:25:36Z</time>
      </trkpt>
      <trkpt lat="43.46811" lon="5.97716">
        <ele>532.8</ele>
        <time>2017-01-15T09:25:49Z</time>
      </trkpt>
      <trkpt lat="43.46819" lon="5.97721">
        <ele>534.5</ele>
        <time>2017-01-15T09:25:57Z</time>
      </trkpt>
      <trkpt lat="43.46821" lon="5.97734">
        <ele>535.9</ele>
        <time>2017-01-15T09:26:39Z</time>
      </trkpt>
      <trkpt lat="43.46823" lon="5.97747">
        <ele>536.7</ele>
        <time>2017-01-15T09:26:48Z</time>
      </trkpt>
      <trkpt lat="43.46829" lon="5.97755">
        <ele>539.7</ele>
        <time>2017-01-15T09:27:00Z</time>
      </trkpt>
      <trkpt lat="43.46832" lon="5.97769">
        <ele>540.3</ele>
        <time>2017-01-15T09:27:10Z</time>
      </trkpt>
      <trkpt lat="43.46834" lon="5.97782">
        <ele>541</ele>
        <time>2017-01-15T09:27:19Z</time>
      </trkpt>
      <trkpt lat="43.46837" lon="5.97794">
        <ele>542.8</ele>
        <time>2017-01-15T09:27:31Z</time>
      </trkpt>
      <trkpt lat="43.46839" lon="5.97806">
        <ele>541.9</ele>
        <time>2017-01-15T09:27:40Z</time>
      </trkpt>
      <trkpt lat="43.46843" lon="5.97819">
        <ele>539.7</ele>
        <time>2017-01-15T09:27:48Z</time>
      </trkpt>
      <trkpt lat="43.46849" lon="5.97828">
        <ele>536.5</ele>
        <time>2017-01-15T09:27:58Z</time>
      </trkpt>
      <trkpt lat="43.46853" lon="5.97839">
        <ele>536.5</ele>
        <time>2017-01-15T09:28:20Z</time>
      </trkpt>
      <trkpt lat="43.4686" lon="5.97848">
        <ele>537.3</ele>
        <time>2017-01-15T09:28:28Z</time>
      </trkpt>
      <trkpt lat="43.46866" lon="5.97858">
        <ele>539.4</ele>
        <time>2017-01-15T09:28:39Z</time>
      </trkpt>
      <trkpt lat="43.46873" lon="5.97867">
        <ele>540.2</ele>
        <time>2017-01-15T09:28:47Z</time>
      </trkpt>
      <trkpt lat="43.46877" lon="5.97877">
        <ele>541.3</ele>
        <time>2017-01-15T09:28:55Z</time>
      </trkpt>
      <trkpt lat="43.46878" lon="5.9789">
        <ele>542.5</ele>
        <time>2017-01-15T09:29:05Z</time>
      </trkpt>
      <trkpt lat="43.46885" lon="5.97899">
        <ele>545.4</ele>
        <time>2017-01-15T09:29:19Z</time>
      </trkpt>
      <trkpt lat="43.46891" lon="5.97909">
        <ele>547.5</ele>
        <time>2017-01-15T09:29:35Z</time>
      </trkpt>
      <trkpt lat="43.46895" lon="5.9792">
        <ele>550.8</ele>
        <time>2017-01-15T09:30:02Z</time>
      </trkpt>
      <trkpt lat="43.46897" lon="5.97933">
        <ele>554.1</ele>
        <time>2017-01-15T09:30:21Z</time>
      </trkpt>
      <trkpt lat="43.46901" lon="5.97945">
        <ele>556.8</ele>
        <time>2017-01-15T09:30:38Z</time>
      </trkpt>
      <trkpt lat="43.46901" lon="5.97957">
        <ele>557.9</ele>
        <time>2017-01-15T09:31:11Z</time>
      </trkpt>
      <trkpt lat="43.46907" lon="5.97967">
        <ele>558.5</ele>
        <time>2017-01-15T09:31:27Z</time>
      </trkpt>
      <trkpt lat="43.46916" lon="5.97972">
        <ele>556</ele>
        <time>2017-01-15T09:31:46Z</time>
      </trkpt>
      <trkpt lat="43.46921" lon="5.97983">
        <ele>554.2</ele>
        <time>2017-01-15T09:32:04Z</time>
      </trkpt>
      <trkpt lat="43.46927" lon="5.97993">
        <ele>555.3</ele>
        <time>2017-01-15T09:32:21Z</time>
      </trkpt>
      <trkpt lat="43.4693" lon="5.98005">
        <ele>554.6</ele>
        <time>2017-01-15T09:32:38Z</time>
      </trkpt>
      <trkpt lat="43.46932" lon="5.98018">
        <ele>553.7</ele>
        <time>2017-01-15T09:33:04Z</time>
      </trkpt>
      <trkpt lat="43.46938" lon="5.98028">
        <ele>554.1</ele>
        <time>2017-01-15T09:33:26Z</time>
      </trkpt>
      <trkpt lat="43.46946" lon="5.98033">
        <ele>555.6</ele>
        <time>2017-01-15T09:33:46Z</time>
      </trkpt>
      <trkpt lat="43.4695" lon="5.98045">
        <ele>557</ele>
        <time>2017-01-15T09:33:58Z</time>
      </trkpt>
      <trkpt lat="43.46957" lon="5.98053">
        <ele>558.2</ele>
        <time>2017-01-15T09:34:15Z</time>
      </trkpt>
      <trkpt lat="43.46962" lon="5.98066">
        <ele>558.6</ele>
        <time>2017-01-15T09:34:28Z</time>
      </trkpt>
      <trkpt lat="43.46962" lon="5.98078">
        <ele>558.4</ele>
        <time>2017-01-15T09:34:42Z</time>
      </trkpt>
      <trkpt lat="43.46963" lon="5.98091">
        <ele>557.8</ele>
        <time>2017-01-15T09:34:55Z</time>
      </trkpt>
      <trkpt lat="43.46967" lon="5.98103">
        <ele>557.9</ele>
        <time>2017-01-15T09:35:13Z</time>
      </trkpt>
      <trkpt lat="43.46963" lon="5.98114">
        <ele>561.5</ele>
        <time>2017-01-15T09:35:33Z</time>
      </trkpt>
      <trkpt lat="43.46967" lon="5.98126">
        <ele>562.6</ele>
        <time>2017-01-15T09:35:48Z</time>
      </trkpt>
      <trkpt lat="43.46975" lon="5.98134">
        <ele>563.9</ele>
        <time>2017-01-15T09:36:04Z</time>
      </trkpt>
      <trkpt lat="43.46971" lon="5.98146">
        <ele>565.2</ele>
        <time>2017-01-15T09:36:24Z</time>
      </trkpt>
      <trkpt lat="43.4697" lon="5.98159">
        <ele>567</ele>
        <time>2017-01-15T09:36:39Z</time>
      </trkpt>
      <trkpt lat="43.46978" lon="5.98164">
        <ele>570.1</ele>
        <time>2017-01-15T09:36:58Z</time>
      </trkpt>
      <trkpt lat="43.46979" lon="5.98177">
        <ele>572.3</ele>
        <time>2017-01-15T09:37:16Z</time>
      </trkpt>
      <trkpt lat="43.46977" lon="5.98189">
        <ele>574.8</ele>
        <time>2017-01-15T09:37:35Z</time>
      </trkpt>
      <trkpt lat="43.46985" lon="5.98195">
        <ele>574.6</ele>
        <time>2017-01-15T09:39:12Z</time>
      </trkpt>
      <trkpt lat="43.46985" lon="5.98208">
        <ele>575</ele>
        <time>2017-01-15T09:39:19Z</time>
      </trkpt>
      <trkpt lat="43.46993" lon="5.98215">
        <ele>577.4</ele>
        <time>2017-01-15T09:40:00Z</time>
      </trkpt>
      <trkpt lat="43.46995" lon="5.98227">
        <ele>577.4</ele>
        <time>2017-01-15T09:40:29Z</time>
      </trkpt>
      <trkpt lat="43.47004" lon="5.98231">
        <ele>575</ele>
        <time>2017-01-15T09:47:07Z</time>
      </trkpt>
      <trkpt lat="43.47012" lon="5.98226">
        <ele>573.1</ele>
        <time>2017-01-15T09:47:42Z</time>
      </trkpt>
      <trkpt lat="43.47021" lon="5.98231">
        <ele>568</ele>
        <time>2017-01-15T09:48:16Z</time>
      </trkpt>
      <trkpt lat="43.47028" lon="5.98239">
        <ele>565.1</ele>
        <time>2017-01-15T09:48:33Z</time>
      </trkpt>
      <trkpt lat="43.47037" lon="5.98243">
        <ele>562.8</ele>
        <time>2017-01-15T09:48:46Z</time>
      </trkpt>
      <trkpt lat="43.47046" lon="5.98246">
        <ele>561</ele>
        <time>2017-01-15T09:49:00Z</time>
      </trkpt>
      <trkpt lat="43.47055" lon="5.98248">
        <ele>558.5</ele>
        <time>2017-01-15T09:49:18Z</time>
      </trkpt>
      <trkpt lat="43.47061" lon="5.98258">
        <ele>553.9</ele>
        <time>2017-01-15T09:49:43Z</time>
      </trkpt>
      <trkpt lat="43.4707" lon="5.9826">
        <ele>551.9</ele>
        <time>2017-01-15T09:49:59Z</time>
      </trkpt>
      <trkpt lat="43.47078" lon="5.98267">
        <ele>550.2</ele>
        <time>2017-01-15T09:50:17Z</time>
      </trkpt>
      <trkpt lat="43.4708" lon="5.9828">
        <ele>549.4</ele>
        <time>2017-01-15T09:50:29Z</time>
      </trkpt>
      <trkpt lat="43.47084" lon="5.98292">
        <ele>548.2</ele>
        <time>2017-01-15T09:50:42Z</time>
      </trkpt>
      <trkpt lat="43.47089" lon="5.98302">
        <ele>547</ele>
        <time>2017-01-15T09:50:52Z</time>
      </trkpt>
      <trkpt lat="43.4709" lon="5.98315">
        <ele>546.1</ele>
        <time>2017-01-15T09:51:02Z</time>
      </trkpt>
      <trkpt lat="43.47095" lon="5.98325">
        <ele>544.1</ele>
        <time>2017-01-15T09:51:14Z</time>
      </trkpt>
      <trkpt lat="43.47101" lon="5.98336">
        <ele>542.7</ele>
        <time>2017-01-15T09:51:23Z</time>
      </trkpt>
      <trkpt lat="43.47108" lon="5.98344">
        <ele>542.3</ele>
        <time>2017-01-15T09:51:34Z</time>
      </trkpt>
      <trkpt lat="43.47115" lon="5.98354">
        <ele>541.4</ele>
        <time>2017-01-15T09:51:44Z</time>
      </trkpt>
      <trkpt lat="43.47125" lon="5.98355">
        <ele>539.7</ele>
        <time>2017-01-15T09:51:58Z</time>
      </trkpt>
      <trkpt lat="43.47134" lon="5.98356">
        <ele>537.9</ele>
        <time>2017-01-15T09:52:09Z</time>
      </trkpt>
      <trkpt lat="43.47144" lon="5.98353">
        <ele>536.8</ele>
        <time>2017-01-15T09:52:18Z</time>
      </trkpt>
      <trkpt lat="43.47153" lon="5.98347">
        <ele>536.1</ele>
        <time>2017-01-15T09:52:27Z</time>
      </trkpt>
      <trkpt lat="43.47159" lon="5.98339">
        <ele>533.7</ele>
        <time>2017-01-15T09:52:42Z</time>
      </trkpt>
      <trkpt lat="43.47167" lon="5.98331">
        <ele>531.7</ele>
        <time>2017-01-15T09:52:54Z</time>
      </trkpt>
      <trkpt lat="43.47177" lon="5.98326">
        <ele>529.7</ele>
        <time>2017-01-15T09:53:08Z</time>
      </trkpt>
      <trkpt lat="43.47184" lon="5.98319">
        <ele>527.7</ele>
        <time>2017-01-15T09:53:20Z</time>
      </trkpt>
      <trkpt lat="43.47192" lon="5.98326">
        <ele>526.2</ele>
        <time>2017-01-15T09:53:44Z</time>
      </trkpt>
      <trkpt lat="43.47198" lon="5.98336">
        <ele>525.9</ele>
        <time>2017-01-15T09:53:53Z</time>
      </trkpt>
      <trkpt lat="43.47207" lon="5.98343">
        <ele>525.7</ele>
        <time>2017-01-15T09:54:01Z</time>
      </trkpt>
      <trkpt lat="43.47214" lon="5.98352">
        <ele>525</ele>
        <time>2017-01-15T09:54:09Z</time>
      </trkpt>
      <trkpt lat="43.47222" lon="5.9836">
        <ele>524.5</ele>
        <time>2017-01-15T09:54:18Z</time>
      </trkpt>
      <trkpt lat="43.47232" lon="5.98364">
        <ele>524.1</ele>
        <time>2017-01-15T09:54:27Z</time>
      </trkpt>
      <trkpt lat="43.47242" lon="5.98362">
        <ele>524</ele>
        <time>2017-01-15T09:54:33Z</time>
      </trkpt>
      <trkpt lat="43.47247" lon="5.98352">
        <ele>523.5</ele>
        <time>2017-01-15T09:54:42Z</time>
      </trkpt>
      <trkpt lat="43.47239" lon="5.98345">
        <ele>521.7</ele>
        <time>2017-01-15T09:54:53Z</time>
      </trkpt>
      <trkpt lat="43.47232" lon="5.98337">
        <ele>520</ele>
        <time>2017-01-15T09:55:01Z</time>
      </trkpt>
      <trkpt lat="43.47226" lon="5.98327">
        <ele>518.7</ele>
        <time>2017-01-15T09:55:06Z</time>
      </trkpt>
      <trkpt lat="43.47223" lon="5.98313">
        <ele>517.6</ele>
        <time>2017-01-15T09:55:14Z</time>
      </trkpt>
      <trkpt lat="43.47218" lon="5.98301">
        <ele>516.7</ele>
        <time>2017-01-15T09:55:22Z</time>
      </trkpt>
      <trkpt lat="43.47219" lon="5.98288">
        <ele>515.8</ele>
        <time>2017-01-15T09:55:30Z</time>
      </trkpt>
      <trkpt lat="43.47219" lon="5.98275">
        <ele>515.8</ele>
        <time>2017-01-15T09:55:37Z</time>
      </trkpt>
      <trkpt lat="43.4722" lon="5.98263">
        <ele>515.5</ele>
        <time>2017-01-15T09:55:44Z</time>
      </trkpt>
      <trkpt lat="43.47222" lon="5.9825">
        <ele>515.3</ele>
        <time>2017-01-15T09:55:52Z</time>
      </trkpt>
      <trkpt lat="43.47223" lon="5.98237">
        <ele>515</ele>
        <time>2017-01-15T09:55:59Z</time>
      </trkpt>
      <trkpt lat="43.47226" lon="5.98224">
        <ele>515</ele>
        <time>2017-01-15T09:56:07Z</time>
      </trkpt>
      <trkpt lat="43.47226" lon="5.98211">
        <ele>514.7</ele>
        <time>2017-01-15T09:56:14Z</time>
      </trkpt>
      <trkpt lat="43.47231" lon="5.98199">
        <ele>513.4</ele>
        <time>2017-01-15T09:56:22Z</time>
      </trkpt>
      <trkpt lat="43.47233" lon="5.98185">
        <ele>512.8</ele>
        <time>2017-01-15T09:56:30Z</time>
      </trkpt>
      <trkpt lat="43.47235" lon="5.98173">
        <ele>512.4</ele>
        <time>2017-01-15T09:56:37Z</time>
      </trkpt>
      <trkpt lat="43.47237" lon="5.9816">
        <ele>512</ele>
        <time>2017-01-15T09:56:44Z</time>
      </trkpt>
      <trkpt lat="43.47243" lon="5.98151">
        <ele>511.7</ele>
        <time>2017-01-15T09:56:50Z</time>
      </trkpt>
      <trkpt lat="43.4725" lon="5.98141">
        <ele>510.8</ele>
        <time>2017-01-15T09:56:58Z</time>
      </trkpt>
      <trkpt lat="43.47258" lon="5.98134">
        <ele>509.7</ele>
        <time>2017-01-15T09:57:05Z</time>
      </trkpt>
      <trkpt lat="43.47266" lon="5.98127">
        <ele>508.6</ele>
        <time>2017-01-15T09:57:12Z</time>
      </trkpt>
      <trkpt lat="43.47273" lon="5.98118">
        <ele>507</ele>
        <time>2017-01-15T09:57:20Z</time>
      </trkpt>
      <trkpt lat="43.4728" lon="5.9811">
        <ele>505.7</ele>
        <time>2017-01-15T09:57:28Z</time>
      </trkpt>
      <trkpt lat="43.47286" lon="5.98099">
        <ele>504.6</ele>
        <time>2017-01-15T09:57:36Z</time>
      </trkpt>
      <trkpt lat="43.47291" lon="5.98089">
        <ele>503.3</ele>
        <time>2017-01-15T09:57:44Z</time>
      </trkpt>
      <trkpt lat="43.47295" lon="5.98078">
        <ele>502.2</ele>
        <time>2017-01-15T09:57:52Z</time>
      </trkpt>
      <trkpt lat="43.47298" lon="5.98065">
        <ele>501</ele>
        <time>2017-01-15T09:58:02Z</time>
      </trkpt>
      <trkpt lat="43.47296" lon="5.98052">
        <ele>500.3</ele>
        <time>2017-01-15T09:58:17Z</time>
      </trkpt>
      <trkpt lat="43.47295" lon="5.9804">
        <ele>499.3</ele>
        <time>2017-01-15T09:58:27Z</time>
      </trkpt>
      <trkpt lat="43.47296" lon="5.98027">
        <ele>497.9</ele>
        <time>2017-01-15T09:58:38Z</time>
      </trkpt>
      <trkpt lat="43.47297" lon="5.98013">
        <ele>496.9</ele>
        <time>2017-01-15T09:58:46Z</time>
      </trkpt>
      <trkpt lat="43.47304" lon="5.98004">
        <ele>495.8</ele>
        <time>2017-01-15T09:58:53Z</time>
      </trkpt>
      <trkpt lat="43.47312" lon="5.97998">
        <ele>494.3</ele>
        <time>2017-01-15T09:59:00Z</time>
      </trkpt>
      <trkpt lat="43.47321" lon="5.97994">
        <ele>493.2</ele>
        <time>2017-01-15T09:59:07Z</time>
      </trkpt>
      <trkpt lat="43.4733" lon="5.97991">
        <ele>491.9</ele>
        <time>2017-01-15T09:59:14Z</time>
      </trkpt>
      <trkpt lat="43.4734" lon="5.97986">
        <ele>491.2</ele>
        <time>2017-01-15T09:59:21Z</time>
      </trkpt>
      <trkpt lat="43.47348" lon="5.97979">
        <ele>490.3</ele>
        <time>2017-01-15T09:59:30Z</time>
      </trkpt>
      <trkpt lat="43.47351" lon="5.97967">
        <ele>489.3</ele>
        <time>2017-01-15T09:59:39Z</time>
      </trkpt>
      <trkpt lat="43.47346" lon="5.97956">
        <ele>488.3</ele>
        <time>2017-01-15T09:59:49Z</time>
      </trkpt>
      <trkpt lat="43.47342" lon="5.97945">
        <ele>487</ele>
        <time>2017-01-15T09:59:57Z</time>
      </trkpt>
      <trkpt lat="43.47344" lon="5.97932">
        <ele>485.1</ele>
        <time>2017-01-15T10:00:07Z</time>
      </trkpt>
      <trkpt lat="43.47352" lon="5.97926">
        <ele>483.5</ele>
        <time>2017-01-15T10:00:19Z</time>
      </trkpt>
      <trkpt lat="43.47356" lon="5.97937">
        <ele>483.6</ele>
        <time>2017-01-15T10:01:33Z</time>
      </trkpt>
      <trkpt lat="43.47347" lon="5.97934">
        <ele>483.4</ele>
        <time>2017-01-15T10:05:15Z</time>
      </trkpt>
      <trkpt lat="43.47339" lon="5.97929">
        <ele>482.9</ele>
        <time>2017-01-15T10:05:30Z</time>
      </trkpt>
      <trkpt lat="43.47344" lon="5.97917">
        <ele>481.7</ele>
        <time>2017-01-15T10:06:40Z</time>
      </trkpt>
      <trkpt lat="43.47349" lon="5.97905">
        <ele>479.8</ele>
        <time>2017-01-15T10:06:49Z</time>
      </trkpt>
      <trkpt lat="43.47355" lon="5.97895">
        <ele>478</ele>
        <time>2017-01-15T10:06:56Z</time>
      </trkpt>
      <trkpt lat="43.47363" lon="5.97887">
        <ele>475.7</ele>
        <time>2017-01-15T10:07:04Z</time>
      </trkpt>
      <trkpt lat="43.47372" lon="5.97886">
        <ele>474</ele>
        <time>2017-01-15T10:07:11Z</time>
      </trkpt>
      <trkpt lat="43.47379" lon="5.97894">
        <ele>472.1</ele>
        <time>2017-01-15T10:07:20Z</time>
      </trkpt>
      <trkpt lat="43.47385" lon="5.97904">
        <ele>470</ele>
        <time>2017-01-15T10:07:30Z</time>
      </trkpt>
      <trkpt lat="43.47391" lon="5.97914">
        <ele>466.7</ele>
        <time>2017-01-15T10:08:01Z</time>
      </trkpt>
      <trkpt lat="43.47398" lon="5.97924">
        <ele>465.2</ele>
        <time>2017-01-15T10:08:11Z</time>
      </trkpt>
      <trkpt lat="43.47405" lon="5.97933">
        <ele>463.6</ele>
        <time>2017-01-15T10:08:19Z</time>
      </trkpt>
      <trkpt lat="43.47411" lon="5.97942">
        <ele>461.8</ele>
        <time>2017-01-15T10:08:26Z</time>
      </trkpt>
      <trkpt lat="43.47414" lon="5.97955">
        <ele>460</ele>
        <time>2017-01-15T10:08:34Z</time>
      </trkpt>
      <trkpt lat="43.47418" lon="5.97966">
        <ele>457.9</ele>
        <time>2017-01-15T10:08:43Z</time>
      </trkpt>
      <trkpt lat="43.47428" lon="5.97973">
        <ele>456.7</ele>
        <time>2017-01-15T10:08:52Z</time>
      </trkpt>
      <trkpt lat="43.47435" lon="5.97966">
        <ele>455.1</ele>
        <time>2017-01-15T10:09:01Z</time>
      </trkpt>
      <trkpt lat="43.47437" lon="5.97953">
        <ele>453.3</ele>
        <time>2017-01-15T10:09:10Z</time>
      </trkpt>
      <trkpt lat="43.47438" lon="5.97941">
        <ele>450.7</ele>
        <time>2017-01-15T10:09:22Z</time>
      </trkpt>
      <trkpt lat="43.47439" lon="5.97928">
        <ele>448.5</ele>
        <time>2017-01-15T10:09:32Z</time>
      </trkpt>
      <trkpt lat="43.47442" lon="5.97915">
        <ele>446.9</ele>
        <time>2017-01-15T10:09:42Z</time>
      </trkpt>
      <trkpt lat="43.47443" lon="5.97902">
        <ele>444.9</ele>
        <time>2017-01-15T10:09:52Z</time>
      </trkpt>
      <trkpt lat="43.4744" lon="5.97888">
        <ele>443.9</ele>
        <time>2017-01-15T10:10:00Z</time>
      </trkpt>
      <trkpt lat="43.4744" lon="5.97874">
        <ele>442.7</ele>
        <time>2017-01-15T10:10:10Z</time>
      </trkpt>
      <trkpt lat="43.47437" lon="5.9786">
        <ele>441.5</ele>
        <time>2017-01-15T10:10:27Z</time>
      </trkpt>
      <trkpt lat="43.47433" lon="5.97848">
        <ele>440.4</ele>
        <time>2017-01-15T10:10:34Z</time>
      </trkpt>
      <trkpt lat="43.47428" lon="5.97837">
        <ele>439.9</ele>
        <time>2017-01-15T10:10:39Z</time>
      </trkpt>
      <trkpt lat="43.47424" lon="5.97825">
        <ele>438.1</ele>
        <time>2017-01-15T10:10:46Z</time>
      </trkpt>
      <trkpt lat="43.47423" lon="5.97812">
        <ele>436.7</ele>
        <time>2017-01-15T10:10:54Z</time>
      </trkpt>
      <trkpt lat="43.47421" lon="5.97799">
        <ele>434.2</ele>
        <time>2017-01-15T10:11:02Z</time>
      </trkpt>
      <trkpt lat="43.4742" lon="5.97786">
        <ele>432</ele>
        <time>2017-01-15T10:11:11Z</time>
      </trkpt>
      <trkpt lat="43.47419" lon="5.97773">
        <ele>429.3</ele>
        <time>2017-01-15T10:11:20Z</time>
      </trkpt>
      <trkpt lat="43.47418" lon="5.97761">
        <ele>426.6</ele>
        <time>2017-01-15T10:11:30Z</time>
      </trkpt>
      <trkpt lat="43.47424" lon="5.9775">
        <ele>424.2</ele>
        <time>2017-01-15T10:11:41Z</time>
      </trkpt>
      <trkpt lat="43.47423" lon="5.97738">
        <ele>422</ele>
        <time>2017-01-15T10:11:59Z</time>
      </trkpt>
      <trkpt lat="43.47428" lon="5.97727">
        <ele>419.2</ele>
        <time>2017-01-15T10:12:12Z</time>
      </trkpt>
      <trkpt lat="43.47434" lon="5.97718">
        <ele>416.8</ele>
        <time>2017-01-15T10:12:27Z</time>
      </trkpt>
      <trkpt lat="43.47436" lon="5.97705">
        <ele>414.7</ele>
        <time>2017-01-15T10:12:40Z</time>
      </trkpt>
      <trkpt lat="43.47439" lon="5.97693">
        <ele>412.5</ele>
        <time>2017-01-15T10:12:50Z</time>
      </trkpt>
      <trkpt lat="43.47437" lon="5.9768">
        <ele>410.9</ele>
        <time>2017-01-15T10:12:58Z</time>
      </trkpt>
      <trkpt lat="43.47434" lon="5.97667">
        <ele>409.3</ele>
        <time>2017-01-15T10:13:08Z</time>
      </trkpt>
      <trkpt lat="43.47432" lon="5.97654">
        <ele>406.8</ele>
        <time>2017-01-15T10:13:19Z</time>
      </trkpt>
      <trkpt lat="43.4743" lon="5.97641">
        <ele>404.9</ele>
        <time>2017-01-15T10:13:28Z</time>
      </trkpt>
      <trkpt lat="43.47434" lon="5.97629">
        <ele>402.8</ele>
        <time>2017-01-15T10:13:38Z</time>
      </trkpt>
      <trkpt lat="43.47437" lon="5.97616">
        <ele>400.1</ele>
        <time>2017-01-15T10:13:48Z</time>
      </trkpt>
      <trkpt lat="43.47437" lon="5.97603">
        <ele>398.1</ele>
        <time>2017-01-15T10:13:58Z</time>
      </trkpt>
      <trkpt lat="43.4744" lon="5.9759">
        <ele>397.1</ele>
        <time>2017-01-15T10:14:09Z</time>
      </trkpt>
      <trkpt lat="43.47443" lon="5.97577">
        <ele>395.4</ele>
        <time>2017-01-15T10:14:21Z</time>
      </trkpt>
      <trkpt lat="43.47441" lon="5.97564">
        <ele>394</ele>
        <time>2017-01-15T10:14:29Z</time>
      </trkpt>
      <trkpt lat="43.47441" lon="5.97551">
        <ele>392.5</ele>
        <time>2017-01-15T10:14:39Z</time>
      </trkpt>
      <trkpt lat="43.4744" lon="5.97538">
        <ele>391</ele>
        <time>2017-01-15T10:14:49Z</time>
      </trkpt>
      <trkpt lat="43.4744" lon="5.97525">
        <ele>389.2</ele>
        <time>2017-01-15T10:14:59Z</time>
      </trkpt>
      <trkpt lat="43.47442" lon="5.97512">
        <ele>387.5</ele>
        <time>2017-01-15T10:15:09Z</time>
      </trkpt>
      <trkpt lat="43.47442" lon="5.975">
        <ele>388.9</ele>
        <time>2017-01-15T10:19:21Z</time>
      </trkpt>
      <trkpt lat="43.47442" lon="5.97486">
        <ele>388.6</ele>
        <time>2017-01-15T10:19:48Z</time>
      </trkpt>
      <trkpt lat="43.47446" lon="5.97474">
        <ele>387.7</ele>
        <time>2017-01-15T10:19:55Z</time>
      </trkpt>
      <trkpt lat="43.47448" lon="5.97461">
        <ele>386.7</ele>
        <time>2017-01-15T10:20:02Z</time>
      </trkpt>
      <trkpt lat="43.47451" lon="5.97448">
        <ele>386</ele>
        <time>2017-01-15T10:20:09Z</time>
      </trkpt>
      <trkpt lat="43.47456" lon="5.97437">
        <ele>385.5</ele>
        <time>2017-01-15T10:20:17Z</time>
      </trkpt>
      <trkpt lat="43.47463" lon="5.97428">
        <ele>384.5</ele>
        <time>2017-01-15T10:20:25Z</time>
      </trkpt>
      <trkpt lat="43.47472" lon="5.97427">
        <ele>383.2</ele>
        <time>2017-01-15T10:20:34Z</time>
      </trkpt>
      <trkpt lat="43.47482" lon="5.97426">
        <ele>382.4</ele>
        <time>2017-01-15T10:20:44Z</time>
      </trkpt>
      <trkpt lat="43.47492" lon="5.97425">
        <ele>380.5</ele>
        <time>2017-01-15T10:20:57Z</time>
      </trkpt>
      <trkpt lat="43.475" lon="5.97429">
        <ele>379.2</ele>
        <time>2017-01-15T10:21:07Z</time>
      </trkpt>
      <trkpt lat="43.47508" lon="5.97436">
        <ele>377.8</ele>
        <time>2017-01-15T10:21:16Z</time>
      </trkpt>
      <trkpt lat="43.47516" lon="5.97442">
        <ele>376.3</ele>
        <time>2017-01-15T10:21:25Z</time>
      </trkpt>
      <trkpt lat="43.47524" lon="5.97449">
        <ele>375.4</ele>
        <time>2017-01-15T10:21:33Z</time>
      </trkpt>
      <trkpt lat="43.47531" lon="5.97458">
        <ele>374.3</ele>
        <time>2017-01-15T10:21:43Z</time>
      </trkpt>
      <trkpt lat="43.47539" lon="5.97466">
        <ele>373.1</ele>
        <time>2017-01-15T10:21:51Z</time>
      </trkpt>
      <trkpt lat="43.47548" lon="5.97472">
        <ele>372.4</ele>
        <time>2017-01-15T10:21:57Z</time>
      </trkpt>
      <trkpt lat="43.47556" lon="5.97478">
        <ele>371.8</ele>
        <time>2017-01-15T10:22:05Z</time>
      </trkpt>
      <trkpt lat="43.47565" lon="5.97485">
        <ele>370.5</ele>
        <time>2017-01-15T10:22:13Z</time>
      </trkpt>
      <trkpt lat="43.47573" lon="5.97494">
        <ele>369.4</ele>
        <time>2017-01-15T10:22:21Z</time>
      </trkpt>
      <trkpt lat="43.47579" lon="5.97503">
        <ele>368.9</ele>
        <time>2017-01-15T10:22:29Z</time>
      </trkpt>
      <trkpt lat="43.47588" lon="5.9751">
        <ele>367.6</ele>
        <time>2017-01-15T10:22:38Z</time>
      </trkpt>
      <trkpt lat="43.47596" lon="5.97515">
        <ele>365.4</ele>
        <time>2017-01-15T10:22:48Z</time>
      </trkpt>
      <trkpt lat="43.47605" lon="5.97519">
        <ele>363.5</ele>
        <time>2017-01-15T10:22:57Z</time>
      </trkpt>
      <trkpt lat="43.47615" lon="5.97523">
        <ele>362.1</ele>
        <time>2017-01-15T10:23:07Z</time>
      </trkpt>
      <trkpt lat="43.47625" lon="5.97526">
        <ele>360.7</ele>
        <time>2017-01-15T10:23:12Z</time>
      </trkpt>
      <trkpt lat="43.47634" lon="5.97532">
        <ele>358.5</ele>
        <time>2017-01-15T10:23:22Z</time>
      </trkpt>
      <trkpt lat="43.47642" lon="5.97538">
        <ele>355.9</ele>
        <time>2017-01-15T10:23:35Z</time>
      </trkpt>
      <trkpt lat="43.47647" lon="5.97549">
        <ele>354.6</ele>
        <time>2017-01-15T10:23:44Z</time>
      </trkpt>
      <trkpt lat="43.47651" lon="5.97561">
        <ele>352.5</ele>
        <time>2017-01-15T10:23:54Z</time>
      </trkpt>
      <trkpt lat="43.47657" lon="5.97571">
        <ele>350.7</ele>
        <time>2017-01-15T10:24:05Z</time>
      </trkpt>
      <trkpt lat="43.47666" lon="5.97574">
        <ele>349.5</ele>
        <time>2017-01-15T10:24:13Z</time>
      </trkpt>
      <trkpt lat="43.47676" lon="5.97574">
        <ele>348.1</ele>
        <time>2017-01-15T10:24:21Z</time>
      </trkpt>
      <trkpt lat="43.47686" lon="5.9757">
        <ele>346.9</ele>
        <time>2017-01-15T10:24:30Z</time>
      </trkpt>
      <trkpt lat="43.47696" lon="5.97571">
        <ele>347</ele>
        <time>2017-01-15T10:24:39Z</time>
      </trkpt>
      <trkpt lat="43.47705" lon="5.97578">
        <ele>346.5</ele>
        <time>2017-01-15T10:24:48Z</time>
      </trkpt>
      <trkpt lat="43.47709" lon="5.97589">
        <ele>347</ele>
        <time>2017-01-15T10:24:54Z</time>
      </trkpt>
      <trkpt lat="43.47713" lon="5.976">
        <ele>347.9</ele>
        <time>2017-01-15T10:25:05Z</time>
      </trkpt>
      <trkpt lat="43.47721" lon="5.97608">
        <ele>350.4</ele>
        <time>2017-01-15T10:25:18Z</time>
      </trkpt>
      <trkpt lat="43.4773" lon="5.97612">
        <ele>353</ele>
        <time>2017-01-15T10:25:32Z</time>
      </trkpt>
      <trkpt lat="43.47736" lon="5.97622">
        <ele>355</ele>
        <time>2017-01-15T10:25:44Z</time>
      </trkpt>
      <trkpt lat="43.47742" lon="5.97633">
        <ele>355.8</ele>
        <time>2017-01-15T10:25:53Z</time>
      </trkpt>
      <trkpt lat="43.47745" lon="5.97646">
        <ele>357.8</ele>
        <time>2017-01-15T10:26:04Z</time>
      </trkpt>
      <trkpt lat="43.47749" lon="5.97659">
        <ele>359.3</ele>
        <time>2017-01-15T10:26:13Z</time>
      </trkpt>
      <trkpt lat="43.47751" lon="5.97671">
        <ele>360.4</ele>
        <time>2017-01-15T10:26:22Z</time>
      </trkpt>
      <trkpt lat="43.47754" lon="5.97683">
        <ele>361.2</ele>
        <time>2017-01-15T10:26:30Z</time>
      </trkpt>
      <trkpt lat="43.47757" lon="5.97696">
        <ele>362.3</ele>
        <time>2017-01-15T10:26:38Z</time>
      </trkpt>
      <trkpt lat="43.47758" lon="5.97709">
        <ele>362.9</ele>
        <time>2017-01-15T10:26:45Z</time>
      </trkpt>
      <trkpt lat="43.47762" lon="5.97721">
        <ele>363.7</ele>
        <time>2017-01-15T10:26:54Z</time>
      </trkpt>
      <trkpt lat="43.47766" lon="5.97735">
        <ele>364.2</ele>
        <time>2017-01-15T10:27:01Z</time>
      </trkpt>
      <trkpt lat="43.47768" lon="5.97748">
        <ele>365.1</ele>
        <time>2017-01-15T10:27:08Z</time>
      </trkpt>
      <trkpt lat="43.47772" lon="5.97759">
        <ele>365.5</ele>
        <time>2017-01-15T10:27:15Z</time>
      </trkpt>
      <trkpt lat="43.47775" lon="5.97772">
        <ele>366.4</ele>
        <time>2017-01-15T10:27:23Z</time>
      </trkpt>
      <trkpt lat="43.47777" lon="5.97785">
        <ele>366.9</ele>
        <time>2017-01-15T10:27:31Z</time>
      </trkpt>
      <trkpt lat="43.4778" lon="5.97796">
        <ele>367.6</ele>
        <time>2017-01-15T10:27:38Z</time>
      </trkpt>
      <trkpt lat="43.47784" lon="5.97808">
        <ele>368.2</ele>
        <time>2017-01-15T10:27:46Z</time>
      </trkpt>
      <trkpt lat="43.47787" lon="5.97822">
        <ele>368.8</ele>
        <time>2017-01-15T10:27:52Z</time>
      </trkpt>
      <trkpt lat="43.4779" lon="5.97835">
        <ele>369.1</ele>
        <time>2017-01-15T10:28:00Z</time>
      </trkpt>
      <trkpt lat="43.47794" lon="5.97848">
        <ele>369.6</ele>
        <time>2017-01-15T10:28:08Z</time>
      </trkpt>
      <trkpt lat="43.47798" lon="5.97859">
        <ele>369.6</ele>
        <time>2017-01-15T10:28:14Z</time>
      </trkpt>
      <trkpt lat="43.47801" lon="5.97872">
        <ele>370.1</ele>
        <time>2017-01-15T10:28:21Z</time>
      </trkpt>
      <trkpt lat="43.47804" lon="5.97884">
        <ele>370.8</ele>
        <time>2017-01-15T10:28:29Z</time>
      </trkpt>
      <trkpt lat="43.4781" lon="5.97894">
        <ele>371.3</ele>
        <time>2017-01-15T10:28:36Z</time>
      </trkpt>
      <trkpt lat="43.47817" lon="5.97904">
        <ele>371.3</ele>
        <time>2017-01-15T10:28:43Z</time>
      </trkpt>
      <trkpt lat="43.47825" lon="5.97911">
        <ele>372.5</ele>
        <time>2017-01-15T10:28:50Z</time>
      </trkpt>
      <trkpt lat="43.47833" lon="5.97917">
        <ele>373.4</ele>
        <time>2017-01-15T10:28:58Z</time>
      </trkpt>
      <trkpt lat="43.47841" lon="5.97926">
        <ele>374.5</ele>
        <time>2017-01-15T10:29:07Z</time>
      </trkpt>
      <trkpt lat="43.47847" lon="5.97936">
        <ele>375.3</ele>
        <time>2017-01-15T10:29:16Z</time>
      </trkpt>
      <trkpt lat="43.47854" lon="5.97945">
        <ele>376</ele>
        <time>2017-01-15T10:29:22Z</time>
      </trkpt>
      <trkpt lat="43.4786" lon="5.97956">
        <ele>376.1</ele>
        <time>2017-01-15T10:29:29Z</time>
      </trkpt>
      <trkpt lat="43.47867" lon="5.97966">
        <ele>376.1</ele>
        <time>2017-01-15T10:29:36Z</time>
      </trkpt>
      <trkpt lat="43.47873" lon="5.97977">
        <ele>375.7</ele>
        <time>2017-01-15T10:29:43Z</time>
      </trkpt>
      <trkpt lat="43.47878" lon="5.97989">
        <ele>375.4</ele>
        <time>2017-01-15T10:29:50Z</time>
      </trkpt>
      <trkpt lat="43.47881" lon="5.98002">
        <ele>375.6</ele>
        <time>2017-01-15T10:29:59Z</time>
      </trkpt>
      <trkpt lat="43.47888" lon="5.9801">
        <ele>375.9</ele>
        <time>2017-01-15T10:30:10Z</time>
      </trkpt>
      <trkpt lat="43.47896" lon="5.98015">
        <ele>376.6</ele>
        <time>2017-01-15T10:30:23Z</time>
      </trkpt>
      <trkpt lat="43.47905" lon="5.98009">
        <ele>377.1</ele>
        <time>2017-01-15T10:31:24Z</time>
      </trkpt>
      <trkpt lat="43.47911" lon="5.97999">
        <ele>375.3</ele>
        <time>2017-01-15T10:31:33Z</time>
      </trkpt>
      <trkpt lat="43.47916" lon="5.97987">
        <ele>373.7</ele>
        <time>2017-01-15T10:31:44Z</time>
      </trkpt>
      <trkpt lat="43.47922" lon="5.97977">
        <ele>373.2</ele>
        <time>2017-01-15T10:31:51Z</time>
      </trkpt>
      <trkpt lat="43.47926" lon="5.97966">
        <ele>372.5</ele>
        <time>2017-01-15T10:32:01Z</time>
      </trkpt>
      <trkpt lat="43.47931" lon="5.97954">
        <ele>371.7</ele>
        <time>2017-01-15T10:32:09Z</time>
      </trkpt>
      <trkpt lat="43.47935" lon="5.97942">
        <ele>371.2</ele>
        <time>2017-01-15T10:32:17Z</time>
      </trkpt>
      <trkpt lat="43.47942" lon="5.97931">
        <ele>370.8</ele>
        <time>2017-01-15T10:32:24Z</time>
      </trkpt>
      <trkpt lat="43.47947" lon="5.97919">
        <ele>370.5</ele>
        <time>2017-01-15T10:32:30Z</time>
      </trkpt>
      <trkpt lat="43.47956" lon="5.97909">
        <ele>370.1</ele>
        <time>2017-01-15T10:32:36Z</time>
      </trkpt>
      <trkpt lat="43.47964" lon="5.97903">
        <ele>369.7</ele>
        <time>2017-01-15T10:32:42Z</time>
      </trkpt>
      <trkpt lat="43.47972" lon="5.97896">
        <ele>369.4</ele>
        <time>2017-01-15T10:32:49Z</time>
      </trkpt>
      <trkpt lat="43.4798" lon="5.97889">
        <ele>368.9</ele>
        <time>2017-01-15T10:32:57Z</time>
      </trkpt>
      <trkpt lat="43.47985" lon="5.97878">
        <ele>367.9</ele>
        <time>2017-01-15T10:33:08Z</time>
      </trkpt>
      <trkpt lat="43.47994" lon="5.97877">
        <ele>367.1</ele>
        <time>2017-01-15T10:33:16Z</time>
      </trkpt>
      <trkpt lat="43.48003" lon="5.97873">
        <ele>366</ele>
        <time>2017-01-15T10:33:23Z</time>
      </trkpt>
      <trkpt lat="43.48011" lon="5.97869">
        <ele>365.7</ele>
        <time>2017-01-15T10:33:29Z</time>
      </trkpt>
      <trkpt lat="43.48021" lon="5.97866">
        <ele>364.9</ele>
        <time>2017-01-15T10:33:37Z</time>
      </trkpt>
      <trkpt lat="43.4803" lon="5.97861">
        <ele>364.2</ele>
        <time>2017-01-15T10:33:46Z</time>
      </trkpt>
      <trkpt lat="43.48041" lon="5.97856">
        <ele>363</ele>
        <time>2017-01-15T10:33:54Z</time>
      </trkpt>
      <trkpt lat="43.48048" lon="5.97847">
        <ele>362.4</ele>
        <time>2017-01-15T10:34:01Z</time>
      </trkpt>
      <trkpt lat="43.48056" lon="5.97839">
        <ele>361.7</ele>
        <time>2017-01-15T10:34:08Z</time>
      </trkpt>
      <trkpt lat="43.48062" lon="5.9783">
        <ele>361.1</ele>
        <time>2017-01-15T10:34:15Z</time>
      </trkpt>
      <trkpt lat="43.4807" lon="5.97824">
        <ele>360.1</ele>
        <time>2017-01-15T10:34:23Z</time>
      </trkpt>
      <trkpt lat="43.48077" lon="5.97816">
        <ele>359.8</ele>
        <time>2017-01-15T10:34:30Z</time>
      </trkpt>
      <trkpt lat="43.48086" lon="5.97808">
        <ele>359.4</ele>
        <time>2017-01-15T10:34:37Z</time>
      </trkpt>
      <trkpt lat="43.48093" lon="5.97801">
        <ele>358.8</ele>
        <time>2017-01-15T10:34:45Z</time>
      </trkpt>
      <trkpt lat="43.48102" lon="5.97795">
        <ele>358.1</ele>
        <time>2017-01-15T10:34:53Z</time>
      </trkpt>
      <trkpt lat="43.4811" lon="5.97792">
        <ele>357.5</ele>
        <time>2017-01-15T10:35:01Z</time>
      </trkpt>
      <trkpt lat="43.4812" lon="5.978">
        <ele>357.1</ele>
        <time>2017-01-15T10:35:11Z</time>
      </trkpt>
      <trkpt lat="43.4813" lon="5.97803">
        <ele>356</ele>
        <time>2017-01-15T10:35:19Z</time>
      </trkpt>
      <trkpt lat="43.48139" lon="5.97802">
        <ele>355.3</ele>
        <time>2017-01-15T10:35:27Z</time>
      </trkpt>
      <trkpt lat="43.48149" lon="5.97801">
        <ele>354.7</ele>
        <time>2017-01-15T10:35:34Z</time>
      </trkpt>
      <trkpt lat="43.48159" lon="5.97797">
        <ele>354.2</ele>
        <time>2017-01-15T10:35:40Z</time>
      </trkpt>
      <trkpt lat="43.48166" lon="5.9779">
        <ele>353.7</ele>
        <time>2017-01-15T10:35:48Z</time>
      </trkpt>
      <trkpt lat="43.48173" lon="5.9778">
        <ele>352.7</ele>
        <time>2017-01-15T10:35:56Z</time>
      </trkpt>
      <trkpt lat="43.48179" lon="5.97771">
        <ele>351.6</ele>
        <time>2017-01-15T10:36:04Z</time>
      </trkpt>
      <trkpt lat="43.48186" lon="5.97762">
        <ele>350.7</ele>
        <time>2017-01-15T10:36:10Z</time>
      </trkpt>
      <trkpt lat="43.48195" lon="5.97761">
        <ele>350.3</ele>
        <time>2017-01-15T10:36:18Z</time>
      </trkpt>
      <trkpt lat="43.48203" lon="5.97754">
        <ele>349.9</ele>
        <time>2017-01-15T10:36:25Z</time>
      </trkpt>
      <trkpt lat="43.48213" lon="5.97753">
        <ele>349.9</ele>
        <time>2017-01-15T10:36:34Z</time>
      </trkpt>
      <trkpt lat="43.48223" lon="5.97752">
        <ele>349.7</ele>
        <time>2017-01-15T10:36:44Z</time>
      </trkpt>
      <trkpt lat="43.48232" lon="5.97753">
        <ele>349.9</ele>
        <time>2017-01-15T10:36:55Z</time>
      </trkpt>
      <trkpt lat="43.48242" lon="5.97756">
        <ele>349</ele>
        <time>2017-01-15T10:37:03Z</time>
      </trkpt>
      <trkpt lat="43.48251" lon="5.9776">
        <ele>348.8</ele>
        <time>2017-01-15T10:37:09Z</time>
      </trkpt>
      <trkpt lat="43.4826" lon="5.97763">
        <ele>348.1</ele>
        <time>2017-01-15T10:37:16Z</time>
      </trkpt>
      <trkpt lat="43.48269" lon="5.97768">
        <ele>347.9</ele>
        <time>2017-01-15T10:37:21Z</time>
      </trkpt>
      <trkpt lat="43.48278" lon="5.97768">
        <ele>347.5</ele>
        <time>2017-01-15T10:37:30Z</time>
      </trkpt>
      <trkpt lat="43.48287" lon="5.97769">
        <ele>346.6</ele>
        <time>2017-01-15T10:37:38Z</time>
      </trkpt>
      <trkpt lat="43.48297" lon="5.97767">
        <ele>345.7</ele>
        <time>2017-01-15T10:37:45Z</time>
      </trkpt>
      <trkpt lat="43.48306" lon="5.97771">
        <ele>345.4</ele>
        <time>2017-01-15T10:37:52Z</time>
      </trkpt>
      <trkpt lat="43.48316" lon="5.97773">
        <ele>344.7</ele>
        <time>2017-01-15T10:38:01Z</time>
      </trkpt>
      <trkpt lat="43.48326" lon="5.97774">
        <ele>344.5</ele>
        <time>2017-01-15T10:38:07Z</time>
      </trkpt>
      <trkpt lat="43.48335" lon="5.97779">
        <ele>344</ele>
        <time>2017-01-15T10:38:12Z</time>
      </trkpt>
      <trkpt lat="43.48343" lon="5.97775">
        <ele>343</ele>
        <time>2017-01-15T10:38:20Z</time>
      </trkpt>
      <trkpt lat="43.48353" lon="5.97777">
        <ele>342.4</ele>
        <time>2017-01-15T10:38:28Z</time>
      </trkpt>
      <trkpt lat="43.48362" lon="5.97782">
        <ele>341.7</ele>
        <time>2017-01-15T10:38:36Z</time>
      </trkpt>
      <trkpt lat="43.48371" lon="5.97785">
        <ele>340.8</ele>
        <time>2017-01-15T10:38:48Z</time>
      </trkpt>
      <trkpt lat="43.4838" lon="5.97792">
        <ele>340</ele>
        <time>2017-01-15T10:38:55Z</time>
      </trkpt>
      <trkpt lat="43.4839" lon="5.97802">
        <ele>339.9</ele>
        <time>2017-01-15T10:39:02Z</time>
      </trkpt>
      <trkpt lat="43.48399" lon="5.97807">
        <ele>339.5</ele>
        <time>2017-01-15T10:39:07Z</time>
      </trkpt>
      <trkpt lat="43.48407" lon="5.97813">
        <ele>338.2</ele>
        <time>2017-01-15T10:39:16Z</time>
      </trkpt>
      <trkpt lat="43.48414" lon="5.97823">
        <ele>338.3</ele>
        <time>2017-01-15T10:39:20Z</time>
      </trkpt>
      <trkpt lat="43.48419" lon="5.97834">
        <ele>338</ele>
        <time>2017-01-15T10:39:27Z</time>
      </trkpt>
      <trkpt lat="43.48428" lon="5.97829">
        <ele>337.9</ele>
        <time>2017-01-15T10:39:34Z</time>
      </trkpt>
      <trkpt lat="43.48433" lon="5.97818">
        <ele>339</ele>
        <time>2017-01-15T10:41:26Z</time>
      </trkpt>
      <trkpt lat="43.48434" lon="5.97805">
        <ele>339</ele>
        <time>2017-01-15T10:42:20Z</time>
      </trkpt>
      <trkpt lat="43.4843" lon="5.97792">
        <ele>338.9</ele>
        <time>2017-01-15T10:42:29Z</time>
      </trkpt>
      <trkpt lat="43.48429" lon="5.9778">
        <ele>339.1</ele>
        <time>2017-01-15T10:42:38Z</time>
      </trkpt>
      <trkpt lat="43.48426" lon="5.97768">
        <ele>339.6</ele>
        <time>2017-01-15T10:42:45Z</time>
      </trkpt>
      <trkpt lat="43.48425" lon="5.97755">
        <ele>340.3</ele>
        <time>2017-01-15T10:42:53Z</time>
      </trkpt>
      <trkpt lat="43.48421" lon="5.97741">
        <ele>341.2</ele>
        <time>2017-01-15T10:43:00Z</time>
      </trkpt>
      <trkpt lat="43.48417" lon="5.97728">
        <ele>341.8</ele>
        <time>2017-01-15T10:43:07Z</time>
      </trkpt>
      <trkpt lat="43.48413" lon="5.97715">
        <ele>342.2</ele>
        <time>2017-01-15T10:43:14Z</time>
      </trkpt>
      <trkpt lat="43.48409" lon="5.97703">
        <ele>342.1</ele>
        <time>2017-01-15T10:43:20Z</time>
      </trkpt>
      <trkpt lat="43.48404" lon="5.97692">
        <ele>341.9</ele>
        <time>2017-01-15T10:43:27Z</time>
      </trkpt>
      <trkpt lat="43.484" lon="5.9768">
        <ele>341.4</ele>
        <time>2017-01-15T10:43:34Z</time>
      </trkpt>
      <trkpt lat="43.48396" lon="5.97668">
        <ele>341.1</ele>
        <time>2017-01-15T10:43:40Z</time>
      </trkpt>
      <trkpt lat="43.4839" lon="5.97657">
        <ele>340.6</ele>
        <time>2017-01-15T10:43:47Z</time>
      </trkpt>
      <trkpt lat="43.48386" lon="5.97645">
        <ele>340.8</ele>
        <time>2017-01-15T10:43:53Z</time>
      </trkpt>
      <trkpt lat="43.48381" lon="5.97633">
        <ele>340.5</ele>
        <time>2017-01-15T10:44:00Z</time>
      </trkpt>
      <trkpt lat="43.48376" lon="5.97621">
        <ele>339.6</ele>
        <time>2017-01-15T10:44:06Z</time>
      </trkpt>
      <trkpt lat="43.48371" lon="5.97609">
        <ele>338.9</ele>
        <time>2017-01-15T10:44:13Z</time>
      </trkpt>
      <trkpt lat="43.48367" lon="5.97597">
        <ele>338</ele>
        <time>2017-01-15T10:44:21Z</time>
      </trkpt>
      <trkpt lat="43.48361" lon="5.97587">
        <ele>337.9</ele>
        <time>2017-01-15T10:44:27Z</time>
      </trkpt>
      <trkpt lat="43.48355" lon="5.97577">
        <ele>336.6</ele>
        <time>2017-01-15T10:44:34Z</time>
      </trkpt>
      <trkpt lat="43.48347" lon="5.9757">
        <ele>338</ele>
        <time>2017-01-15T10:44:41Z</time>
      </trkpt>
      <trkpt lat="43.48339" lon="5.97563">
        <ele>337.2</ele>
        <time>2017-01-15T10:44:48Z</time>
      </trkpt>
      <trkpt lat="43.48333" lon="5.97555">
        <ele>336.5</ele>
        <time>2017-01-15T10:44:55Z</time>
      </trkpt>
      <trkpt lat="43.48326" lon="5.97545">
        <ele>335.9</ele>
        <time>2017-01-15T10:45:03Z</time>
      </trkpt>
      <trkpt lat="43.4832" lon="5.97535">
        <ele>336.3</ele>
        <time>2017-01-15T10:45:10Z</time>
      </trkpt>
      <trkpt lat="43.48318" lon="5.97523">
        <ele>335.3</ele>
        <time>2017-01-15T10:45:18Z</time>
      </trkpt>
      <trkpt lat="43.48326" lon="5.97517">
        <ele>334.8</ele>
        <time>2017-01-15T10:45:38Z</time>
      </trkpt>
      <trkpt lat="43.48336" lon="5.97519">
        <ele>334.8</ele>
        <time>2017-01-15T10:45:51Z</time>
      </trkpt>
      <trkpt lat="43.48346" lon="5.97521">
        <ele>334.7</ele>
        <time>2017-01-15T10:46:00Z</time>
      </trkpt>
      <trkpt lat="43.48356" lon="5.97522">
        <ele>334.5</ele>
        <time>2017-01-15T10:46:08Z</time>
      </trkpt>
      <trkpt lat="43.48365" lon="5.97525">
        <ele>334.6</ele>
        <time>2017-01-15T10:46:16Z</time>
      </trkpt>
      <trkpt lat="43.48374" lon="5.97527">
        <ele>334.4</ele>
        <time>2017-01-15T10:46:24Z</time>
      </trkpt>
      <trkpt lat="43.48385" lon="5.97529">
        <ele>334.4</ele>
        <time>2017-01-15T10:46:33Z</time>
      </trkpt>
      <trkpt lat="43.48394" lon="5.97533">
        <ele>334.6</ele>
        <time>2017-01-15T10:46:41Z</time>
      </trkpt>
      <trkpt lat="43.48404" lon="5.97535">
        <ele>334.4</ele>
        <time>2017-01-15T10:46:49Z</time>
      </trkpt>
      <trkpt lat="43.48414" lon="5.97536">
        <ele>334.2</ele>
        <time>2017-01-15T10:46:58Z</time>
      </trkpt>
      <trkpt lat="43.48423" lon="5.97538">
        <ele>334.1</ele>
        <time>2017-01-15T10:47:05Z</time>
      </trkpt>
      <trkpt lat="43.48432" lon="5.9754">
        <ele>334.3</ele>
        <time>2017-01-15T10:47:12Z</time>
      </trkpt>
      <trkpt lat="43.48441" lon="5.97542">
        <ele>333.9</ele>
        <time>2017-01-15T10:47:19Z</time>
      </trkpt>
      <trkpt lat="43.48451" lon="5.97544">
        <ele>333.5</ele>
        <time>2017-01-15T10:47:27Z</time>
      </trkpt>
      <trkpt lat="43.48459" lon="5.97549">
        <ele>333.3</ele>
        <time>2017-01-15T10:47:33Z</time>
      </trkpt>
      <trkpt lat="43.48469" lon="5.97552">
        <ele>334.1</ele>
        <time>2017-01-15T10:47:40Z</time>
      </trkpt>
      <trkpt lat="43.48479" lon="5.97555">
        <ele>334.6</ele>
        <time>2017-01-15T10:47:49Z</time>
      </trkpt>
      <trkpt lat="43.4849" lon="5.97556">
        <ele>334.6</ele>
        <time>2017-01-15T10:47:56Z</time>
      </trkpt>
      <trkpt lat="43.485" lon="5.97558">
        <ele>334.7</ele>
        <time>2017-01-15T10:48:04Z</time>
      </trkpt>
      <trkpt lat="43.48509" lon="5.97562">
        <ele>334.9</ele>
        <time>2017-01-15T10:48:14Z</time>
      </trkpt>
      <trkpt lat="43.48518" lon="5.97563">
        <ele>335.1</ele>
        <time>2017-01-15T10:48:21Z</time>
      </trkpt>
      <trkpt lat="43.48528" lon="5.97563">
        <ele>335.1</ele>
        <time>2017-01-15T10:48:29Z</time>
      </trkpt>
      <trkpt lat="43.48536" lon="5.97556">
        <ele>335.7</ele>
        <time>2017-01-15T10:48:42Z</time>
      </trkpt>
      <trkpt lat="43.48539" lon="5.97544">
        <ele>335.9</ele>
        <time>2017-01-15T10:49:04Z</time>
      </trkpt>
      <trkpt lat="43.48543" lon="5.97532">
        <ele>336.2</ele>
        <time>2017-01-15T10:49:14Z</time>
      </trkpt>
      <trkpt lat="43.48552" lon="5.97533">
        <ele>337.4</ele>
        <time>2017-01-15T10:49:54Z</time>
      </trkpt>
      <trkpt lat="43.48559" lon="5.97542">
        <ele>338</ele>
        <time>2017-01-15T10:50:03Z</time>
      </trkpt>
      <trkpt lat="43.4856" lon="5.97555">
        <ele>339.2</ele>
        <time>2017-01-15T10:50:19Z</time>
      </trkpt>
      <trkpt lat="43.48565" lon="5.97544">
        <ele>339.1</ele>
        <time>2017-01-15T10:50:34Z</time>
      </trkpt>
      <trkpt lat="43.48574" lon="5.97549">
        <ele>339.6</ele>
        <time>2017-01-15T10:50:42Z</time>
      </trkpt>
      <trkpt lat="43.48584" lon="5.9755">
        <ele>340</ele>
        <time>2017-01-15T10:50:51Z</time>
      </trkpt>
      <trkpt lat="43.48591" lon="5.97542">
        <ele>340.3</ele>
        <time>2017-01-15T10:50:56Z</time>
      </trkpt>
      <trkpt lat="43.48597" lon="5.97532">
        <ele>341.8</ele>
        <time>2017-01-15T10:51:03Z</time>
      </trkpt>
      <trkpt lat="43.48606" lon="5.97522">
        <ele>342.6</ele>
        <time>2017-01-15T10:51:12Z</time>
      </trkpt>
      <trkpt lat="43.48613" lon="5.97512">
        <ele>343.7</ele>
        <time>2017-01-15T10:51:22Z</time>
      </trkpt>
      <trkpt lat="43.4862" lon="5.97503">
        <ele>344.2</ele>
        <time>2017-01-15T10:51:29Z</time>
      </trkpt>
      <trkpt lat="43.48627" lon="5.97493">
        <ele>344.9</ele>
        <time>2017-01-15T10:51:39Z</time>
      </trkpt>
      <trkpt lat="43.48632" lon="5.97482">
        <ele>346.5</ele>
        <time>2017-01-15T10:51:50Z</time>
      </trkpt>
      <trkpt lat="43.48638" lon="5.97472">
        <ele>346.8</ele>
        <time>2017-01-15T10:51:58Z</time>
      </trkpt>
      <trkpt lat="43.48645" lon="5.97462">
        <ele>346.5</ele>
        <time>2017-01-15T10:52:06Z</time>
      </trkpt>
      <trkpt lat="43.48651" lon="5.97452">
        <ele>346.5</ele>
        <time>2017-01-15T10:52:14Z</time>
      </trkpt>
      <trkpt lat="43.48658" lon="5.97443">
        <ele>346.6</ele>
        <time>2017-01-15T10:52:24Z</time>
      </trkpt>
      <trkpt lat="43.48665" lon="5.97434">
        <ele>346.7</ele>
        <time>2017-01-15T10:52:31Z</time>
      </trkpt>
      <trkpt lat="43.48671" lon="5.97422">
        <ele>346.9</ele>
        <time>2017-01-15T10:52:37Z</time>
      </trkpt>
      <trkpt lat="43.48676" lon="5.97411">
        <ele>346.9</ele>
        <time>2017-01-15T10:52:44Z</time>
      </trkpt>
      <trkpt lat="43.48682" lon="5.97401">
        <ele>347.1</ele>
        <time>2017-01-15T10:52:50Z</time>
      </trkpt>
      <trkpt lat="43.48688" lon="5.9739">
        <ele>347.3</ele>
        <time>2017-01-15T10:52:58Z</time>
      </trkpt>
      <trkpt lat="43.48694" lon="5.97379">
        <ele>347.6</ele>
        <time>2017-01-15T10:53:05Z</time>
      </trkpt>
      <trkpt lat="43.48696" lon="5.97366">
        <ele>347.9</ele>
        <time>2017-01-15T10:53:12Z</time>
      </trkpt>
      <trkpt lat="43.48699" lon="5.97353">
        <ele>348</ele>
        <time>2017-01-15T10:53:21Z</time>
      </trkpt>
      <trkpt lat="43.48707" lon="5.97344">
        <ele>348.5</ele>
        <time>2017-01-15T10:53:29Z</time>
      </trkpt>
      <trkpt lat="43.48713" lon="5.97334">
        <ele>348.6</ele>
        <time>2017-01-15T10:53:36Z</time>
      </trkpt>
      <trkpt lat="43.48722" lon="5.97326">
        <ele>348.4</ele>
        <time>2017-01-15T10:53:45Z</time>
      </trkpt>
      <trkpt lat="43.48726" lon="5.97315">
        <ele>348.3</ele>
        <time>2017-01-15T10:53:54Z</time>
      </trkpt>
      <trkpt lat="43.48734" lon="5.97308">
        <ele>348.1</ele>
        <time>2017-01-15T10:54:00Z</time>
      </trkpt>
      <trkpt lat="43.48739" lon="5.97297">
        <ele>347.5</ele>
        <time>2017-01-15T10:54:08Z</time>
      </trkpt>
      <trkpt lat="43.48744" lon="5.97287">
        <ele>346.9</ele>
        <time>2017-01-15T10:54:16Z</time>
      </trkpt>
      <trkpt lat="43.4875" lon="5.97276">
        <ele>346.2</ele>
        <time>2017-01-15T10:54:26Z</time>
      </trkpt>
      <trkpt lat="43.48756" lon="5.97267">
        <ele>345.5</ele>
        <time>2017-01-15T10:54:35Z</time>
      </trkpt>
      <trkpt lat="43.48762" lon="5.97255">
        <ele>344.9</ele>
        <time>2017-01-15T10:54:43Z</time>
      </trkpt>
      <trkpt lat="43.48768" lon="5.97244">
        <ele>344.1</ele>
        <time>2017-01-15T10:54:52Z</time>
      </trkpt>
      <trkpt lat="43.48776" lon="5.97236">
        <ele>343.8</ele>
        <time>2017-01-15T10:54:59Z</time>
      </trkpt>
      <trkpt lat="43.48783" lon="5.97226">
        <ele>343.6</ele>
        <time>2017-01-15T10:55:08Z</time>
      </trkpt>
      <trkpt lat="43.48789" lon="5.97215">
        <ele>343.6</ele>
        <time>2017-01-15T10:55:16Z</time>
      </trkpt>
      <trkpt lat="43.48794" lon="5.97204">
        <ele>343.7</ele>
        <time>2017-01-15T10:55:25Z</time>
      </trkpt>
      <trkpt lat="43.48803" lon="5.97197">
        <ele>343.1</ele>
        <time>2017-01-15T10:55:35Z</time>
      </trkpt>
      <trkpt lat="43.4881" lon="5.97188">
        <ele>342.8</ele>
        <time>2017-01-15T10:55:44Z</time>
      </trkpt>
      <trkpt lat="43.48819" lon="5.97185">
        <ele>342.3</ele>
        <time>2017-01-15T10:55:57Z</time>
      </trkpt>
      <trkpt lat="43.48828" lon="5.97181">
        <ele>341</ele>
        <time>2017-01-15T10:56:09Z</time>
      </trkpt>
      <trkpt lat="43.48837" lon="5.97179">
        <ele>340.2</ele>
        <time>2017-01-15T10:56:19Z</time>
      </trkpt>
      <trkpt lat="43.48847" lon="5.97177">
        <ele>339.6</ele>
        <time>2017-01-15T10:56:28Z</time>
      </trkpt>
      <trkpt lat="43.48856" lon="5.97172">
        <ele>339.3</ele>
        <time>2017-01-15T10:56:35Z</time>
      </trkpt>
      <trkpt lat="43.48865" lon="5.97169">
        <ele>338.5</ele>
        <time>2017-01-15T10:56:43Z</time>
      </trkpt>
      <trkpt lat="43.48873" lon="5.97165">
        <ele>338.5</ele>
        <time>2017-01-15T10:56:50Z</time>
      </trkpt>
      <trkpt lat="43.48883" lon="5.97162">
        <ele>337.6</ele>
        <time>2017-01-15T10:56:58Z</time>
      </trkpt>
      <trkpt lat="43.48892" lon="5.97161">
        <ele>336.9</ele>
        <time>2017-01-15T10:57:08Z</time>
      </trkpt>
      <trkpt lat="43.48902" lon="5.97162">
        <ele>336</ele>
        <time>2017-01-15T10:57:20Z</time>
      </trkpt>
      <trkpt lat="43.48912" lon="5.9716">
        <ele>335.3</ele>
        <time>2017-01-15T10:57:31Z</time>
      </trkpt>
      <trkpt lat="43.48921" lon="5.9716">
        <ele>334.2</ele>
        <time>2017-01-15T10:57:39Z</time>
      </trkpt>
      <trkpt lat="43.4893" lon="5.97162">
        <ele>334.2</ele>
        <time>2017-01-15T10:57:47Z</time>
      </trkpt>
      <trkpt lat="43.48939" lon="5.97161">
        <ele>333.5</ele>
        <time>2017-01-15T10:57:55Z</time>
      </trkpt>
      <trkpt lat="43.48949" lon="5.97161">
        <ele>332.8</ele>
        <time>2017-01-15T10:58:05Z</time>
      </trkpt>
      <trkpt lat="43.48959" lon="5.97163">
        <ele>331.9</ele>
        <time>2017-01-15T10:58:14Z</time>
      </trkpt>
      <trkpt lat="43.48969" lon="5.97163">
        <ele>331.2</ele>
        <time>2017-01-15T10:58:23Z</time>
      </trkpt>
      <trkpt lat="43.48979" lon="5.97164">
        <ele>330.3</ele>
        <time>2017-01-15T10:58:33Z</time>
      </trkpt>
      <trkpt lat="43.48988" lon="5.97165">
        <ele>329</ele>
        <time>2017-01-15T10:58:43Z</time>
      </trkpt>
      <trkpt lat="43.48997" lon="5.97168">
        <ele>327.3</ele>
        <time>2017-01-15T10:58:54Z</time>
      </trkpt>
      <trkpt lat="43.49006" lon="5.97162">
        <ele>326.2</ele>
        <time>2017-01-15T10:59:02Z</time>
      </trkpt>
      <trkpt lat="43.49014" lon="5.97155">
        <ele>325.5</ele>
        <time>2017-01-15T10:59:09Z</time>
      </trkpt>
      <trkpt lat="43.49023" lon="5.97151">
        <ele>324.1</ele>
        <time>2017-01-15T10:59:20Z</time>
      </trkpt>
      <trkpt lat="43.49028" lon="5.9714">
        <ele>323.2</ele>
        <time>2017-01-15T10:59:27Z</time>
      </trkpt>
      <trkpt lat="43.49036" lon="5.97132">
        <ele>322.4</ele>
        <time>2017-01-15T10:59:36Z</time>
      </trkpt>
      <trkpt lat="43.49044" lon="5.97126">
        <ele>320.8</ele>
        <time>2017-01-15T10:59:47Z</time>
      </trkpt>
      <trkpt lat="43.49053" lon="5.97121">
        <ele>319.6</ele>
        <time>2017-01-15T10:59:57Z</time>
      </trkpt>
      <trkpt lat="43.49062" lon="5.97117">
        <ele>318.2</ele>
        <time>2017-01-15T11:00:06Z</time>
      </trkpt>
      <trkpt lat="43.49071" lon="5.97115">
        <ele>317.7</ele>
        <time>2017-01-15T11:00:15Z</time>
      </trkpt>
      <trkpt lat="43.49079" lon="5.97109">
        <ele>316.6</ele>
        <time>2017-01-15T11:00:23Z</time>
      </trkpt>
      <trkpt lat="43.49088" lon="5.97104">
        <ele>316</ele>
        <time>2017-01-15T11:00:32Z</time>
      </trkpt>
      <trkpt lat="43.49096" lon="5.97099">
        <ele>315.1</ele>
        <time>2017-01-15T11:00:40Z</time>
      </trkpt>
      <trkpt lat="43.49106" lon="5.97095">
        <ele>314</ele>
        <time>2017-01-15T11:00:52Z</time>
      </trkpt>
      <trkpt lat="43.49115" lon="5.9709">
        <ele>313.7</ele>
        <time>2017-01-15T11:01:00Z</time>
      </trkpt>
      <trkpt lat="43.49123" lon="5.97083">
        <ele>312.8</ele>
        <time>2017-01-15T11:01:09Z</time>
      </trkpt>
      <trkpt lat="43.49131" lon="5.97077">
        <ele>312.2</ele>
        <time>2017-01-15T11:01:17Z</time>
      </trkpt>
      <trkpt lat="43.49141" lon="5.97071">
        <ele>311.6</ele>
        <time>2017-01-15T11:01:29Z</time>
      </trkpt>
      <trkpt lat="43.49146" lon="5.97061">
        <ele>311.2</ele>
        <time>2017-01-15T11:01:42Z</time>
      </trkpt>
      <trkpt lat="43.49149" lon="5.97049">
        <ele>309.7</ele>
        <time>2017-01-15T11:01:52Z</time>
      </trkpt>
      <trkpt lat="43.49155" lon="5.97038">
        <ele>308.8</ele>
        <time>2017-01-15T11:02:03Z</time>
      </trkpt>
      <trkpt lat="43.49161" lon="5.97027">
        <ele>308</ele>
        <time>2017-01-15T11:02:12Z</time>
      </trkpt>
      <trkpt lat="43.49167" lon="5.97018">
        <ele>306.7</ele>
        <time>2017-01-15T11:02:23Z</time>
      </trkpt>
      <trkpt lat="43.49176" lon="5.97013">
        <ele>305.4</ele>
        <time>2017-01-15T11:02:38Z</time>
      </trkpt>
      <trkpt lat="43.49184" lon="5.9702">
        <ele>303.8</ele>
        <time>2017-01-15T11:02:50Z</time>
      </trkpt>
      <trkpt lat="43.49192" lon="5.97027">
        <ele>302.8</ele>
        <time>2017-01-15T11:03:02Z</time>
      </trkpt>
      <trkpt lat="43.49202" lon="5.97031">
        <ele>301.6</ele>
        <time>2017-01-15T11:03:12Z</time>
      </trkpt>
      <trkpt lat="43.49209" lon="5.97039">
        <ele>300.3</ele>
        <time>2017-01-15T11:03:23Z</time>
      </trkpt>
      <trkpt lat="43.49216" lon="5.97048">
        <ele>298.7</ele>
        <time>2017-01-15T11:03:34Z</time>
      </trkpt>
      <trkpt lat="43.49225" lon="5.97053">
        <ele>298.1</ele>
        <time>2017-01-15T11:03:45Z</time>
      </trkpt>
      <trkpt lat="43.49235" lon="5.97054">
        <ele>296.4</ele>
        <time>2017-01-15T11:03:55Z</time>
      </trkpt>
      <trkpt lat="43.49243" lon="5.97061">
        <ele>295.1</ele>
        <time>2017-01-15T11:04:07Z</time>
      </trkpt>
      <trkpt lat="43.4925" lon="5.97071">
        <ele>294.9</ele>
        <time>2017-01-15T11:04:14Z</time>
      </trkpt>
      <trkpt lat="43.49257" lon="5.97078">
        <ele>294.1</ele>
        <time>2017-01-15T11:04:21Z</time>
      </trkpt>
      <trkpt lat="43.49266" lon="5.97083">
        <ele>293.2</ele>
        <time>2017-01-15T11:04:29Z</time>
      </trkpt>
      <trkpt lat="43.49276" lon="5.97083">
        <ele>293.5</ele>
        <time>2017-01-15T11:04:37Z</time>
      </trkpt>
      <trkpt lat="43.49284" lon="5.97078">
        <ele>292.9</ele>
        <time>2017-01-15T11:04:48Z</time>
      </trkpt>
      <trkpt lat="43.49293" lon="5.97075">
        <ele>292.4</ele>
        <time>2017-01-15T11:04:58Z</time>
      </trkpt>
      <trkpt lat="43.49303" lon="5.97071">
        <ele>291.4</ele>
        <time>2017-01-15T11:05:07Z</time>
      </trkpt>
      <trkpt lat="43.49313" lon="5.97072">
        <ele>290.3</ele>
        <time>2017-01-15T11:05:18Z</time>
      </trkpt>
      <trkpt lat="43.49321" lon="5.97076">
        <ele>289.3</ele>
        <time>2017-01-15T11:05:27Z</time>
      </trkpt>
      <trkpt lat="43.49329" lon="5.97083">
        <ele>288.5</ele>
        <time>2017-01-15T11:05:37Z</time>
      </trkpt>
      <trkpt lat="43.49338" lon="5.97088">
        <ele>287.5</ele>
        <time>2017-01-15T11:05:45Z</time>
      </trkpt>
      <trkpt lat="43.49347" lon="5.97088">
        <ele>286.2</ele>
        <time>2017-01-15T11:05:54Z</time>
      </trkpt>
      <trkpt lat="43.49356" lon="5.97088">
        <ele>284.4</ele>
        <time>2017-01-15T11:06:02Z</time>
      </trkpt>
      <trkpt lat="43.49366" lon="5.9709">
        <ele>283.9</ele>
        <time>2017-01-15T11:06:10Z</time>
      </trkpt>
      <trkpt lat="43.49375" lon="5.97093">
        <ele>282.7</ele>
        <time>2017-01-15T11:06:19Z</time>
      </trkpt>
      <trkpt lat="43.49382" lon="5.971">
        <ele>281.9</ele>
        <time>2017-01-15T11:06:29Z</time>
      </trkpt>
      <trkpt lat="43.49391" lon="5.97104">
        <ele>281.2</ele>
        <time>2017-01-15T11:06:41Z</time>
      </trkpt>
      <trkpt lat="43.494" lon="5.97109">
        <ele>280.4</ele>
        <time>2017-01-15T11:06:49Z</time>
      </trkpt>
      <trkpt lat="43.49409" lon="5.97113">
        <ele>279.1</ele>
        <time>2017-01-15T11:07:00Z</time>
      </trkpt>
      <trkpt lat="43.49419" lon="5.97116">
        <ele>277.8</ele>
        <time>2017-01-15T11:07:10Z</time>
      </trkpt>
      <trkpt lat="43.49428" lon="5.97122">
        <ele>276.8</ele>
        <time>2017-01-15T11:07:19Z</time>
      </trkpt>
      <trkpt lat="43.49437" lon="5.97128">
        <ele>276.2</ele>
        <time>2017-01-15T11:07:29Z</time>
      </trkpt>
      <trkpt lat="43.49446" lon="5.97133">
        <ele>275.9</ele>
        <time>2017-01-15T11:07:37Z</time>
      </trkpt>
      <trkpt lat="43.49455" lon="5.97135">
        <ele>275</ele>
        <time>2017-01-15T11:07:46Z</time>
      </trkpt>
      <trkpt lat="43.49464" lon="5.97134">
        <ele>274.7</ele>
        <time>2017-01-15T11:07:53Z</time>
      </trkpt>
      <trkpt lat="43.49473" lon="5.97136">
        <ele>274.5</ele>
        <time>2017-01-15T11:08:02Z</time>
      </trkpt>
      <trkpt lat="43.49482" lon="5.97139">
        <ele>274.2</ele>
        <time>2017-01-15T11:08:10Z</time>
      </trkpt>
      <trkpt lat="43.49492" lon="5.97145">
        <ele>274</ele>
        <time>2017-01-15T11:08:18Z</time>
      </trkpt>
      <trkpt lat="43.49501" lon="5.97149">
        <ele>273.8</ele>
        <time>2017-01-15T11:08:28Z</time>
      </trkpt>
      <trkpt lat="43.49511" lon="5.9715">
        <ele>272.8</ele>
        <time>2017-01-15T11:08:36Z</time>
      </trkpt>
      <trkpt lat="43.49521" lon="5.97153">
        <ele>272.5</ele>
        <time>2017-01-15T11:08:43Z</time>
      </trkpt>
      <trkpt lat="43.4953" lon="5.97152">
        <ele>272</ele>
        <time>2017-01-15T11:08:51Z</time>
      </trkpt>
      <trkpt lat="43.4954" lon="5.97154">
        <ele>271.5</ele>
        <time>2017-01-15T11:08:58Z</time>
      </trkpt>
      <trkpt lat="43.49549" lon="5.97156">
        <ele>271.3</ele>
        <time>2017-01-15T11:09:08Z</time>
      </trkpt>
      <trkpt lat="43.49558" lon="5.97149">
        <ele>271.4</ele>
        <time>2017-01-15T11:09:18Z</time>
      </trkpt>
      <trkpt lat="43.49567" lon="5.97148">
        <ele>272</ele>
        <time>2017-01-15T11:09:49Z</time>
      </trkpt>
      <trkpt lat="43.4956" lon="5.97155">
        <ele>271.8</ele>
        <time>2017-01-15T11:10:52Z</time>
      </trkpt>
      <trkpt lat="43.49568" lon="5.97159">
        <ele>270.7</ele>
        <time>2017-01-15T11:11:24Z</time>
      </trkpt>
      <trkpt lat="43.49574" lon="5.97169">
        <ele>271.2</ele>
        <time>2017-01-15T11:11:35Z</time>
      </trkpt>
      <trkpt lat="43.49582" lon="5.97177">
        <ele>271.4</ele>
        <time>2017-01-15T11:11:45Z</time>
      </trkpt>
      <trkpt lat="43.49591" lon="5.97181">
        <ele>271.2</ele>
        <time>2017-01-15T11:11:53Z</time>
      </trkpt>
      <trkpt lat="43.496" lon="5.97184">
        <ele>270.5</ele>
        <time>2017-01-15T11:12:01Z</time>
      </trkpt>
      <trkpt lat="43.49609" lon="5.97187">
        <ele>270.7</ele>
        <time>2017-01-15T11:12:09Z</time>
      </trkpt>
      <trkpt lat="43.49618" lon="5.97189">
        <ele>270.8</ele>
        <time>2017-01-15T11:12:17Z</time>
      </trkpt>
      <trkpt lat="43.49627" lon="5.97193">
        <ele>270.4</ele>
        <time>2017-01-15T11:12:25Z</time>
      </trkpt>
      <trkpt lat="43.49637" lon="5.97196">
        <ele>271</ele>
        <time>2017-01-15T11:12:34Z</time>
      </trkpt>
      <trkpt lat="43.49646" lon="5.97198">
        <ele>271.2</ele>
        <time>2017-01-15T11:12:41Z</time>
      </trkpt>
      <trkpt lat="43.49656" lon="5.97201">
        <ele>270.8</ele>
        <time>2017-01-15T11:12:49Z</time>
      </trkpt>
      <trkpt lat="43.49665" lon="5.97204">
        <ele>271.2</ele>
        <time>2017-01-15T11:13:00Z</time>
      </trkpt>
      <trkpt lat="43.49675" lon="5.97205">
        <ele>270.9</ele>
        <time>2017-01-15T11:13:09Z</time>
      </trkpt>
      <trkpt lat="43.49684" lon="5.97205">
        <ele>270.6</ele>
        <time>2017-01-15T11:13:16Z</time>
      </trkpt>
      <trkpt lat="43.49693" lon="5.97209">
        <ele>270.8</ele>
        <time>2017-01-15T11:13:23Z</time>
      </trkpt>
      <trkpt lat="43.49702" lon="5.9721">
        <ele>270.6</ele>
        <time>2017-01-15T11:13:29Z</time>
      </trkpt>
      <trkpt lat="43.49711" lon="5.97211">
        <ele>270.8</ele>
        <time>2017-01-15T11:13:38Z</time>
      </trkpt>
      <trkpt lat="43.4972" lon="5.97213">
        <ele>270.3</ele>
        <time>2017-01-15T11:13:46Z</time>
      </trkpt>
      <trkpt lat="43.49729" lon="5.97216">
        <ele>270.2</ele>
        <time>2017-01-15T11:13:55Z</time>
      </trkpt>
      <trkpt lat="43.49739" lon="5.97218">
        <ele>270.1</ele>
        <time>2017-01-15T11:14:04Z</time>
      </trkpt>
      <trkpt lat="43.49748" lon="5.97218">
        <ele>270</ele>
        <time>2017-01-15T11:14:11Z</time>
      </trkpt>
      <trkpt lat="43.49758" lon="5.97219">
        <ele>269.8</ele>
        <time>2017-01-15T11:14:20Z</time>
      </trkpt>
      <trkpt lat="43.49767" lon="5.97221">
        <ele>269.8</ele>
        <time>2017-01-15T11:14:26Z</time>
      </trkpt>
      <trkpt lat="43.49776" lon="5.97221">
        <ele>269.7</ele>
        <time>2017-01-15T11:14:34Z</time>
      </trkpt>
      <trkpt lat="43.49786" lon="5.9722">
        <ele>269.3</ele>
        <time>2017-01-15T11:14:44Z</time>
      </trkpt>
      <trkpt lat="43.49796" lon="5.9722">
        <ele>268.8</ele>
        <time>2017-01-15T11:14:52Z</time>
      </trkpt>
      <trkpt lat="43.49806" lon="5.9722">
        <ele>268.5</ele>
        <time>2017-01-15T11:15:01Z</time>
      </trkpt>
      <trkpt lat="43.49815" lon="5.9722">
        <ele>268.6</ele>
        <time>2017-01-15T11:15:07Z</time>
      </trkpt>
      <trkpt lat="43.49824" lon="5.97219">
        <ele>268.8</ele>
        <time>2017-01-15T11:15:14Z</time>
      </trkpt>
      <trkpt lat="43.49834" lon="5.97218">
        <ele>268.4</ele>
        <time>2017-01-15T11:15:21Z</time>
      </trkpt>
      <trkpt lat="43.49843" lon="5.97218">
        <ele>268.1</ele>
        <time>2017-01-15T11:15:28Z</time>
      </trkpt>
      <trkpt lat="43.49852" lon="5.97221">
        <ele>268.5</ele>
        <time>2017-01-15T11:15:35Z</time>
      </trkpt>
      <trkpt lat="43.49861" lon="5.97221">
        <ele>268</ele>
        <time>2017-01-15T11:15:42Z</time>
      </trkpt>
      <trkpt lat="43.49871" lon="5.97224">
        <ele>268.6</ele>
        <time>2017-01-15T11:15:50Z</time>
      </trkpt>
      <trkpt lat="43.4988" lon="5.97226">
        <ele>268.6</ele>
        <time>2017-01-15T11:15:57Z</time>
      </trkpt>
      <trkpt lat="43.49889" lon="5.97229">
        <ele>268.5</ele>
        <time>2017-01-15T11:16:05Z</time>
      </trkpt>
      <trkpt lat="43.49899" lon="5.97229">
        <ele>268.7</ele>
        <time>2017-01-15T11:16:12Z</time>
      </trkpt>
      <trkpt lat="43.49908" lon="5.97234">
        <ele>267.7</ele>
        <time>2017-01-15T11:16:21Z</time>
      </trkpt>
      <trkpt lat="43.49917" lon="5.97236">
        <ele>267.2</ele>
        <time>2017-01-15T11:16:29Z</time>
      </trkpt>
      <trkpt lat="43.49926" lon="5.97238">
        <ele>267.7</ele>
        <time>2017-01-15T11:16:37Z</time>
      </trkpt>
      <trkpt lat="43.49935" lon="5.97242">
        <ele>268.5</ele>
        <time>2017-01-15T11:16:44Z</time>
      </trkpt>
      <trkpt lat="43.49945" lon="5.97243">
        <ele>268.5</ele>
        <time>2017-01-15T11:16:52Z</time>
      </trkpt>
      <trkpt lat="43.49954" lon="5.9724">
        <ele>267.7</ele>
        <time>2017-01-15T11:16:58Z</time>
      </trkpt>
      <trkpt lat="43.49964" lon="5.97243">
        <ele>267.3</ele>
        <time>2017-01-15T11:17:06Z</time>
      </trkpt>
      <trkpt lat="43.49973" lon="5.97246">
        <ele>267.1</ele>
        <time>2017-01-15T11:17:15Z</time>
      </trkpt>
      <trkpt lat="43.49982" lon="5.97247">
        <ele>267.2</ele>
        <time>2017-01-15T11:17:25Z</time>
      </trkpt>
      <trkpt lat="43.49991" lon="5.97247">
        <ele>267</ele>
        <time>2017-01-15T11:17:30Z</time>
      </trkpt>
      <trkpt lat="43.5" lon="5.9725">
        <ele>266.2</ele>
        <time>2017-01-15T11:17:37Z</time>
      </trkpt>
      <trkpt lat="43.50008" lon="5.97257">
        <ele>267.2</ele>
        <time>2017-01-15T11:17:44Z</time>
      </trkpt>
      <trkpt lat="43.50017" lon="5.9726">
        <ele>269.3</ele>
        <time>2017-01-15T11:17:53Z</time>
      </trkpt>
      <trkpt lat="43.50027" lon="5.97265">
        <ele>269.4</ele>
        <time>2017-01-15T11:18:02Z</time>
      </trkpt>
      <trkpt lat="43.50034" lon="5.97274">
        <ele>269.5</ele>
        <time>2017-01-15T11:18:10Z</time>
      </trkpt>
      <trkpt lat="43.5004" lon="5.97283">
        <ele>271</ele>
        <time>2017-01-15T11:18:19Z</time>
      </trkpt>
      <trkpt lat="43.50047" lon="5.97292">
        <ele>272.7</ele>
        <time>2017-01-15T11:18:33Z</time>
      </trkpt>
      <trkpt lat="43.50055" lon="5.97298">
        <ele>273.5</ele>
        <time>2017-01-15T11:18:41Z</time>
      </trkpt>
      <trkpt lat="43.50058" lon="5.9731">
        <ele>275.7</ele>
        <time>2017-01-15T11:18:53Z</time>
      </trkpt>
      <trkpt lat="43.50054" lon="5.97322">
        <ele>276.8</ele>
        <time>2017-01-15T11:19:08Z</time>
      </trkpt>
      <trkpt lat="43.5006" lon="5.97331">
        <ele>276</ele>
        <time>2017-01-15T11:19:39Z</time>
      </trkpt>
      <trkpt lat="43.50052" lon="5.97326">
        <ele>276.9</ele>
        <time>2017-01-15T11:29:17Z</time>
      </trkpt>
      <trkpt lat="43.50061" lon="5.97327">
        <ele>277</ele>
        <time>2017-01-15T11:31:55Z</time>
      </trkpt>
      <trkpt lat="43.5007" lon="5.97323">
        <ele>278.1</ele>
        <time>2017-01-15T11:35:04Z</time>
      </trkpt>
      <trkpt lat="43.50061" lon="5.97327">
        <ele>278.5</ele>
        <time>2017-01-15T11:36:56Z</time>
      </trkpt>
      <trkpt lat="43.5007" lon="5.97329">
        <ele>279.5</ele>
        <time>2017-01-15T11:39:16Z</time>
      </trkpt>
      <trkpt lat="43.50061" lon="5.97326">
        <ele>279.1</ele>
        <time>2017-01-15T11:42:10Z</time>
      </trkpt>
      <trkpt lat="43.5007" lon="5.97331">
        <ele>279.4</ele>
        <time>2017-01-15T11:44:01Z</time>
      </trkpt>
      <trkpt lat="43.50076" lon="5.97322">
        <ele>279.9</ele>
        <time>2017-01-15T11:45:50Z</time>
      </trkpt>
      <trkpt lat="43.5007" lon="5.97331">
        <ele>280.3</ele>
        <time>2017-01-15T11:47:10Z</time>
      </trkpt>
      <trkpt lat="43.50061" lon="5.97327">
        <ele>280.8</ele>
        <time>2017-01-15T11:48:24Z</time>
      </trkpt>
      <trkpt lat="43.50054" lon="5.97334">
        <ele>279.5</ele>
        <time>2017-01-15T11:59:41Z</time>
      </trkpt>
      <trkpt lat="43.50051" lon="5.97346">
        <ele>273</ele>
        <time>2017-01-15T12:00:15Z</time>
      </trkpt>
      <trkpt lat="43.50046" lon="5.97357">
        <ele>267.8</ele>
        <time>2017-01-15T12:00:38Z</time>
      </trkpt>
      <trkpt lat="43.50043" lon="5.97369">
        <ele>264.4</ele>
        <time>2017-01-15T12:00:48Z</time>
      </trkpt>
      <trkpt lat="43.50037" lon="5.97379">
        <ele>259.4</ele>
        <time>2017-01-15T12:01:11Z</time>
      </trkpt>
      <trkpt lat="43.5003" lon="5.97387">
        <ele>257.1</ele>
        <time>2017-01-15T12:01:30Z</time>
      </trkpt>
      <trkpt lat="43.50025" lon="5.97398">
        <ele>255.5</ele>
        <time>2017-01-15T12:01:48Z</time>
      </trkpt>
      <trkpt lat="43.50033" lon="5.97405">
        <ele>255.3</ele>
        <time>2017-01-15T12:02:52Z</time>
      </trkpt>
      <trkpt lat="43.50038" lon="5.97394">
        <ele>259.1</ele>
        <time>2017-01-15T12:05:34Z</time>
      </trkpt>
      <trkpt lat="43.50043" lon="5.97383">
        <ele>264.5</ele>
        <time>2017-01-15T12:05:57Z</time>
      </trkpt>
      <trkpt lat="43.50048" lon="5.97373">
        <ele>270.2</ele>
        <time>2017-01-15T12:06:25Z</time>
      </trkpt>
      <trkpt lat="43.50054" lon="5.97363">
        <ele>273.4</ele>
        <time>2017-01-15T12:06:43Z</time>
      </trkpt>
      <trkpt lat="43.50058" lon="5.97349">
        <ele>278.6</ele>
        <time>2017-01-15T12:07:04Z</time>
      </trkpt>
      <trkpt lat="43.50062" lon="5.97338">
        <ele>280.5</ele>
        <time>2017-01-15T12:07:16Z</time>
      </trkpt>
      <trkpt lat="43.50057" lon="5.97326">
        <ele>281.1</ele>
        <time>2017-01-15T12:07:31Z</time>
      </trkpt>
      <trkpt lat="43.50066" lon="5.97332">
        <ele>280.7</ele>
        <time>2017-01-15T12:10:49Z</time>
      </trkpt>
      <trkpt lat="43.50057" lon="5.97336">
        <ele>280.5</ele>
        <time>2017-01-15T12:14:27Z</time>
      </trkpt>
      <trkpt lat="43.50055" lon="5.97324">
        <ele>281.5</ele>
        <time>2017-01-15T12:16:10Z</time>
      </trkpt>
      <trkpt lat="43.50056" lon="5.97338">
        <ele>281.4</ele>
        <time>2017-01-15T12:18:01Z</time>
      </trkpt>
      <trkpt lat="43.50059" lon="5.97326">
        <ele>282.2</ele>
        <time>2017-01-15T12:18:54Z</time>
      </trkpt>
      <trkpt lat="43.50058" lon="5.97314">
        <ele>281.7</ele>
        <time>2017-01-15T12:19:36Z</time>
      </trkpt>
      <trkpt lat="43.5006" lon="5.97301">
        <ele>280.7</ele>
        <time>2017-01-15T12:19:52Z</time>
      </trkpt>
      <trkpt lat="43.50064" lon="5.97289">
        <ele>278.2</ele>
        <time>2017-01-15T12:20:07Z</time>
      </trkpt>
      <trkpt lat="43.50069" lon="5.97279">
        <ele>275.5</ele>
        <time>2017-01-15T12:20:17Z</time>
      </trkpt>
      <trkpt lat="43.5007" lon="5.97265">
        <ele>272.8</ele>
        <time>2017-01-15T12:20:33Z</time>
      </trkpt>
      <trkpt lat="43.50078" lon="5.97259">
        <ele>272.3</ele>
        <time>2017-01-15T12:20:46Z</time>
      </trkpt>
      <trkpt lat="43.50088" lon="5.97257">
        <ele>272.1</ele>
        <time>2017-01-15T12:20:56Z</time>
      </trkpt>
      <trkpt lat="43.50097" lon="5.97257">
        <ele>272.4</ele>
        <time>2017-01-15T12:21:06Z</time>
      </trkpt>
      <trkpt lat="43.50107" lon="5.97256">
        <ele>272.2</ele>
        <time>2017-01-15T12:21:14Z</time>
      </trkpt>
      <trkpt lat="43.50116" lon="5.97258">
        <ele>272.1</ele>
        <time>2017-01-15T12:21:23Z</time>
      </trkpt>
      <trkpt lat="43.50126" lon="5.97257">
        <ele>271.6</ele>
        <time>2017-01-15T12:21:30Z</time>
      </trkpt>
      <trkpt lat="43.50137" lon="5.97256">
        <ele>271.9</ele>
        <time>2017-01-15T12:21:38Z</time>
      </trkpt>
      <trkpt lat="43.50146" lon="5.97257">
        <ele>271.9</ele>
        <time>2017-01-15T12:21:45Z</time>
      </trkpt>
      <trkpt lat="43.50155" lon="5.97256">
        <ele>271.7</ele>
        <time>2017-01-15T12:21:52Z</time>
      </trkpt>
      <trkpt lat="43.50165" lon="5.97258">
        <ele>271.8</ele>
        <time>2017-01-15T12:22:00Z</time>
      </trkpt>
      <trkpt lat="43.50173" lon="5.97263">
        <ele>271.6</ele>
        <time>2017-01-15T12:22:09Z</time>
      </trkpt>
      <trkpt lat="43.50183" lon="5.97261">
        <ele>271.9</ele>
        <time>2017-01-15T12:22:17Z</time>
      </trkpt>
      <trkpt lat="43.50192" lon="5.9726">
        <ele>272.1</ele>
        <time>2017-01-15T12:22:26Z</time>
      </trkpt>
      <trkpt lat="43.50201" lon="5.97258">
        <ele>271.9</ele>
        <time>2017-01-15T12:22:34Z</time>
      </trkpt>
      <trkpt lat="43.50211" lon="5.97255">
        <ele>271.8</ele>
        <time>2017-01-15T12:22:43Z</time>
      </trkpt>
      <trkpt lat="43.5022" lon="5.97255">
        <ele>271.5</ele>
        <time>2017-01-15T12:22:54Z</time>
      </trkpt>
      <trkpt lat="43.5023" lon="5.97255">
        <ele>271.3</ele>
        <time>2017-01-15T12:23:04Z</time>
      </trkpt>
      <trkpt lat="43.50239" lon="5.97253">
        <ele>271</ele>
        <time>2017-01-15T12:23:11Z</time>
      </trkpt>
      <trkpt lat="43.50248" lon="5.9725">
        <ele>271</ele>
        <time>2017-01-15T12:23:17Z</time>
      </trkpt>
      <trkpt lat="43.50258" lon="5.97249">
        <ele>271.3</ele>
        <time>2017-01-15T12:23:24Z</time>
      </trkpt>
      <trkpt lat="43.50268" lon="5.97249">
        <ele>271</ele>
        <time>2017-01-15T12:23:33Z</time>
      </trkpt>
      <trkpt lat="43.50277" lon="5.97247">
        <ele>270.6</ele>
        <time>2017-01-15T12:23:40Z</time>
      </trkpt>
      <trkpt lat="43.50286" lon="5.97244">
        <ele>269.8</ele>
        <time>2017-01-15T12:23:49Z</time>
      </trkpt>
      <trkpt lat="43.50294" lon="5.97239">
        <ele>269.8</ele>
        <time>2017-01-15T12:24:07Z</time>
      </trkpt>
      <trkpt lat="43.50294" lon="5.97225">
        <ele>269.7</ele>
        <time>2017-01-15T12:24:19Z</time>
      </trkpt>
      <trkpt lat="43.50297" lon="5.97213">
        <ele>269.5</ele>
        <time>2017-01-15T12:24:27Z</time>
      </trkpt>
      <trkpt lat="43.503" lon="5.97201">
        <ele>268.9</ele>
        <time>2017-01-15T12:24:35Z</time>
      </trkpt>
      <trkpt lat="43.50305" lon="5.9719">
        <ele>269.2</ele>
        <time>2017-01-15T12:24:54Z</time>
      </trkpt>
      <trkpt lat="43.50311" lon="5.97179">
        <ele>269.1</ele>
        <time>2017-01-15T12:25:08Z</time>
      </trkpt>
      <trkpt lat="43.50317" lon="5.9717">
        <ele>269.6</ele>
        <time>2017-01-15T12:25:37Z</time>
      </trkpt>
      <trkpt lat="43.50323" lon="5.97159">
        <ele>269.5</ele>
        <time>2017-01-15T12:26:07Z</time>
      </trkpt>
      <trkpt lat="43.50327" lon="5.97148">
        <ele>269.5</ele>
        <time>2017-01-15T12:26:21Z</time>
      </trkpt>
      <trkpt lat="43.50332" lon="5.97136">
        <ele>269.9</ele>
        <time>2017-01-15T12:26:31Z</time>
      </trkpt>
      <trkpt lat="43.50337" lon="5.97126">
        <ele>270.8</ele>
        <time>2017-01-15T12:26:41Z</time>
      </trkpt>
      <trkpt lat="43.50341" lon="5.97114">
        <ele>271.2</ele>
        <time>2017-01-15T12:26:51Z</time>
      </trkpt>
      <trkpt lat="43.50347" lon="5.97104">
        <ele>271.3</ele>
        <time>2017-01-15T12:27:01Z</time>
      </trkpt>
      <trkpt lat="43.50352" lon="5.97093">
        <ele>272.2</ele>
        <time>2017-01-15T12:27:10Z</time>
      </trkpt>
      <trkpt lat="43.50356" lon="5.97081">
        <ele>272.4</ele>
        <time>2017-01-15T12:27:17Z</time>
      </trkpt>
      <trkpt lat="43.50354" lon="5.97068">
        <ele>272.6</ele>
        <time>2017-01-15T12:27:24Z</time>
      </trkpt>
      <trkpt lat="43.50349" lon="5.97058">
        <ele>272.7</ele>
        <time>2017-01-15T12:27:30Z</time>
      </trkpt>
      <trkpt lat="43.50343" lon="5.97048">
        <ele>272.4</ele>
        <time>2017-01-15T12:27:36Z</time>
      </trkpt>
      <trkpt lat="43.50337" lon="5.97039">
        <ele>272.4</ele>
        <time>2017-01-15T12:27:43Z</time>
      </trkpt>
      <trkpt lat="43.5033" lon="5.97027">
        <ele>272.4</ele>
        <time>2017-01-15T12:27:51Z</time>
      </trkpt>
      <trkpt lat="43.50323" lon="5.97017">
        <ele>272.3</ele>
        <time>2017-01-15T12:27:58Z</time>
      </trkpt>
      <trkpt lat="43.50317" lon="5.97007">
        <ele>272.1</ele>
        <time>2017-01-15T12:28:04Z</time>
      </trkpt>
      <trkpt lat="43.50308" lon="5.96999">
        <ele>272.3</ele>
        <time>2017-01-15T12:28:11Z</time>
      </trkpt>
      <trkpt lat="43.50301" lon="5.96989">
        <ele>272.4</ele>
        <time>2017-01-15T12:28:18Z</time>
      </trkpt>
      <trkpt lat="43.50294" lon="5.96979">
        <ele>272.7</ele>
        <time>2017-01-15T12:28:25Z</time>
      </trkpt>
      <trkpt lat="43.50288" lon="5.96969">
        <ele>272.7</ele>
        <time>2017-01-15T12:28:31Z</time>
      </trkpt>
      <trkpt lat="43.50282" lon="5.96959">
        <ele>272.8</ele>
        <time>2017-01-15T12:28:38Z</time>
      </trkpt>
      <trkpt lat="43.50277" lon="5.96949">
        <ele>273</ele>
        <time>2017-01-15T12:28:44Z</time>
      </trkpt>
      <trkpt lat="43.5027" lon="5.96938">
        <ele>273.5</ele>
        <time>2017-01-15T12:28:51Z</time>
      </trkpt>
      <trkpt lat="43.50264" lon="5.96929">
        <ele>273.7</ele>
        <time>2017-01-15T12:28:58Z</time>
      </trkpt>
      <trkpt lat="43.50258" lon="5.96918">
        <ele>274.1</ele>
        <time>2017-01-15T12:29:05Z</time>
      </trkpt>
      <trkpt lat="43.50251" lon="5.96907">
        <ele>274.7</ele>
        <time>2017-01-15T12:29:12Z</time>
      </trkpt>
      <trkpt lat="43.50245" lon="5.96898">
        <ele>275.1</ele>
        <time>2017-01-15T12:29:19Z</time>
      </trkpt>
      <trkpt lat="43.5024" lon="5.96887">
        <ele>276</ele>
        <time>2017-01-15T12:29:26Z</time>
      </trkpt>
      <trkpt lat="43.50238" lon="5.96873">
        <ele>276.7</ele>
        <time>2017-01-15T12:29:34Z</time>
      </trkpt>
      <trkpt lat="43.50237" lon="5.9686">
        <ele>276.5</ele>
        <time>2017-01-15T12:29:43Z</time>
      </trkpt>
      <trkpt lat="43.50238" lon="5.96847">
        <ele>276.6</ele>
        <time>2017-01-15T12:29:53Z</time>
      </trkpt>
      <trkpt lat="43.50237" lon="5.96834">
        <ele>277.1</ele>
        <time>2017-01-15T12:30:01Z</time>
      </trkpt>
      <trkpt lat="43.50237" lon="5.96821">
        <ele>277.5</ele>
        <time>2017-01-15T12:30:10Z</time>
      </trkpt>
      <trkpt lat="43.50235" lon="5.96808">
        <ele>277.7</ele>
        <time>2017-01-15T12:30:19Z</time>
      </trkpt>
      <trkpt lat="43.50234" lon="5.96794">
        <ele>278.5</ele>
        <time>2017-01-15T12:30:28Z</time>
      </trkpt>
      <trkpt lat="43.50233" lon="5.96781">
        <ele>278.3</ele>
        <time>2017-01-15T12:30:37Z</time>
      </trkpt>
      <trkpt lat="43.50234" lon="5.96768">
        <ele>278.3</ele>
        <time>2017-01-15T12:30:46Z</time>
      </trkpt>
      <trkpt lat="43.50233" lon="5.96755">
        <ele>278.4</ele>
        <time>2017-01-15T12:30:53Z</time>
      </trkpt>
      <trkpt lat="43.5023" lon="5.96742">
        <ele>278.7</ele>
        <time>2017-01-15T12:30:59Z</time>
      </trkpt>
      <trkpt lat="43.50229" lon="5.96729">
        <ele>278.9</ele>
        <time>2017-01-15T12:31:06Z</time>
      </trkpt>
      <trkpt lat="43.50228" lon="5.96717">
        <ele>279.6</ele>
        <time>2017-01-15T12:31:14Z</time>
      </trkpt>
      <trkpt lat="43.50227" lon="5.96702">
        <ele>279.6</ele>
        <time>2017-01-15T12:31:22Z</time>
      </trkpt>
      <trkpt lat="43.50223" lon="5.9669">
        <ele>279.6</ele>
        <time>2017-01-15T12:31:27Z</time>
      </trkpt>
      <trkpt lat="43.5022" lon="5.96677">
        <ele>279.4</ele>
        <time>2017-01-15T12:31:33Z</time>
      </trkpt>
      <trkpt lat="43.50216" lon="5.96664">
        <ele>279.7</ele>
        <time>2017-01-15T12:31:40Z</time>
      </trkpt>
      <trkpt lat="43.50213" lon="5.96651">
        <ele>280.1</ele>
        <time>2017-01-15T12:31:46Z</time>
      </trkpt>
      <trkpt lat="43.50211" lon="5.96639">
        <ele>280.3</ele>
        <time>2017-01-15T12:31:54Z</time>
      </trkpt>
      <trkpt lat="43.50216" lon="5.96627">
        <ele>280.4</ele>
        <time>2017-01-15T12:32:02Z</time>
      </trkpt>
      <trkpt lat="43.5022" lon="5.96615">
        <ele>280.3</ele>
        <time>2017-01-15T12:32:12Z</time>
      </trkpt>
      <trkpt lat="43.50223" lon="5.96603">
        <ele>280.4</ele>
        <time>2017-01-15T12:32:21Z</time>
      </trkpt>
      <trkpt lat="43.50225" lon="5.96591">
        <ele>280.7</ele>
        <time>2017-01-15T12:32:27Z</time>
      </trkpt>
      <trkpt lat="43.50228" lon="5.96577">
        <ele>281</ele>
        <time>2017-01-15T12:32:36Z</time>
      </trkpt>
      <trkpt lat="43.50232" lon="5.96564">
        <ele>281</ele>
        <time>2017-01-15T12:32:40Z</time>
      </trkpt>
      <trkpt lat="43.50235" lon="5.96552">
        <ele>280.8</ele>
        <time>2017-01-15T12:32:48Z</time>
      </trkpt>
      <trkpt lat="43.50238" lon="5.96537">
        <ele>281.1</ele>
        <time>2017-01-15T12:32:54Z</time>
      </trkpt>
      <trkpt lat="43.5024" lon="5.96525">
        <ele>281.5</ele>
        <time>2017-01-15T12:33:02Z</time>
      </trkpt>
      <trkpt lat="43.50241" lon="5.96511">
        <ele>281.7</ele>
        <time>2017-01-15T12:33:07Z</time>
      </trkpt>
      <trkpt lat="43.50242" lon="5.96498">
        <ele>282.3</ele>
        <time>2017-01-15T12:33:13Z</time>
      </trkpt>
      <trkpt lat="43.50242" lon="5.96485">
        <ele>282.4</ele>
        <time>2017-01-15T12:33:19Z</time>
      </trkpt>
      <trkpt lat="43.50241" lon="5.9647">
        <ele>282.7</ele>
        <time>2017-01-15T12:33:25Z</time>
      </trkpt>
      <trkpt lat="43.5024" lon="5.96456">
        <ele>283.4</ele>
        <time>2017-01-15T12:33:33Z</time>
      </trkpt>
      <trkpt lat="43.50237" lon="5.96444">
        <ele>283.7</ele>
        <time>2017-01-15T12:33:40Z</time>
      </trkpt>
      <trkpt lat="43.50235" lon="5.96431">
        <ele>284.2</ele>
        <time>2017-01-15T12:33:46Z</time>
      </trkpt>
      <trkpt lat="43.5023" lon="5.96418">
        <ele>284.3</ele>
        <time>2017-01-15T12:33:54Z</time>
      </trkpt>
      <trkpt lat="43.50221" lon="5.96408">
        <ele>284.8</ele>
        <time>2017-01-15T12:33:59Z</time>
      </trkpt>
      <trkpt lat="43.50214" lon="5.96399">
        <ele>285.3</ele>
        <time>2017-01-15T12:34:06Z</time>
      </trkpt>
      <trkpt lat="43.50206" lon="5.9639">
        <ele>286.3</ele>
        <time>2017-01-15T12:34:16Z</time>
      </trkpt>
      <trkpt lat="43.50199" lon="5.96383">
        <ele>286.8</ele>
        <time>2017-01-15T12:34:26Z</time>
      </trkpt>
      <trkpt lat="43.5019" lon="5.96377">
        <ele>287.8</ele>
        <time>2017-01-15T12:34:35Z</time>
      </trkpt>
      <trkpt lat="43.50178" lon="5.96373">
        <ele>287.6</ele>
        <time>2017-01-15T12:34:41Z</time>
      </trkpt>
      <trkpt lat="43.50168" lon="5.96371">
        <ele>288.2</ele>
        <time>2017-01-15T12:34:46Z</time>
      </trkpt>
      <trkpt lat="43.5016" lon="5.96366">
        <ele>288.4</ele>
        <time>2017-01-15T12:34:52Z</time>
      </trkpt>
      <trkpt lat="43.50152" lon="5.96361">
        <ele>288.7</ele>
        <time>2017-01-15T12:35:00Z</time>
      </trkpt>
      <trkpt lat="43.50143" lon="5.96354">
        <ele>289.7</ele>
        <time>2017-01-15T12:35:08Z</time>
      </trkpt>
      <trkpt lat="43.50136" lon="5.96346">
        <ele>289.9</ele>
        <time>2017-01-15T12:35:15Z</time>
      </trkpt>
      <trkpt lat="43.50127" lon="5.96341">
        <ele>290.3</ele>
        <time>2017-01-15T12:35:22Z</time>
      </trkpt>
      <trkpt lat="43.50117" lon="5.96338">
        <ele>290.4</ele>
        <time>2017-01-15T12:35:29Z</time>
      </trkpt>
      <trkpt lat="43.50107" lon="5.96338">
        <ele>290.7</ele>
        <time>2017-01-15T12:35:36Z</time>
      </trkpt>
      <trkpt lat="43.50097" lon="5.9634">
        <ele>290.6</ele>
        <time>2017-01-15T12:35:44Z</time>
      </trkpt>
      <trkpt lat="43.50088" lon="5.9634">
        <ele>290.8</ele>
        <time>2017-01-15T12:35:50Z</time>
      </trkpt>
      <trkpt lat="43.50077" lon="5.96341">
        <ele>290.6</ele>
        <time>2017-01-15T12:35:57Z</time>
      </trkpt>
      <trkpt lat="43.50067" lon="5.96341">
        <ele>290.7</ele>
        <time>2017-01-15T12:36:03Z</time>
      </trkpt>
      <trkpt lat="43.50058" lon="5.96344">
        <ele>290.7</ele>
        <time>2017-01-15T12:36:10Z</time>
      </trkpt>
      <trkpt lat="43.50048" lon="5.96345">
        <ele>291.4</ele>
        <time>2017-01-15T12:36:19Z</time>
      </trkpt>
      <trkpt lat="43.50039" lon="5.96345">
        <ele>290.7</ele>
        <time>2017-01-15T12:36:35Z</time>
      </trkpt>
      <trkpt lat="43.50038" lon="5.96331">
        <ele>291.1</ele>
        <time>2017-01-15T12:36:49Z</time>
      </trkpt>
      <trkpt lat="43.5004" lon="5.96319">
        <ele>291.2</ele>
        <time>2017-01-15T12:36:57Z</time>
      </trkpt>
      <trkpt lat="43.50044" lon="5.96307">
        <ele>290.9</ele>
        <time>2017-01-15T12:37:04Z</time>
      </trkpt>
      <trkpt lat="43.50044" lon="5.96294">
        <ele>291.1</ele>
        <time>2017-01-15T12:37:13Z</time>
      </trkpt>
      <trkpt lat="43.50048" lon="5.96282">
        <ele>291.9</ele>
        <time>2017-01-15T12:37:19Z</time>
      </trkpt>
      <trkpt lat="43.50048" lon="5.96268">
        <ele>292.6</ele>
        <time>2017-01-15T12:37:29Z</time>
      </trkpt>
      <trkpt lat="43.50049" lon="5.96255">
        <ele>293.9</ele>
        <time>2017-01-15T12:37:38Z</time>
      </trkpt>
      <trkpt lat="43.50056" lon="5.96245">
        <ele>295.1</ele>
        <time>2017-01-15T12:37:50Z</time>
      </trkpt>
      <trkpt lat="43.50064" lon="5.96239">
        <ele>296</ele>
        <time>2017-01-15T12:38:09Z</time>
      </trkpt>
      <trkpt lat="43.50074" lon="5.96236">
        <ele>296.1</ele>
        <time>2017-01-15T12:38:19Z</time>
      </trkpt>
      <trkpt lat="43.50083" lon="5.96234">
        <ele>296.3</ele>
        <time>2017-01-15T12:38:28Z</time>
      </trkpt>
      <trkpt lat="43.50094" lon="5.96232">
        <ele>297.3</ele>
        <time>2017-01-15T12:38:41Z</time>
      </trkpt>
      <trkpt lat="43.50103" lon="5.96229">
        <ele>297.5</ele>
        <time>2017-01-15T12:38:53Z</time>
      </trkpt>
      <trkpt lat="43.50111" lon="5.96223">
        <ele>297.3</ele>
        <time>2017-01-15T12:38:58Z</time>
      </trkpt>
      <trkpt lat="43.5012" lon="5.96219">
        <ele>297.1</ele>
        <time>2017-01-15T12:39:05Z</time>
      </trkpt>
      <trkpt lat="43.50129" lon="5.96217">
        <ele>296.4</ele>
        <time>2017-01-15T12:39:13Z</time>
      </trkpt>
      <trkpt lat="43.50139" lon="5.96212">
        <ele>296</ele>
        <time>2017-01-15T12:39:19Z</time>
      </trkpt>
      <trkpt lat="43.50148" lon="5.96212">
        <ele>295.8</ele>
        <time>2017-01-15T12:39:25Z</time>
      </trkpt>
      <trkpt lat="43.50157" lon="5.96207">
        <ele>295.8</ele>
        <time>2017-01-15T12:39:32Z</time>
      </trkpt>
      <trkpt lat="43.50166" lon="5.96209">
        <ele>295.9</ele>
        <time>2017-01-15T12:39:43Z</time>
      </trkpt>
      <trkpt lat="43.50175" lon="5.96208">
        <ele>295.6</ele>
        <time>2017-01-15T12:39:55Z</time>
      </trkpt>
      <trkpt lat="43.50184" lon="5.96206">
        <ele>295.5</ele>
        <time>2017-01-15T12:40:03Z</time>
      </trkpt>
      <trkpt lat="43.50194" lon="5.96207">
        <ele>295.6</ele>
        <time>2017-01-15T12:40:12Z</time>
      </trkpt>
      <trkpt lat="43.50202" lon="5.962">
        <ele>295.8</ele>
        <time>2017-01-15T12:40:18Z</time>
      </trkpt>
      <trkpt lat="43.50211" lon="5.96195">
        <ele>295.7</ele>
        <time>2017-01-15T12:40:28Z</time>
      </trkpt>
      <trkpt lat="43.50219" lon="5.9619">
        <ele>296.3</ele>
        <time>2017-01-15T12:40:38Z</time>
      </trkpt>
      <trkpt lat="43.50228" lon="5.96187">
        <ele>296.9</ele>
        <time>2017-01-15T12:40:43Z</time>
      </trkpt>
      <trkpt lat="43.50237" lon="5.96185">
        <ele>297.6</ele>
        <time>2017-01-15T12:40:51Z</time>
      </trkpt>
      <trkpt lat="43.50246" lon="5.9618">
        <ele>299.4</ele>
        <time>2017-01-15T12:41:03Z</time>
      </trkpt>
      <trkpt lat="43.50256" lon="5.96176">
        <ele>300</ele>
        <time>2017-01-15T12:41:11Z</time>
      </trkpt>
      <trkpt lat="43.50265" lon="5.96173">
        <ele>300.6</ele>
        <time>2017-01-15T12:41:20Z</time>
      </trkpt>
      <trkpt lat="43.50273" lon="5.96169">
        <ele>300.8</ele>
        <time>2017-01-15T12:41:28Z</time>
      </trkpt>
      <trkpt lat="43.50282" lon="5.96162">
        <ele>301.6</ele>
        <time>2017-01-15T12:41:36Z</time>
      </trkpt>
      <trkpt lat="43.50291" lon="5.96159">
        <ele>301.8</ele>
        <time>2017-01-15T12:41:44Z</time>
      </trkpt>
      <trkpt lat="43.503" lon="5.96161">
        <ele>302.6</ele>
        <time>2017-01-15T12:41:53Z</time>
      </trkpt>
      <trkpt lat="43.50309" lon="5.96156">
        <ele>302.7</ele>
        <time>2017-01-15T12:42:01Z</time>
      </trkpt>
      <trkpt lat="43.50319" lon="5.96156">
        <ele>303.2</ele>
        <time>2017-01-15T12:42:10Z</time>
      </trkpt>
      <trkpt lat="43.50329" lon="5.96156">
        <ele>303.9</ele>
        <time>2017-01-15T12:42:17Z</time>
      </trkpt>
      <trkpt lat="43.50338" lon="5.96152">
        <ele>303.9</ele>
        <time>2017-01-15T12:42:23Z</time>
      </trkpt>
      <trkpt lat="43.50348" lon="5.96148">
        <ele>304</ele>
        <time>2017-01-15T12:42:30Z</time>
      </trkpt>
      <trkpt lat="43.50357" lon="5.96148">
        <ele>303.8</ele>
        <time>2017-01-15T12:42:37Z</time>
      </trkpt>
      <trkpt lat="43.50367" lon="5.96145">
        <ele>303.9</ele>
        <time>2017-01-15T12:42:45Z</time>
      </trkpt>
      <trkpt lat="43.50376" lon="5.96143">
        <ele>304.1</ele>
        <time>2017-01-15T12:42:54Z</time>
      </trkpt>
      <trkpt lat="43.50386" lon="5.96141">
        <ele>303.9</ele>
        <time>2017-01-15T12:43:00Z</time>
      </trkpt>
      <trkpt lat="43.50396" lon="5.96138">
        <ele>304</ele>
        <time>2017-01-15T12:43:04Z</time>
      </trkpt>
      <trkpt lat="43.50405" lon="5.96136">
        <ele>304.3</ele>
        <time>2017-01-15T12:43:13Z</time>
      </trkpt>
      <trkpt lat="43.50414" lon="5.96135">
        <ele>304.4</ele>
        <time>2017-01-15T12:43:20Z</time>
      </trkpt>
      <trkpt lat="43.50425" lon="5.96134">
        <ele>305</ele>
        <time>2017-01-15T12:43:30Z</time>
      </trkpt>
      <trkpt lat="43.50434" lon="5.96136">
        <ele>304.9</ele>
        <time>2017-01-15T12:43:36Z</time>
      </trkpt>
      <trkpt lat="43.50443" lon="5.96136">
        <ele>305.4</ele>
        <time>2017-01-15T12:43:41Z</time>
      </trkpt>
      <trkpt lat="43.50453" lon="5.96133">
        <ele>305.7</ele>
        <time>2017-01-15T12:43:47Z</time>
      </trkpt>
      <trkpt lat="43.50463" lon="5.96135">
        <ele>305.8</ele>
        <time>2017-01-15T12:43:55Z</time>
      </trkpt>
      <trkpt lat="43.50472" lon="5.96136">
        <ele>305.9</ele>
        <time>2017-01-15T12:44:02Z</time>
      </trkpt>
      <trkpt lat="43.50481" lon="5.96136">
        <ele>306.3</ele>
        <time>2017-01-15T12:44:09Z</time>
      </trkpt>
      <trkpt lat="43.5049" lon="5.96139">
        <ele>307.2</ele>
        <time>2017-01-15T12:44:17Z</time>
      </trkpt>
      <trkpt lat="43.505" lon="5.96138">
        <ele>308.2</ele>
        <time>2017-01-15T12:44:25Z</time>
      </trkpt>
      <trkpt lat="43.5051" lon="5.96141">
        <ele>309.8</ele>
        <time>2017-01-15T12:44:37Z</time>
      </trkpt>
      <trkpt lat="43.5052" lon="5.96142">
        <ele>310.8</ele>
        <time>2017-01-15T12:44:45Z</time>
      </trkpt>
      <trkpt lat="43.50529" lon="5.96144">
        <ele>311.4</ele>
        <time>2017-01-15T12:44:53Z</time>
      </trkpt>
      <trkpt lat="43.50539" lon="5.96148">
        <ele>311.8</ele>
        <time>2017-01-15T12:45:03Z</time>
      </trkpt>
      <trkpt lat="43.50548" lon="5.96149">
        <ele>312</ele>
        <time>2017-01-15T12:45:12Z</time>
      </trkpt>
      <trkpt lat="43.50558" lon="5.96149">
        <ele>312.6</ele>
        <time>2017-01-15T12:45:21Z</time>
      </trkpt>
      <trkpt lat="43.50567" lon="5.96146">
        <ele>312.9</ele>
        <time>2017-01-15T12:45:31Z</time>
      </trkpt>
      <trkpt lat="43.50576" lon="5.96148">
        <ele>313.1</ele>
        <time>2017-01-15T12:45:39Z</time>
      </trkpt>
      <trkpt lat="43.50586" lon="5.9615">
        <ele>313</ele>
        <time>2017-01-15T12:45:46Z</time>
      </trkpt>
      <trkpt lat="43.50595" lon="5.96152">
        <ele>313.1</ele>
        <time>2017-01-15T12:45:54Z</time>
      </trkpt>
      <trkpt lat="43.50605" lon="5.96153">
        <ele>312.5</ele>
        <time>2017-01-15T12:46:03Z</time>
      </trkpt>
      <trkpt lat="43.50615" lon="5.96153">
        <ele>312.1</ele>
        <time>2017-01-15T12:46:09Z</time>
      </trkpt>
      <trkpt lat="43.50625" lon="5.96155">
        <ele>311.4</ele>
        <time>2017-01-15T12:46:17Z</time>
      </trkpt>
      <trkpt lat="43.50635" lon="5.96156">
        <ele>310</ele>
        <time>2017-01-15T12:46:27Z</time>
      </trkpt>
      <trkpt lat="43.50644" lon="5.96152">
        <ele>309.8</ele>
        <time>2017-01-15T12:46:33Z</time>
      </trkpt>
      <trkpt lat="43.50657" lon="5.96147">
        <ele>308</ele>
        <time>2017-01-15T12:46:44Z</time>
      </trkpt>
      <trkpt lat="43.50666" lon="5.96145">
        <ele>306.7</ele>
        <time>2017-01-15T12:46:53Z</time>
      </trkpt>
      <trkpt lat="43.50676" lon="5.96144">
        <ele>305.5</ele>
        <time>2017-01-15T12:47:02Z</time>
      </trkpt>
      <trkpt lat="43.50685" lon="5.96142">
        <ele>304</ele>
        <time>2017-01-15T12:47:13Z</time>
      </trkpt>
      <trkpt lat="43.50694" lon="5.9614">
        <ele>302.9</ele>
        <time>2017-01-15T12:47:24Z</time>
      </trkpt>
      <trkpt lat="43.50704" lon="5.96136">
        <ele>301.6</ele>
        <time>2017-01-15T12:47:33Z</time>
      </trkpt>
      <trkpt lat="43.50714" lon="5.96137">
        <ele>299.9</ele>
        <time>2017-01-15T12:47:44Z</time>
      </trkpt>
      <trkpt lat="43.50723" lon="5.96134">
        <ele>298.5</ele>
        <time>2017-01-15T12:47:54Z</time>
      </trkpt>
      <trkpt lat="43.50731" lon="5.96129">
        <ele>297.4</ele>
        <time>2017-01-15T12:48:03Z</time>
      </trkpt>
      <trkpt lat="43.5074" lon="5.96128">
        <ele>294.2</ele>
        <time>2017-01-15T12:48:18Z</time>
      </trkpt>
      <trkpt lat="43.50749" lon="5.96125">
        <ele>292.8</ele>
        <time>2017-01-15T12:48:27Z</time>
      </trkpt>
      <trkpt lat="43.50759" lon="5.96129">
        <ele>291</ele>
        <time>2017-01-15T12:48:37Z</time>
      </trkpt>
      <trkpt lat="43.50767" lon="5.96134">
        <ele>289.6</ele>
        <time>2017-01-15T12:48:44Z</time>
      </trkpt>
      <trkpt lat="43.50776" lon="5.96134">
        <ele>289</ele>
        <time>2017-01-15T12:48:51Z</time>
      </trkpt>
      <trkpt lat="43.50786" lon="5.96137">
        <ele>287.7</ele>
        <time>2017-01-15T12:49:01Z</time>
      </trkpt>
      <trkpt lat="43.50795" lon="5.96143">
        <ele>286.8</ele>
        <time>2017-01-15T12:49:12Z</time>
      </trkpt>
      <trkpt lat="43.50804" lon="5.96151">
        <ele>285.3</ele>
        <time>2017-01-15T12:49:22Z</time>
      </trkpt>
      <trkpt lat="43.50811" lon="5.9616">
        <ele>284.5</ele>
        <time>2017-01-15T12:49:27Z</time>
      </trkpt>
      <trkpt lat="43.5082" lon="5.96164">
        <ele>284.2</ele>
        <time>2017-01-15T12:49:33Z</time>
      </trkpt>
      <trkpt lat="43.50827" lon="5.96173">
        <ele>283.9</ele>
        <time>2017-01-15T12:49:42Z</time>
      </trkpt>
      <trkpt lat="43.50836" lon="5.96177">
        <ele>283.5</ele>
        <time>2017-01-15T12:49:50Z</time>
      </trkpt>
      <trkpt lat="43.50844" lon="5.96185">
        <ele>283.5</ele>
        <time>2017-01-15T12:49:55Z</time>
      </trkpt>
      <trkpt lat="43.50851" lon="5.96192">
        <ele>283</ele>
        <time>2017-01-15T12:50:01Z</time>
      </trkpt>
      <trkpt lat="43.50859" lon="5.962">
        <ele>282.9</ele>
        <time>2017-01-15T12:50:08Z</time>
      </trkpt>
      <trkpt lat="43.50866" lon="5.96208">
        <ele>281.8</ele>
        <time>2017-01-15T12:50:16Z</time>
      </trkpt>
      <trkpt lat="43.50874" lon="5.96217">
        <ele>280.8</ele>
        <time>2017-01-15T12:50:26Z</time>
      </trkpt>
      <trkpt lat="43.50883" lon="5.96219">
        <ele>280.1</ele>
        <time>2017-01-15T12:50:31Z</time>
      </trkpt>
      <trkpt lat="43.50889" lon="5.96229">
        <ele>278.9</ele>
        <time>2017-01-15T12:50:42Z</time>
      </trkpt>
      <trkpt lat="43.50896" lon="5.96239">
        <ele>278.1</ele>
        <time>2017-01-15T12:50:51Z</time>
      </trkpt>
      <trkpt lat="43.50902" lon="5.9625">
        <ele>277.3</ele>
        <time>2017-01-15T12:50:59Z</time>
      </trkpt>
      <trkpt lat="43.50905" lon="5.96263">
        <ele>276.3</ele>
        <time>2017-01-15T12:51:09Z</time>
      </trkpt>
      <trkpt lat="43.50908" lon="5.96279">
        <ele>275.1</ele>
        <time>2017-01-15T12:51:18Z</time>
      </trkpt>
      <trkpt lat="43.50915" lon="5.96289">
        <ele>272.7</ele>
        <time>2017-01-15T12:51:32Z</time>
      </trkpt>
      <trkpt lat="43.50918" lon="5.96303">
        <ele>271.9</ele>
        <time>2017-01-15T12:51:40Z</time>
      </trkpt>
      <trkpt lat="43.5092" lon="5.96318">
        <ele>271.7</ele>
        <time>2017-01-15T12:51:43Z</time>
      </trkpt>
      <trkpt lat="43.50927" lon="5.96326">
        <ele>270.2</ele>
        <time>2017-01-15T12:51:53Z</time>
      </trkpt>
      <trkpt lat="43.50937" lon="5.96331">
        <ele>269.4</ele>
        <time>2017-01-15T12:51:59Z</time>
      </trkpt>
      <trkpt lat="43.50946" lon="5.96334">
        <ele>268.8</ele>
        <time>2017-01-15T12:52:07Z</time>
      </trkpt>
      <trkpt lat="43.50955" lon="5.96337">
        <ele>268.8</ele>
        <time>2017-01-15T12:52:13Z</time>
      </trkpt>
      <trkpt lat="43.50964" lon="5.96338">
        <ele>268.7</ele>
        <time>2017-01-15T12:52:18Z</time>
      </trkpt>
      <trkpt lat="43.50974" lon="5.9634">
        <ele>268.5</ele>
        <time>2017-01-15T12:52:25Z</time>
      </trkpt>
      <trkpt lat="43.50984" lon="5.96342">
        <ele>268.4</ele>
        <time>2017-01-15T12:52:33Z</time>
      </trkpt>
      <trkpt lat="43.50993" lon="5.96345">
        <ele>268.3</ele>
        <time>2017-01-15T12:52:41Z</time>
      </trkpt>
      <trkpt lat="43.51002" lon="5.96347">
        <ele>268.4</ele>
        <time>2017-01-15T12:52:50Z</time>
      </trkpt>
      <trkpt lat="43.51011" lon="5.9635">
        <ele>268.3</ele>
        <time>2017-01-15T12:52:58Z</time>
      </trkpt>
      <trkpt lat="43.5102" lon="5.96352">
        <ele>268.3</ele>
        <time>2017-01-15T12:53:06Z</time>
      </trkpt>
      <trkpt lat="43.51029" lon="5.96354">
        <ele>268.2</ele>
        <time>2017-01-15T12:53:17Z</time>
      </trkpt>
      <trkpt lat="43.51039" lon="5.96358">
        <ele>268.7</ele>
        <time>2017-01-15T12:53:25Z</time>
      </trkpt>
      <trkpt lat="43.51048" lon="5.96363">
        <ele>268.8</ele>
        <time>2017-01-15T12:53:33Z</time>
      </trkpt>
      <trkpt lat="43.51058" lon="5.96366">
        <ele>269.6</ele>
        <time>2017-01-15T12:53:43Z</time>
      </trkpt>
      <trkpt lat="43.51068" lon="5.96368">
        <ele>270.7</ele>
        <time>2017-01-15T12:53:54Z</time>
      </trkpt>
      <trkpt lat="43.51077" lon="5.9637">
        <ele>271.1</ele>
        <time>2017-01-15T12:54:02Z</time>
      </trkpt>
      <trkpt lat="43.51086" lon="5.96373">
        <ele>271.6</ele>
        <time>2017-01-15T12:54:11Z</time>
      </trkpt>
      <trkpt lat="43.51095" lon="5.96375">
        <ele>272</ele>
        <time>2017-01-15T12:54:19Z</time>
      </trkpt>
      <trkpt lat="43.51104" lon="5.96378">
        <ele>272.8</ele>
        <time>2017-01-15T12:54:27Z</time>
      </trkpt>
      <trkpt lat="43.51113" lon="5.96381">
        <ele>273.5</ele>
        <time>2017-01-15T12:54:35Z</time>
      </trkpt>
      <trkpt lat="43.51122" lon="5.96384">
        <ele>273.4</ele>
        <time>2017-01-15T12:54:44Z</time>
      </trkpt>
      <trkpt lat="43.51132" lon="5.96389">
        <ele>272.3</ele>
        <time>2017-01-15T12:54:53Z</time>
      </trkpt>
      <trkpt lat="43.51141" lon="5.96389">
        <ele>272.5</ele>
        <time>2017-01-15T12:55:02Z</time>
      </trkpt>
      <trkpt lat="43.51151" lon="5.96389">
        <ele>272.2</ele>
        <time>2017-01-15T12:55:11Z</time>
      </trkpt>
      <trkpt lat="43.51161" lon="5.9639">
        <ele>272.7</ele>
        <time>2017-01-15T12:55:19Z</time>
      </trkpt>
      <trkpt lat="43.51171" lon="5.96392">
        <ele>273</ele>
        <time>2017-01-15T12:55:27Z</time>
      </trkpt>
      <trkpt lat="43.51181" lon="5.96395">
        <ele>272.5</ele>
        <time>2017-01-15T12:55:35Z</time>
      </trkpt>
      <trkpt lat="43.51191" lon="5.96397">
        <ele>272.4</ele>
        <time>2017-01-15T12:55:43Z</time>
      </trkpt>
      <trkpt lat="43.512" lon="5.964">
        <ele>272.7</ele>
        <time>2017-01-15T12:55:51Z</time>
      </trkpt>
      <trkpt lat="43.5121" lon="5.96401">
        <ele>272.6</ele>
        <time>2017-01-15T12:55:58Z</time>
      </trkpt>
      <trkpt lat="43.51219" lon="5.964">
        <ele>272.8</ele>
        <time>2017-01-15T12:56:09Z</time>
      </trkpt>
      <trkpt lat="43.51224" lon="5.9639">
        <ele>272.2</ele>
        <time>2017-01-15T12:57:10Z</time>
      </trkpt>
      <trkpt lat="43.51227" lon="5.96377">
        <ele>271.2</ele>
        <time>2017-01-15T12:57:21Z</time>
      </trkpt>
      <trkpt lat="43.51228" lon="5.96364">
        <ele>270.4</ele>
        <time>2017-01-15T12:57:29Z</time>
      </trkpt>
      <trkpt lat="43.5123" lon="5.96351">
        <ele>269.3</ele>
        <time>2017-01-15T12:57:39Z</time>
      </trkpt>
      <trkpt lat="43.51233" lon="5.96339">
        <ele>268.4</ele>
        <time>2017-01-15T12:57:48Z</time>
      </trkpt>
      <trkpt lat="43.51236" lon="5.96326">
        <ele>269.4</ele>
        <time>2017-01-15T12:58:10Z</time>
      </trkpt>
      <trkpt lat="43.51237" lon="5.96314">
        <ele>269.2</ele>
        <time>2017-01-15T12:58:28Z</time>
      </trkpt>
      <trkpt lat="43.51242" lon="5.96324">
        <ele>266.9</ele>
        <time>2017-01-15T12:58:58Z</time>
      </trkpt>
      <trkpt lat="43.51252" lon="5.96325">
        <ele>265</ele>
        <time>2017-01-15T12:59:11Z</time>
      </trkpt>
      <trkpt lat="43.51261" lon="5.96321">
        <ele>264.2</ele>
        <time>2017-01-15T12:59:32Z</time>
      </trkpt>
      <trkpt lat="43.51251" lon="5.96323">
        <ele>265.1</ele>
        <time>2017-01-15T12:59:54Z</time>
      </trkpt>
      <trkpt lat="43.51245" lon="5.96314">
        <ele>266.8</ele>
        <time>2017-01-15T13:00:10Z</time>
      </trkpt>
      <trkpt lat="43.51236" lon="5.96314">
        <ele>267.7</ele>
        <time>2017-01-15T13:00:17Z</time>
      </trkpt>
      <trkpt lat="43.51232" lon="5.96303">
        <ele>268.4</ele>
        <time>2017-01-15T13:00:25Z</time>
      </trkpt>
      <trkpt lat="43.51228" lon="5.96291">
        <ele>269.1</ele>
        <time>2017-01-15T13:00:33Z</time>
      </trkpt>
      <trkpt lat="43.51228" lon="5.96278">
        <ele>270</ele>
        <time>2017-01-15T13:00:42Z</time>
      </trkpt>
      <trkpt lat="43.51231" lon="5.96266">
        <ele>270</ele>
        <time>2017-01-15T13:00:51Z</time>
      </trkpt>
      <trkpt lat="43.5124" lon="5.9626">
        <ele>269.6</ele>
        <time>2017-01-15T13:01:11Z</time>
      </trkpt>
      <trkpt lat="43.51245" lon="5.9625">
        <ele>268.1</ele>
        <time>2017-01-15T13:02:00Z</time>
      </trkpt>
      <trkpt lat="43.51254" lon="5.96246">
        <ele>268</ele>
        <time>2017-01-15T13:02:33Z</time>
      </trkpt>
      <trkpt lat="43.51251" lon="5.96258">
        <ele>268.9</ele>
        <time>2017-01-15T13:03:34Z</time>
      </trkpt>
      <trkpt lat="43.51242" lon="5.9626">
        <ele>269.3</ele>
        <time>2017-01-15T13:03:49Z</time>
      </trkpt>
      <trkpt lat="43.51249" lon="5.96251">
        <ele>264</ele>
        <time>2017-01-15T13:04:36Z</time>
      </trkpt>
      <trkpt lat="43.51258" lon="5.96251">
        <ele>263.5</ele>
        <time>2017-01-15T13:05:11Z</time>
      </trkpt>
      <trkpt lat="43.51252" lon="5.9626">
        <ele>263.1</ele>
        <time>2017-01-15T13:07:00Z</time>
      </trkpt>
      <trkpt lat="43.5126" lon="5.96264">
        <ele>264.1</ele>
        <time>2017-01-15T13:07:55Z</time>
      </trkpt>
      <trkpt lat="43.51255" lon="5.96254">
        <ele>263.2</ele>
        <time>2017-01-15T13:08:39Z</time>
      </trkpt>
      <trkpt lat="43.51248" lon="5.96246">
        <ele>263.3</ele>
        <time>2017-01-15T13:09:36Z</time>
      </trkpt>
      <trkpt lat="43.51236" lon="5.96248">
        <ele>264.1</ele>
        <time>2017-01-15T13:11:44Z</time>
      </trkpt>
      <trkpt lat="43.51237" lon="5.96262">
        <ele>265.4</ele>
        <time>2017-01-15T13:11:54Z</time>
      </trkpt>
      <trkpt lat="43.51246" lon="5.96265">
        <ele>266</ele>
        <time>2017-01-15T13:12:01Z</time>
      </trkpt>
      <trkpt lat="43.51236" lon="5.96263">
        <ele>270</ele>
        <time>2017-01-15T13:12:20Z</time>
      </trkpt>
      <trkpt lat="43.51227" lon="5.96262">
        <ele>270.7</ele>
        <time>2017-01-15T13:12:27Z</time>
      </trkpt>
      <trkpt lat="43.51222" lon="5.96272">
        <ele>271</ele>
        <time>2017-01-15T13:12:35Z</time>
      </trkpt>
      <trkpt lat="43.51221" lon="5.96286">
        <ele>270.7</ele>
        <time>2017-01-15T13:12:44Z</time>
      </trkpt>
      <trkpt lat="43.5122" lon="5.96299">
        <ele>269.9</ele>
        <time>2017-01-15T13:12:53Z</time>
      </trkpt>
      <trkpt lat="43.51223" lon="5.9631">
        <ele>269.8</ele>
        <time>2017-01-15T13:13:42Z</time>
      </trkpt>
      <trkpt lat="43.51232" lon="5.96314">
        <ele>269.2</ele>
        <time>2017-01-15T13:15:28Z</time>
      </trkpt>
      <trkpt lat="43.51233" lon="5.963">
        <ele>269.5</ele>
        <time>2017-01-15T13:15:49Z</time>
      </trkpt>
      <trkpt lat="43.51235" lon="5.96287">
        <ele>269.9</ele>
        <time>2017-01-15T13:15:58Z</time>
      </trkpt>
      <trkpt lat="43.51236" lon="5.96274">
        <ele>270.2</ele>
        <time>2017-01-15T13:16:07Z</time>
      </trkpt>
      <trkpt lat="43.51238" lon="5.96262">
        <ele>271.4</ele>
        <time>2017-01-15T13:16:20Z</time>
      </trkpt>
      <trkpt lat="43.51243" lon="5.9625">
        <ele>271.9</ele>
        <time>2017-01-15T13:16:33Z</time>
      </trkpt>
      <trkpt lat="43.5125" lon="5.96243">
        <ele>272.8</ele>
        <time>2017-01-15T13:16:54Z</time>
      </trkpt>
      <trkpt lat="43.51256" lon="5.96253">
        <ele>270.5</ele>
        <time>2017-01-15T13:17:54Z</time>
      </trkpt>
      <trkpt lat="43.51247" lon="5.96247">
        <ele>264.4</ele>
        <time>2017-01-15T13:18:53Z</time>
      </trkpt>
      <trkpt lat="43.51238" lon="5.96257">
        <ele>264.5</ele>
        <time>2017-01-15T13:19:28Z</time>
      </trkpt>
      <trkpt lat="43.51243" lon="5.96246">
        <ele>264.8</ele>
        <time>2017-01-15T13:20:38Z</time>
      </trkpt>
      <trkpt lat="43.51251" lon="5.96253">
        <ele>264.8</ele>
        <time>2017-01-15T13:21:29Z</time>
      </trkpt>
      <trkpt lat="43.51259" lon="5.96257">
        <ele>267.5</ele>
        <time>2017-01-15T13:21:56Z</time>
      </trkpt>
      <trkpt lat="43.51255" lon="5.96245">
        <ele>271.1</ele>
        <time>2017-01-15T13:24:34Z</time>
      </trkpt>
      <trkpt lat="43.51246" lon="5.96241">
        <ele>271.7</ele>
        <time>2017-01-15T13:24:43Z</time>
      </trkpt>
      <trkpt lat="43.51255" lon="5.96238">
        <ele>272.3</ele>
        <time>2017-01-15T13:25:38Z</time>
      </trkpt>
      <trkpt lat="43.51246" lon="5.96236">
        <ele>272.3</ele>
        <time>2017-01-15T13:26:52Z</time>
      </trkpt>
      <trkpt lat="43.51255" lon="5.9623">
        <ele>272.5</ele>
        <time>2017-01-15T13:28:51Z</time>
      </trkpt>
      <trkpt lat="43.51264" lon="5.96229">
        <ele>271.7</ele>
        <time>2017-01-15T13:29:04Z</time>
      </trkpt>
      <trkpt lat="43.51255" lon="5.96229">
        <ele>272.2</ele>
        <time>2017-01-15T13:30:34Z</time>
      </trkpt>
      <trkpt lat="43.51246" lon="5.96225">
        <ele>272.5</ele>
        <time>2017-01-15T13:31:24Z</time>
      </trkpt>
      <trkpt lat="43.5124" lon="5.96216">
        <ele>273</ele>
        <time>2017-01-15T13:31:38Z</time>
      </trkpt>
      <trkpt lat="43.51233" lon="5.96207">
        <ele>273</ele>
        <time>2017-01-15T13:31:48Z</time>
      </trkpt>
      <trkpt lat="43.51224" lon="5.96199">
        <ele>273.1</ele>
        <time>2017-01-15T13:31:57Z</time>
      </trkpt>
      <trkpt lat="43.51216" lon="5.96191">
        <ele>273.4</ele>
        <time>2017-01-15T13:32:05Z</time>
      </trkpt>
      <trkpt lat="43.51208" lon="5.96185">
        <ele>273.7</ele>
        <time>2017-01-15T13:32:12Z</time>
      </trkpt>
      <trkpt lat="43.512" lon="5.96177">
        <ele>273.8</ele>
        <time>2017-01-15T13:32:19Z</time>
      </trkpt>
      <trkpt lat="43.51193" lon="5.9617">
        <ele>273.3</ele>
        <time>2017-01-15T13:32:26Z</time>
      </trkpt>
      <trkpt lat="43.51185" lon="5.9616">
        <ele>273.1</ele>
        <time>2017-01-15T13:32:35Z</time>
      </trkpt>
      <trkpt lat="43.51178" lon="5.96152">
        <ele>272.7</ele>
        <time>2017-01-15T13:32:44Z</time>
      </trkpt>
      <trkpt lat="43.51171" lon="5.96142">
        <ele>272.1</ele>
        <time>2017-01-15T13:32:54Z</time>
      </trkpt>
      <trkpt lat="43.51162" lon="5.96139">
        <ele>271.7</ele>
        <time>2017-01-15T13:33:01Z</time>
      </trkpt>
      <trkpt lat="43.51152" lon="5.96136">
        <ele>271</ele>
        <time>2017-01-15T13:33:12Z</time>
      </trkpt>
      <trkpt lat="43.51145" lon="5.96127">
        <ele>269.3</ele>
        <time>2017-01-15T13:33:24Z</time>
      </trkpt>
      <trkpt lat="43.51139" lon="5.96117">
        <ele>268.9</ele>
        <time>2017-01-15T13:33:34Z</time>
      </trkpt>
      <trkpt lat="43.51134" lon="5.96106">
        <ele>269</ele>
        <time>2017-01-15T13:33:42Z</time>
      </trkpt>
      <trkpt lat="43.51131" lon="5.96094">
        <ele>268.4</ele>
        <time>2017-01-15T13:33:54Z</time>
      </trkpt>
      <trkpt lat="43.51126" lon="5.96084">
        <ele>268</ele>
        <time>2017-01-15T13:35:43Z</time>
      </trkpt>
      <trkpt lat="43.51121" lon="5.96071">
        <ele>267.7</ele>
        <time>2017-01-15T13:35:49Z</time>
      </trkpt>
      <trkpt lat="43.51117" lon="5.96058">
        <ele>266.8</ele>
        <time>2017-01-15T13:35:54Z</time>
      </trkpt>
      <trkpt lat="43.51113" lon="5.96046">
        <ele>266.9</ele>
        <time>2017-01-15T13:36:00Z</time>
      </trkpt>
      <trkpt lat="43.51105" lon="5.96035">
        <ele>267.2</ele>
        <time>2017-01-15T13:36:05Z</time>
      </trkpt>
      <trkpt lat="43.51102" lon="5.96022">
        <ele>267.5</ele>
        <time>2017-01-15T13:36:10Z</time>
      </trkpt>
      <trkpt lat="43.51101" lon="5.96009">
        <ele>267.4</ele>
        <time>2017-01-15T13:36:15Z</time>
      </trkpt>
      <trkpt lat="43.51098" lon="5.95996">
        <ele>267.6</ele>
        <time>2017-01-15T13:36:19Z</time>
      </trkpt>
      <trkpt lat="43.51098" lon="5.95976">
        <ele>267.8</ele>
        <time>2017-01-15T13:36:23Z</time>
      </trkpt>
      <trkpt lat="43.51097" lon="5.95963">
        <ele>268</ele>
        <time>2017-01-15T13:36:27Z</time>
      </trkpt>
      <trkpt lat="43.51094" lon="5.95951">
        <ele>268.1</ele>
        <time>2017-01-15T13:36:31Z</time>
      </trkpt>
      <trkpt lat="43.51092" lon="5.95939">
        <ele>268.3</ele>
        <time>2017-01-15T13:36:36Z</time>
      </trkpt>
      <trkpt lat="43.51095" lon="5.95924">
        <ele>268</ele>
        <time>2017-01-15T13:36:39Z</time>
      </trkpt>
      <trkpt lat="43.51096" lon="5.95908">
        <ele>267.7</ele>
        <time>2017-01-15T13:36:45Z</time>
      </trkpt>
      <trkpt lat="43.51098" lon="5.95894">
        <ele>267.7</ele>
        <time>2017-01-15T13:36:50Z</time>
      </trkpt>
      <trkpt lat="43.511" lon="5.9588">
        <ele>267.4</ele>
        <time>2017-01-15T13:36:56Z</time>
      </trkpt>
      <trkpt lat="43.51102" lon="5.95867">
        <ele>267.3</ele>
        <time>2017-01-15T13:37:01Z</time>
      </trkpt>
      <trkpt lat="43.51106" lon="5.95855">
        <ele>267.3</ele>
        <time>2017-01-15T13:37:08Z</time>
      </trkpt>
      <trkpt lat="43.51108" lon="5.95842">
        <ele>267</ele>
        <time>2017-01-15T13:37:16Z</time>
      </trkpt>
      <trkpt lat="43.51107" lon="5.95829">
        <ele>266.9</ele>
        <time>2017-01-15T13:37:25Z</time>
      </trkpt>
      <trkpt lat="43.51105" lon="5.95816">
        <ele>266.7</ele>
        <time>2017-01-15T13:37:35Z</time>
      </trkpt>
      <trkpt lat="43.51103" lon="5.95803">
        <ele>266.8</ele>
        <time>2017-01-15T13:37:43Z</time>
      </trkpt>
      <trkpt lat="43.51101" lon="5.95789">
        <ele>266.7</ele>
        <time>2017-01-15T13:37:50Z</time>
      </trkpt>
      <trkpt lat="43.51096" lon="5.95778">
        <ele>267</ele>
        <time>2017-01-15T13:37:55Z</time>
      </trkpt>
      <trkpt lat="43.51092" lon="5.95767">
        <ele>267.1</ele>
        <time>2017-01-15T13:38:00Z</time>
      </trkpt>
      <trkpt lat="43.51089" lon="5.95754">
        <ele>267.5</ele>
        <time>2017-01-15T13:38:08Z</time>
      </trkpt>
      <trkpt lat="43.51088" lon="5.95741">
        <ele>267.8</ele>
        <time>2017-01-15T13:38:15Z</time>
      </trkpt>
      <trkpt lat="43.51085" lon="5.95729">
        <ele>265.9</ele>
        <time>2017-01-15T13:38:38Z</time>
      </trkpt>
      <trkpt lat="43.5108" lon="5.95718">
        <ele>265.4</ele>
        <time>2017-01-15T13:38:50Z</time>
      </trkpt>
      <trkpt lat="43.51071" lon="5.95713">
        <ele>265.5</ele>
        <time>2017-01-15T13:38:55Z</time>
      </trkpt>
      <trkpt lat="43.51063" lon="5.95705">
        <ele>265.6</ele>
        <time>2017-01-15T13:39:02Z</time>
      </trkpt>
      <trkpt lat="43.51055" lon="5.95698">
        <ele>265.2</ele>
        <time>2017-01-15T13:39:10Z</time>
      </trkpt>
      <trkpt lat="43.51048" lon="5.9569">
        <ele>264.8</ele>
        <time>2017-01-15T13:39:21Z</time>
      </trkpt>
      <trkpt lat="43.5104" lon="5.95683">
        <ele>264.7</ele>
        <time>2017-01-15T13:39:30Z</time>
      </trkpt>
      <trkpt lat="43.51031" lon="5.95678">
        <ele>265.4</ele>
        <time>2017-01-15T13:39:38Z</time>
      </trkpt>
      <trkpt lat="43.51021" lon="5.95677">
        <ele>265.4</ele>
        <time>2017-01-15T13:39:47Z</time>
      </trkpt>
      <trkpt lat="43.51011" lon="5.95671">
        <ele>265.5</ele>
        <time>2017-01-15T13:39:56Z</time>
      </trkpt>
      <trkpt lat="43.51002" lon="5.95667">
        <ele>265.7</ele>
        <time>2017-01-15T13:40:10Z</time>
      </trkpt>
      <trkpt lat="43.50993" lon="5.95665">
        <ele>265.5</ele>
        <time>2017-01-15T13:40:20Z</time>
      </trkpt>
      <trkpt lat="43.50984" lon="5.95662">
        <ele>265.7</ele>
        <time>2017-01-15T13:40:32Z</time>
      </trkpt>
      <trkpt lat="43.50975" lon="5.9566">
        <ele>265.7</ele>
        <time>2017-01-15T13:40:40Z</time>
      </trkpt>
      <trkpt lat="43.50965" lon="5.95655">
        <ele>265.3</ele>
        <time>2017-01-15T13:40:49Z</time>
      </trkpt>
      <trkpt lat="43.50956" lon="5.95653">
        <ele>265.5</ele>
        <time>2017-01-15T13:40:54Z</time>
      </trkpt>
      <trkpt lat="43.50947" lon="5.9565">
        <ele>265.3</ele>
        <time>2017-01-15T13:41:01Z</time>
      </trkpt>
      <trkpt lat="43.50936" lon="5.95649">
        <ele>265.3</ele>
        <time>2017-01-15T13:41:11Z</time>
      </trkpt>
      <trkpt lat="43.50927" lon="5.95647">
        <ele>265</ele>
        <time>2017-01-15T13:41:19Z</time>
      </trkpt>
      <trkpt lat="43.50918" lon="5.95649">
        <ele>265.3</ele>
        <time>2017-01-15T13:41:29Z</time>
      </trkpt>
      <trkpt lat="43.50908" lon="5.95651">
        <ele>265.6</ele>
        <time>2017-01-15T13:41:41Z</time>
      </trkpt>
      <trkpt lat="43.50899" lon="5.9565">
        <ele>265.8</ele>
        <time>2017-01-15T13:41:53Z</time>
      </trkpt>
      <trkpt lat="43.5089" lon="5.95647">
        <ele>265.7</ele>
        <time>2017-01-15T13:42:00Z</time>
      </trkpt>
      <trkpt lat="43.50881" lon="5.95644">
        <ele>265.3</ele>
        <time>2017-01-15T13:42:12Z</time>
      </trkpt>
      <trkpt lat="43.50872" lon="5.95643">
        <ele>265.7</ele>
        <time>2017-01-15T13:42:23Z</time>
      </trkpt>
      <trkpt lat="43.50862" lon="5.95645">
        <ele>265.7</ele>
        <time>2017-01-15T13:42:31Z</time>
      </trkpt>
      <trkpt lat="43.50853" lon="5.95647">
        <ele>265.6</ele>
        <time>2017-01-15T13:42:43Z</time>
      </trkpt>
      <trkpt lat="43.50842" lon="5.95647">
        <ele>265.7</ele>
        <time>2017-01-15T13:42:51Z</time>
      </trkpt>
      <trkpt lat="43.50831" lon="5.95646">
        <ele>265.8</ele>
        <time>2017-01-15T13:42:59Z</time>
      </trkpt>
      <trkpt lat="43.50822" lon="5.95646">
        <ele>266.7</ele>
        <time>2017-01-15T13:43:06Z</time>
      </trkpt>
      <trkpt lat="43.50812" lon="5.95645">
        <ele>266.5</ele>
        <time>2017-01-15T13:43:12Z</time>
      </trkpt>
      <trkpt lat="43.50801" lon="5.9565">
        <ele>266</ele>
        <time>2017-01-15T13:43:20Z</time>
      </trkpt>
      <trkpt lat="43.50792" lon="5.95654">
        <ele>265.8</ele>
        <time>2017-01-15T13:43:28Z</time>
      </trkpt>
      <trkpt lat="43.50782" lon="5.95653">
        <ele>265.9</ele>
        <time>2017-01-15T13:43:39Z</time>
      </trkpt>
      <trkpt lat="43.50773" lon="5.95649">
        <ele>265.9</ele>
        <time>2017-01-15T13:43:52Z</time>
      </trkpt>
      <trkpt lat="43.50762" lon="5.95648">
        <ele>265.7</ele>
        <time>2017-01-15T13:43:58Z</time>
      </trkpt>
      <trkpt lat="43.50753" lon="5.95649">
        <ele>265.7</ele>
        <time>2017-01-15T13:44:05Z</time>
      </trkpt>
      <trkpt lat="43.50743" lon="5.9565">
        <ele>265.9</ele>
        <time>2017-01-15T13:44:13Z</time>
      </trkpt>
      <trkpt lat="43.50733" lon="5.95651">
        <ele>265.7</ele>
        <time>2017-01-15T13:44:20Z</time>
      </trkpt>
      <trkpt lat="43.50724" lon="5.95649">
        <ele>265.4</ele>
        <time>2017-01-15T13:44:26Z</time>
      </trkpt>
      <trkpt lat="43.50714" lon="5.95648">
        <ele>265.4</ele>
        <time>2017-01-15T13:44:33Z</time>
      </trkpt>
      <trkpt lat="43.50705" lon="5.95648">
        <ele>266</ele>
        <time>2017-01-15T13:44:41Z</time>
      </trkpt>
      <trkpt lat="43.50696" lon="5.95646">
        <ele>265.9</ele>
        <time>2017-01-15T13:44:50Z</time>
      </trkpt>
      <trkpt lat="43.50686" lon="5.95643">
        <ele>266</ele>
        <time>2017-01-15T13:44:58Z</time>
      </trkpt>
      <trkpt lat="43.50677" lon="5.95644">
        <ele>266.1</ele>
        <time>2017-01-15T13:45:06Z</time>
      </trkpt>
      <trkpt lat="43.50668" lon="5.95644">
        <ele>266.2</ele>
        <time>2017-01-15T13:45:15Z</time>
      </trkpt>
      <trkpt lat="43.50658" lon="5.95644">
        <ele>266.4</ele>
        <time>2017-01-15T13:45:23Z</time>
      </trkpt>
      <trkpt lat="43.50648" lon="5.95643">
        <ele>266.1</ele>
        <time>2017-01-15T13:45:34Z</time>
      </trkpt>
      <trkpt lat="43.50639" lon="5.9564">
        <ele>265.9</ele>
        <time>2017-01-15T13:45:41Z</time>
      </trkpt>
      <trkpt lat="43.5063" lon="5.95641">
        <ele>266.2</ele>
        <time>2017-01-15T13:45:50Z</time>
      </trkpt>
      <trkpt lat="43.5062" lon="5.95639">
        <ele>266.2</ele>
        <time>2017-01-15T13:45:56Z</time>
      </trkpt>
      <trkpt lat="43.5061" lon="5.95637">
        <ele>266.5</ele>
        <time>2017-01-15T13:46:04Z</time>
      </trkpt>
      <trkpt lat="43.506" lon="5.95634">
        <ele>266.3</ele>
        <time>2017-01-15T13:46:11Z</time>
      </trkpt>
      <trkpt lat="43.5059" lon="5.95629">
        <ele>266.1</ele>
        <time>2017-01-15T13:46:18Z</time>
      </trkpt>
      <trkpt lat="43.50581" lon="5.95625">
        <ele>266.3</ele>
        <time>2017-01-15T13:46:25Z</time>
      </trkpt>
      <trkpt lat="43.50573" lon="5.95621">
        <ele>266.3</ele>
        <time>2017-01-15T13:46:38Z</time>
      </trkpt>
      <trkpt lat="43.50562" lon="5.95618">
        <ele>266.1</ele>
        <time>2017-01-15T13:46:47Z</time>
      </trkpt>
      <trkpt lat="43.50553" lon="5.95614">
        <ele>266.1</ele>
        <time>2017-01-15T13:46:55Z</time>
      </trkpt>
      <trkpt lat="43.50544" lon="5.95612">
        <ele>265.9</ele>
        <time>2017-01-15T13:47:04Z</time>
      </trkpt>
      <trkpt lat="43.50535" lon="5.95607">
        <ele>265.8</ele>
        <time>2017-01-15T13:47:13Z</time>
      </trkpt>
      <trkpt lat="43.50526" lon="5.95603">
        <ele>265.8</ele>
        <time>2017-01-15T13:47:29Z</time>
      </trkpt>
      <trkpt lat="43.50517" lon="5.95599">
        <ele>265.7</ele>
        <time>2017-01-15T13:47:37Z</time>
      </trkpt>
      <trkpt lat="43.50508" lon="5.95593">
        <ele>265.9</ele>
        <time>2017-01-15T13:47:46Z</time>
      </trkpt>
      <trkpt lat="43.50498" lon="5.95589">
        <ele>265.9</ele>
        <time>2017-01-15T13:47:53Z</time>
      </trkpt>
      <trkpt lat="43.5049" lon="5.95582">
        <ele>265.9</ele>
        <time>2017-01-15T13:48:02Z</time>
      </trkpt>
      <trkpt lat="43.50482" lon="5.95576">
        <ele>265.9</ele>
        <time>2017-01-15T13:48:09Z</time>
      </trkpt>
      <trkpt lat="43.50474" lon="5.95568">
        <ele>266.4</ele>
        <time>2017-01-15T13:48:18Z</time>
      </trkpt>
      <trkpt lat="43.50464" lon="5.95563">
        <ele>266.6</ele>
        <time>2017-01-15T13:48:27Z</time>
      </trkpt>
      <trkpt lat="43.50454" lon="5.9556">
        <ele>266.9</ele>
        <time>2017-01-15T13:48:35Z</time>
      </trkpt>
      <trkpt lat="43.50445" lon="5.95561">
        <ele>267.2</ele>
        <time>2017-01-15T13:48:44Z</time>
      </trkpt>
      <trkpt lat="43.50436" lon="5.9556">
        <ele>267.5</ele>
        <time>2017-01-15T13:48:51Z</time>
      </trkpt>
      <trkpt lat="43.50427" lon="5.95557">
        <ele>267.5</ele>
        <time>2017-01-15T13:49:01Z</time>
      </trkpt>
      <trkpt lat="43.50418" lon="5.95552">
        <ele>267.2</ele>
        <time>2017-01-15T13:49:10Z</time>
      </trkpt>
      <trkpt lat="43.50409" lon="5.95548">
        <ele>267.4</ele>
        <time>2017-01-15T13:49:18Z</time>
      </trkpt>
      <trkpt lat="43.50399" lon="5.95544">
        <ele>267.2</ele>
        <time>2017-01-15T13:49:26Z</time>
      </trkpt>
      <trkpt lat="43.5039" lon="5.95538">
        <ele>267</ele>
        <time>2017-01-15T13:49:34Z</time>
      </trkpt>
      <trkpt lat="43.50382" lon="5.95533">
        <ele>266.6</ele>
        <time>2017-01-15T13:49:42Z</time>
      </trkpt>
      <trkpt lat="43.50374" lon="5.95526">
        <ele>266.5</ele>
        <time>2017-01-15T13:49:49Z</time>
      </trkpt>
      <trkpt lat="43.50366" lon="5.95518">
        <ele>266.4</ele>
        <time>2017-01-15T13:49:57Z</time>
      </trkpt>
      <trkpt lat="43.50358" lon="5.95512">
        <ele>266.6</ele>
        <time>2017-01-15T13:50:07Z</time>
      </trkpt>
      <trkpt lat="43.50351" lon="5.95504">
        <ele>266.7</ele>
        <time>2017-01-15T13:50:15Z</time>
      </trkpt>
      <trkpt lat="43.50344" lon="5.95493">
        <ele>267</ele>
        <time>2017-01-15T13:50:27Z</time>
      </trkpt>
      <trkpt lat="43.50337" lon="5.95483">
        <ele>266.9</ele>
        <time>2017-01-15T13:50:34Z</time>
      </trkpt>
      <trkpt lat="43.5033" lon="5.95473">
        <ele>266.7</ele>
        <time>2017-01-15T13:50:44Z</time>
      </trkpt>
      <trkpt lat="43.50323" lon="5.95465">
        <ele>266.4</ele>
        <time>2017-01-15T13:50:51Z</time>
      </trkpt>
      <trkpt lat="43.50315" lon="5.95458">
        <ele>266.6</ele>
        <time>2017-01-15T13:50:56Z</time>
      </trkpt>
      <trkpt lat="43.50308" lon="5.95449">
        <ele>266.6</ele>
        <time>2017-01-15T13:51:05Z</time>
      </trkpt>
      <trkpt lat="43.50301" lon="5.95441">
        <ele>266.5</ele>
        <time>2017-01-15T13:51:14Z</time>
      </trkpt>
      <trkpt lat="43.50295" lon="5.9543">
        <ele>266.5</ele>
        <time>2017-01-15T13:51:23Z</time>
      </trkpt>
      <trkpt lat="43.50292" lon="5.95418">
        <ele>266.5</ele>
        <time>2017-01-15T13:51:33Z</time>
      </trkpt>
      <trkpt lat="43.50286" lon="5.95408">
        <ele>266.8</ele>
        <time>2017-01-15T13:51:38Z</time>
      </trkpt>
      <trkpt lat="43.50282" lon="5.95396">
        <ele>267</ele>
        <time>2017-01-15T13:51:47Z</time>
      </trkpt>
      <trkpt lat="43.50282" lon="5.95383">
        <ele>267.1</ele>
        <time>2017-01-15T13:51:55Z</time>
      </trkpt>
      <trkpt lat="43.50272" lon="5.95377">
        <ele>267.4</ele>
        <time>2017-01-15T13:52:00Z</time>
      </trkpt>
      <trkpt lat="43.50263" lon="5.9537">
        <ele>267.6</ele>
        <time>2017-01-15T13:52:08Z</time>
      </trkpt>
      <trkpt lat="43.50255" lon="5.95361">
        <ele>267.4</ele>
        <time>2017-01-15T13:52:16Z</time>
      </trkpt>
      <trkpt lat="43.50247" lon="5.95354">
        <ele>267.3</ele>
        <time>2017-01-15T13:52:23Z</time>
      </trkpt>
      <trkpt lat="43.50238" lon="5.95349">
        <ele>267.3</ele>
        <time>2017-01-15T13:52:28Z</time>
      </trkpt>
      <trkpt lat="43.5023" lon="5.95341">
        <ele>267.2</ele>
        <time>2017-01-15T13:52:35Z</time>
      </trkpt>
      <trkpt lat="43.50221" lon="5.95333">
        <ele>267.2</ele>
        <time>2017-01-15T13:52:42Z</time>
      </trkpt>
      <trkpt lat="43.50213" lon="5.95326">
        <ele>266.9</ele>
        <time>2017-01-15T13:52:50Z</time>
      </trkpt>
      <trkpt lat="43.50205" lon="5.95318">
        <ele>267.4</ele>
        <time>2017-01-15T13:52:59Z</time>
      </trkpt>
      <trkpt lat="43.50197" lon="5.9531">
        <ele>267.3</ele>
        <time>2017-01-15T13:53:07Z</time>
      </trkpt>
      <trkpt lat="43.50191" lon="5.95301">
        <ele>267.1</ele>
        <time>2017-01-15T13:53:16Z</time>
      </trkpt>
      <trkpt lat="43.50182" lon="5.95295">
        <ele>267.4</ele>
        <time>2017-01-15T13:53:24Z</time>
      </trkpt>
      <trkpt lat="43.50174" lon="5.95287">
        <ele>267</ele>
        <time>2017-01-15T13:53:34Z</time>
      </trkpt>
      <trkpt lat="43.50166" lon="5.95281">
        <ele>267.1</ele>
        <time>2017-01-15T13:53:41Z</time>
      </trkpt>
      <trkpt lat="43.50157" lon="5.95274">
        <ele>266.9</ele>
        <time>2017-01-15T13:53:50Z</time>
      </trkpt>
      <trkpt lat="43.5015" lon="5.95266">
        <ele>267.2</ele>
        <time>2017-01-15T13:53:58Z</time>
      </trkpt>
      <trkpt lat="43.50142" lon="5.95259">
        <ele>267.2</ele>
        <time>2017-01-15T13:54:10Z</time>
      </trkpt>
      <trkpt lat="43.50134" lon="5.95252">
        <ele>267.2</ele>
        <time>2017-01-15T13:54:18Z</time>
      </trkpt>
      <trkpt lat="43.50129" lon="5.9524">
        <ele>267.6</ele>
        <time>2017-01-15T13:54:26Z</time>
      </trkpt>
      <trkpt lat="43.50122" lon="5.95231">
        <ele>267.3</ele>
        <time>2017-01-15T13:54:34Z</time>
      </trkpt>
      <trkpt lat="43.50115" lon="5.95222">
        <ele>267.3</ele>
        <time>2017-01-15T13:54:42Z</time>
      </trkpt>
      <trkpt lat="43.50107" lon="5.95216">
        <ele>267.6</ele>
        <time>2017-01-15T13:54:51Z</time>
      </trkpt>
      <trkpt lat="43.50098" lon="5.95215">
        <ele>268.1</ele>
        <time>2017-01-15T13:54:58Z</time>
      </trkpt>
      <trkpt lat="43.50089" lon="5.95221">
        <ele>269.3</ele>
        <time>2017-01-15T13:55:08Z</time>
      </trkpt>
      <trkpt lat="43.5008" lon="5.95225">
        <ele>269.4</ele>
        <time>2017-01-15T13:55:24Z</time>
      </trkpt>
      <trkpt lat="43.50075" lon="5.95213">
        <ele>268.7</ele>
        <time>2017-01-15T13:55:53Z</time>
      </trkpt>
      <trkpt lat="43.50069" lon="5.95205">
        <ele>267.5</ele>
        <time>2017-01-15T13:56:15Z</time>
      </trkpt>
      <trkpt lat="43.50061" lon="5.95197">
        <ele>267</ele>
        <time>2017-01-15T13:56:25Z</time>
      </trkpt>
      <trkpt lat="43.50054" lon="5.95188">
        <ele>267.1</ele>
        <time>2017-01-15T13:56:32Z</time>
      </trkpt>
      <trkpt lat="43.50046" lon="5.95181">
        <ele>267.2</ele>
        <time>2017-01-15T13:56:41Z</time>
      </trkpt>
      <trkpt lat="43.50039" lon="5.95173">
        <ele>267.1</ele>
        <time>2017-01-15T13:56:49Z</time>
      </trkpt>
      <trkpt lat="43.50032" lon="5.95163">
        <ele>266.9</ele>
        <time>2017-01-15T13:56:54Z</time>
      </trkpt>
      <trkpt lat="43.50023" lon="5.95157">
        <ele>266.9</ele>
        <time>2017-01-15T13:57:03Z</time>
      </trkpt>
      <trkpt lat="43.50016" lon="5.95148">
        <ele>267.5</ele>
        <time>2017-01-15T13:57:13Z</time>
      </trkpt>
      <trkpt lat="43.50008" lon="5.9514">
        <ele>267.6</ele>
        <time>2017-01-15T13:57:25Z</time>
      </trkpt>
      <trkpt lat="43.50001" lon="5.95133">
        <ele>267.4</ele>
        <time>2017-01-15T13:57:41Z</time>
      </trkpt>
      <trkpt lat="43.49992" lon="5.95126">
        <ele>267.8</ele>
        <time>2017-01-15T13:57:51Z</time>
      </trkpt>
      <trkpt lat="43.49984" lon="5.9512">
        <ele>268</ele>
        <time>2017-01-15T13:58:04Z</time>
      </trkpt>
      <trkpt lat="43.49975" lon="5.95113">
        <ele>267.5</ele>
        <time>2017-01-15T13:58:14Z</time>
      </trkpt>
      <trkpt lat="43.49968" lon="5.95103">
        <ele>267.6</ele>
        <time>2017-01-15T13:58:24Z</time>
      </trkpt>
      <trkpt lat="43.4996" lon="5.95096">
        <ele>267.5</ele>
        <time>2017-01-15T13:58:34Z</time>
      </trkpt>
      <trkpt lat="43.49952" lon="5.95088">
        <ele>267.3</ele>
        <time>2017-01-15T13:58:44Z</time>
      </trkpt>
      <trkpt lat="43.49944" lon="5.95081">
        <ele>267.3</ele>
        <time>2017-01-15T13:58:48Z</time>
      </trkpt>
      <trkpt lat="43.49936" lon="5.95074">
        <ele>266.9</ele>
        <time>2017-01-15T13:58:59Z</time>
      </trkpt>
      <trkpt lat="43.49929" lon="5.95063">
        <ele>266.7</ele>
        <time>2017-01-15T13:59:12Z</time>
      </trkpt>
      <trkpt lat="43.49922" lon="5.95055">
        <ele>266.9</ele>
        <time>2017-01-15T13:59:19Z</time>
      </trkpt>
      <trkpt lat="43.49915" lon="5.95047">
        <ele>267.2</ele>
        <time>2017-01-15T13:59:29Z</time>
      </trkpt>
      <trkpt lat="43.49907" lon="5.95038">
        <ele>267.4</ele>
        <time>2017-01-15T13:59:38Z</time>
      </trkpt>
      <trkpt lat="43.49898" lon="5.95032">
        <ele>267.7</ele>
        <time>2017-01-15T13:59:49Z</time>
      </trkpt>
      <trkpt lat="43.4989" lon="5.95025">
        <ele>267.9</ele>
        <time>2017-01-15T13:59:58Z</time>
      </trkpt>
      <trkpt lat="43.49883" lon="5.95016">
        <ele>268</ele>
        <time>2017-01-15T14:00:09Z</time>
      </trkpt>
      <trkpt lat="43.49874" lon="5.95011">
        <ele>268</ele>
        <time>2017-01-15T14:00:16Z</time>
      </trkpt>
      <trkpt lat="43.49865" lon="5.95007">
        <ele>267.8</ele>
        <time>2017-01-15T14:00:24Z</time>
      </trkpt>
      <trkpt lat="43.49856" lon="5.95003">
        <ele>267.8</ele>
        <time>2017-01-15T14:00:32Z</time>
      </trkpt>
      <trkpt lat="43.49847" lon="5.94996">
        <ele>267.8</ele>
        <time>2017-01-15T14:00:39Z</time>
      </trkpt>
      <trkpt lat="43.49838" lon="5.94991">
        <ele>267.7</ele>
        <time>2017-01-15T14:00:46Z</time>
      </trkpt>
      <trkpt lat="43.49828" lon="5.94987">
        <ele>267.6</ele>
        <time>2017-01-15T14:00:55Z</time>
      </trkpt>
      <trkpt lat="43.4982" lon="5.94984">
        <ele>267.9</ele>
        <time>2017-01-15T14:01:04Z</time>
      </trkpt>
      <trkpt lat="43.4981" lon="5.94983">
        <ele>268.2</ele>
        <time>2017-01-15T14:01:12Z</time>
      </trkpt>
      <trkpt lat="43.49799" lon="5.94985">
        <ele>268.1</ele>
        <time>2017-01-15T14:01:20Z</time>
      </trkpt>
      <trkpt lat="43.49791" lon="5.94991">
        <ele>268</ele>
        <time>2017-01-15T14:01:26Z</time>
      </trkpt>
      <trkpt lat="43.49782" lon="5.94993">
        <ele>268.7</ele>
        <time>2017-01-15T14:01:35Z</time>
      </trkpt>
      <trkpt lat="43.49773" lon="5.95001">
        <ele>268.6</ele>
        <time>2017-01-15T14:01:48Z</time>
      </trkpt>
      <trkpt lat="43.49764" lon="5.95003">
        <ele>268.4</ele>
        <time>2017-01-15T14:01:56Z</time>
      </trkpt>
      <trkpt lat="43.49754" lon="5.95005">
        <ele>268.4</ele>
        <time>2017-01-15T14:02:09Z</time>
      </trkpt>
      <trkpt lat="43.49745" lon="5.95006">
        <ele>268.3</ele>
        <time>2017-01-15T14:02:19Z</time>
      </trkpt>
      <trkpt lat="43.49739" lon="5.95016">
        <ele>268</ele>
        <time>2017-01-15T14:02:47Z</time>
      </trkpt>
      <trkpt lat="43.49736" lon="5.95029">
        <ele>268.4</ele>
        <time>2017-01-15T14:02:58Z</time>
      </trkpt>
      <trkpt lat="43.49737" lon="5.95041">
        <ele>267.5</ele>
        <time>2017-01-15T14:03:13Z</time>
      </trkpt>
      <trkpt lat="43.49727" lon="5.95038">
        <ele>268.8</ele>
        <time>2017-01-15T14:03:47Z</time>
      </trkpt>
      <trkpt lat="43.49717" lon="5.9504">
        <ele>268.8</ele>
        <time>2017-01-15T14:03:57Z</time>
      </trkpt>
      <trkpt lat="43.4971" lon="5.95048">
        <ele>268.4</ele>
        <time>2017-01-15T14:04:10Z</time>
      </trkpt>
      <trkpt lat="43.49701" lon="5.95043">
        <ele>268.4</ele>
        <time>2017-01-15T14:06:10Z</time>
      </trkpt>
      <trkpt lat="43.49711" lon="5.95045">
        <ele>268.4</ele>
        <time>2017-01-15T14:08:03Z</time>
      </trkpt>
      <trkpt lat="43.49721" lon="5.95048">
        <ele>268.6</ele>
        <time>2017-01-15T14:08:10Z</time>
      </trkpt>
      <trkpt lat="43.4973" lon="5.95053">
        <ele>268.8</ele>
        <time>2017-01-15T14:08:20Z</time>
      </trkpt>
      <trkpt lat="43.49739" lon="5.95057">
        <ele>269.2</ele>
        <time>2017-01-15T14:08:32Z</time>
      </trkpt>
      <trkpt lat="43.49731" lon="5.95065">
        <ele>266.5</ele>
        <time>2017-01-15T14:09:08Z</time>
      </trkpt>
      <trkpt lat="43.49723" lon="5.95072">
        <ele>266.6</ele>
        <time>2017-01-15T14:09:17Z</time>
      </trkpt>
      <trkpt lat="43.49715" lon="5.9508">
        <ele>266.6</ele>
        <time>2017-01-15T14:09:27Z</time>
      </trkpt>
      <trkpt lat="43.4971" lon="5.9509">
        <ele>266.8</ele>
        <time>2017-01-15T14:09:38Z</time>
      </trkpt>
      <trkpt lat="43.49702" lon="5.95098">
        <ele>266.8</ele>
        <time>2017-01-15T14:09:47Z</time>
      </trkpt>
      <trkpt lat="43.49694" lon="5.95106">
        <ele>266.6</ele>
        <time>2017-01-15T14:09:56Z</time>
      </trkpt>
      <trkpt lat="43.49686" lon="5.95116">
        <ele>266.6</ele>
        <time>2017-01-15T14:10:03Z</time>
      </trkpt>
      <trkpt lat="43.49679" lon="5.95127">
        <ele>266.2</ele>
        <time>2017-01-15T14:10:13Z</time>
      </trkpt>
      <trkpt lat="43.4967" lon="5.95132">
        <ele>266.5</ele>
        <time>2017-01-15T14:10:19Z</time>
      </trkpt>
      <trkpt lat="43.49661" lon="5.95139">
        <ele>266.8</ele>
        <time>2017-01-15T14:10:28Z</time>
      </trkpt>
      <trkpt lat="43.49653" lon="5.95146">
        <ele>268</ele>
        <time>2017-01-15T14:10:36Z</time>
      </trkpt>
      <trkpt lat="43.49645" lon="5.95154">
        <ele>268.1</ele>
        <time>2017-01-15T14:10:44Z</time>
      </trkpt>
      <trkpt lat="43.49637" lon="5.95159">
        <ele>268.3</ele>
        <time>2017-01-15T14:10:53Z</time>
      </trkpt>
      <trkpt lat="43.49628" lon="5.95168">
        <ele>268</ele>
        <time>2017-01-15T14:11:02Z</time>
      </trkpt>
      <trkpt lat="43.49621" lon="5.95176">
        <ele>267.7</ele>
        <time>2017-01-15T14:11:09Z</time>
      </trkpt>
      <trkpt lat="43.49612" lon="5.95184">
        <ele>267.2</ele>
        <time>2017-01-15T14:11:17Z</time>
      </trkpt>
      <trkpt lat="43.49604" lon="5.95191">
        <ele>266.9</ele>
        <time>2017-01-15T14:11:24Z</time>
      </trkpt>
      <trkpt lat="43.49595" lon="5.95199">
        <ele>266.9</ele>
        <time>2017-01-15T14:11:33Z</time>
      </trkpt>
      <trkpt lat="43.49587" lon="5.95208">
        <ele>267</ele>
        <time>2017-01-15T14:11:42Z</time>
      </trkpt>
      <trkpt lat="43.49579" lon="5.95217">
        <ele>266.8</ele>
        <time>2017-01-15T14:11:51Z</time>
      </trkpt>
      <trkpt lat="43.49571" lon="5.95221">
        <ele>266.5</ele>
        <time>2017-01-15T14:11:56Z</time>
      </trkpt>
      <trkpt lat="43.49564" lon="5.95229">
        <ele>266.8</ele>
        <time>2017-01-15T14:12:05Z</time>
      </trkpt>
      <trkpt lat="43.49556" lon="5.95236">
        <ele>267.2</ele>
        <time>2017-01-15T14:12:16Z</time>
      </trkpt>
      <trkpt lat="43.49547" lon="5.95243">
        <ele>267.1</ele>
        <time>2017-01-15T14:12:25Z</time>
      </trkpt>
      <trkpt lat="43.49539" lon="5.95249">
        <ele>266.7</ele>
        <time>2017-01-15T14:12:31Z</time>
      </trkpt>
      <trkpt lat="43.49529" lon="5.95254">
        <ele>266.7</ele>
        <time>2017-01-15T14:12:38Z</time>
      </trkpt>
      <trkpt lat="43.4952" lon="5.95258">
        <ele>266.7</ele>
        <time>2017-01-15T14:12:47Z</time>
      </trkpt>
      <trkpt lat="43.49513" lon="5.95266">
        <ele>266.9</ele>
        <time>2017-01-15T14:12:56Z</time>
      </trkpt>
      <trkpt lat="43.49503" lon="5.95271">
        <ele>266.6</ele>
        <time>2017-01-15T14:13:06Z</time>
      </trkpt>
      <trkpt lat="43.49495" lon="5.95277">
        <ele>266.1</ele>
        <time>2017-01-15T14:13:17Z</time>
      </trkpt>
      <trkpt lat="43.49487" lon="5.95283">
        <ele>265.8</ele>
        <time>2017-01-15T14:13:25Z</time>
      </trkpt>
      <trkpt lat="43.49478" lon="5.95288">
        <ele>266.5</ele>
        <time>2017-01-15T14:13:32Z</time>
      </trkpt>
      <trkpt lat="43.4947" lon="5.95293">
        <ele>266.5</ele>
        <time>2017-01-15T14:13:43Z</time>
      </trkpt>
      <trkpt lat="43.49461" lon="5.95298">
        <ele>266.6</ele>
        <time>2017-01-15T14:13:55Z</time>
      </trkpt>
      <trkpt lat="43.49451" lon="5.95301">
        <ele>266.7</ele>
        <time>2017-01-15T14:14:04Z</time>
      </trkpt>
      <trkpt lat="43.49442" lon="5.95301">
        <ele>266.8</ele>
        <time>2017-01-15T14:14:10Z</time>
      </trkpt>
      <trkpt lat="43.49434" lon="5.95295">
        <ele>268.7</ele>
        <time>2017-01-15T14:14:22Z</time>
      </trkpt>
      <trkpt lat="43.49425" lon="5.9529">
        <ele>267.8</ele>
        <time>2017-01-15T14:14:33Z</time>
      </trkpt>
      <trkpt lat="43.49416" lon="5.95284">
        <ele>267.4</ele>
        <time>2017-01-15T14:14:38Z</time>
      </trkpt>
      <trkpt lat="43.49409" lon="5.95277">
        <ele>267.2</ele>
        <time>2017-01-15T14:14:47Z</time>
      </trkpt>
      <trkpt lat="43.49402" lon="5.95265">
        <ele>267.1</ele>
        <time>2017-01-15T14:14:56Z</time>
      </trkpt>
      <trkpt lat="43.49396" lon="5.95254">
        <ele>267.3</ele>
        <time>2017-01-15T14:15:05Z</time>
      </trkpt>
      <trkpt lat="43.4939" lon="5.95244">
        <ele>267.2</ele>
        <time>2017-01-15T14:15:17Z</time>
      </trkpt>
      <trkpt lat="43.49386" lon="5.95232">
        <ele>267.2</ele>
        <time>2017-01-15T14:17:33Z</time>
      </trkpt>
      <trkpt lat="43.4938" lon="5.95223">
        <ele>266.9</ele>
        <time>2017-01-15T14:17:39Z</time>
      </trkpt>
      <trkpt lat="43.49376" lon="5.9521">
        <ele>266.9</ele>
        <time>2017-01-15T14:17:47Z</time>
      </trkpt>
      <trkpt lat="43.49372" lon="5.95199">
        <ele>266.9</ele>
        <time>2017-01-15T14:17:54Z</time>
      </trkpt>
      <trkpt lat="43.49369" lon="5.95186">
        <ele>266.4</ele>
        <time>2017-01-15T14:18:03Z</time>
      </trkpt>
      <trkpt lat="43.49363" lon="5.95175">
        <ele>266.2</ele>
        <time>2017-01-15T14:18:10Z</time>
      </trkpt>
      <trkpt lat="43.49358" lon="5.95164">
        <ele>266</ele>
        <time>2017-01-15T14:18:17Z</time>
      </trkpt>
      <trkpt lat="43.49353" lon="5.95152">
        <ele>266.2</ele>
        <time>2017-01-15T14:18:25Z</time>
      </trkpt>
      <trkpt lat="43.49348" lon="5.95139">
        <ele>266</ele>
        <time>2017-01-15T14:18:32Z</time>
      </trkpt>
      <trkpt lat="43.49342" lon="5.95128">
        <ele>265.7</ele>
        <time>2017-01-15T14:18:37Z</time>
      </trkpt>
      <trkpt lat="43.49335" lon="5.95117">
        <ele>265.9</ele>
        <time>2017-01-15T14:18:42Z</time>
      </trkpt>
      <trkpt lat="43.49331" lon="5.95104">
        <ele>266</ele>
        <time>2017-01-15T14:18:49Z</time>
      </trkpt>
      <trkpt lat="43.49326" lon="5.95091">
        <ele>265.9</ele>
        <time>2017-01-15T14:18:56Z</time>
      </trkpt>
      <trkpt lat="43.49325" lon="5.95078">
        <ele>266.3</ele>
        <time>2017-01-15T14:19:03Z</time>
      </trkpt>
      <trkpt lat="43.49324" lon="5.95064">
        <ele>267.1</ele>
        <time>2017-01-15T14:19:10Z</time>
      </trkpt>
      <trkpt lat="43.4932" lon="5.95052">
        <ele>268.2</ele>
        <time>2017-01-15T14:19:18Z</time>
      </trkpt>
      <trkpt lat="43.49314" lon="5.95042">
        <ele>268.7</ele>
        <time>2017-01-15T14:19:24Z</time>
      </trkpt>
      <trkpt lat="43.49308" lon="5.95031">
        <ele>268.7</ele>
        <time>2017-01-15T14:19:33Z</time>
      </trkpt>
      <trkpt lat="43.49301" lon="5.95019">
        <ele>268.8</ele>
        <time>2017-01-15T14:19:40Z</time>
      </trkpt>
      <trkpt lat="43.49294" lon="5.95008">
        <ele>268.5</ele>
        <time>2017-01-15T14:19:48Z</time>
      </trkpt>
      <trkpt lat="43.49289" lon="5.94996">
        <ele>268</ele>
        <time>2017-01-15T14:19:54Z</time>
      </trkpt>
      <trkpt lat="43.49282" lon="5.94985">
        <ele>267.9</ele>
        <time>2017-01-15T14:20:00Z</time>
      </trkpt>
      <trkpt lat="43.49278" lon="5.94973">
        <ele>267.5</ele>
        <time>2017-01-15T14:20:08Z</time>
      </trkpt>
      <trkpt lat="43.49272" lon="5.94961">
        <ele>267.4</ele>
        <time>2017-01-15T14:20:15Z</time>
      </trkpt>
      <trkpt lat="43.4927" lon="5.94949">
        <ele>267.3</ele>
        <time>2017-01-15T14:20:23Z</time>
      </trkpt>
      <trkpt lat="43.49263" lon="5.9494">
        <ele>267.5</ele>
        <time>2017-01-15T14:20:28Z</time>
      </trkpt>
      <trkpt lat="43.49253" lon="5.94938">
        <ele>267</ele>
        <time>2017-01-15T14:20:34Z</time>
      </trkpt>
      <trkpt lat="43.49242" lon="5.94936">
        <ele>266.9</ele>
        <time>2017-01-15T14:20:40Z</time>
      </trkpt>
      <trkpt lat="43.49232" lon="5.94936">
        <ele>266.6</ele>
        <time>2017-01-15T14:20:48Z</time>
      </trkpt>
      <trkpt lat="43.49222" lon="5.94935">
        <ele>267.2</ele>
        <time>2017-01-15T14:20:54Z</time>
      </trkpt>
      <trkpt lat="43.49213" lon="5.94935">
        <ele>267.7</ele>
        <time>2017-01-15T14:21:00Z</time>
      </trkpt>
      <trkpt lat="43.49204" lon="5.94937">
        <ele>267.6</ele>
        <time>2017-01-15T14:21:07Z</time>
      </trkpt>
      <trkpt lat="43.49194" lon="5.94939">
        <ele>267.6</ele>
        <time>2017-01-15T14:21:14Z</time>
      </trkpt>
      <trkpt lat="43.49185" lon="5.94945">
        <ele>267.5</ele>
        <time>2017-01-15T14:21:23Z</time>
      </trkpt>
      <trkpt lat="43.49174" lon="5.9495">
        <ele>267.8</ele>
        <time>2017-01-15T14:21:29Z</time>
      </trkpt>
      <trkpt lat="43.49165" lon="5.94951">
        <ele>267.9</ele>
        <time>2017-01-15T14:21:35Z</time>
      </trkpt>
      <trkpt lat="43.49155" lon="5.94954">
        <ele>268</ele>
        <time>2017-01-15T14:21:46Z</time>
      </trkpt>
      <trkpt lat="43.49145" lon="5.94956">
        <ele>268.1</ele>
        <time>2017-01-15T14:21:53Z</time>
      </trkpt>
      <trkpt lat="43.49134" lon="5.94956">
        <ele>267.9</ele>
        <time>2017-01-15T14:22:00Z</time>
      </trkpt>
      <trkpt lat="43.49125" lon="5.94958">
        <ele>267.6</ele>
        <time>2017-01-15T14:22:08Z</time>
      </trkpt>
      <trkpt lat="43.49116" lon="5.9496">
        <ele>267.4</ele>
        <time>2017-01-15T14:22:14Z</time>
      </trkpt>
      <trkpt lat="43.49107" lon="5.94963">
        <ele>267.6</ele>
        <time>2017-01-15T14:22:21Z</time>
      </trkpt>
      <trkpt lat="43.49097" lon="5.94963">
        <ele>267.4</ele>
        <time>2017-01-15T14:22:29Z</time>
      </trkpt>
      <trkpt lat="43.49088" lon="5.94961">
        <ele>267.2</ele>
        <time>2017-01-15T14:22:35Z</time>
      </trkpt>
      <trkpt lat="43.49079" lon="5.94959">
        <ele>267.2</ele>
        <time>2017-01-15T14:22:41Z</time>
      </trkpt>
      <trkpt lat="43.4907" lon="5.94961">
        <ele>266.8</ele>
        <time>2017-01-15T14:22:49Z</time>
      </trkpt>
      <trkpt lat="43.4906" lon="5.94963">
        <ele>266.7</ele>
        <time>2017-01-15T14:22:54Z</time>
      </trkpt>
      <trkpt lat="43.49048" lon="5.94966">
        <ele>266.7</ele>
        <time>2017-01-15T14:23:00Z</time>
      </trkpt>
      <trkpt lat="43.49038" lon="5.94974">
        <ele>267</ele>
        <time>2017-01-15T14:23:09Z</time>
      </trkpt>
      <trkpt lat="43.4903" lon="5.94982">
        <ele>267.2</ele>
        <time>2017-01-15T14:23:17Z</time>
      </trkpt>
      <trkpt lat="43.49022" lon="5.94989">
        <ele>267</ele>
        <time>2017-01-15T14:23:26Z</time>
      </trkpt>
      <trkpt lat="43.49012" lon="5.94993">
        <ele>266.8</ele>
        <time>2017-01-15T14:23:36Z</time>
      </trkpt>
      <trkpt lat="43.49003" lon="5.94995">
        <ele>266.9</ele>
        <time>2017-01-15T14:23:41Z</time>
      </trkpt>
      <trkpt lat="43.48994" lon="5.94997">
        <ele>266.8</ele>
        <time>2017-01-15T14:23:47Z</time>
      </trkpt>
      <trkpt lat="43.48984" lon="5.95">
        <ele>266.9</ele>
        <time>2017-01-15T14:23:54Z</time>
      </trkpt>
      <trkpt lat="43.48975" lon="5.95004">
        <ele>266.9</ele>
        <time>2017-01-15T14:24:01Z</time>
      </trkpt>
      <trkpt lat="43.48965" lon="5.95004">
        <ele>267.1</ele>
        <time>2017-01-15T14:24:09Z</time>
      </trkpt>
      <trkpt lat="43.48956" lon="5.95007">
        <ele>267.3</ele>
        <time>2017-01-15T14:24:16Z</time>
      </trkpt>
      <trkpt lat="43.48946" lon="5.95008">
        <ele>267.3</ele>
        <time>2017-01-15T14:24:22Z</time>
      </trkpt>
      <trkpt lat="43.48937" lon="5.95011">
        <ele>267.2</ele>
        <time>2017-01-15T14:24:28Z</time>
      </trkpt>
      <trkpt lat="43.48928" lon="5.95013">
        <ele>267.4</ele>
        <time>2017-01-15T14:24:35Z</time>
      </trkpt>
      <trkpt lat="43.48919" lon="5.95015">
        <ele>266.9</ele>
        <time>2017-01-15T14:24:46Z</time>
      </trkpt>
      <trkpt lat="43.4891" lon="5.95017">
        <ele>266.9</ele>
        <time>2017-01-15T14:24:55Z</time>
      </trkpt>
      <trkpt lat="43.48901" lon="5.95017">
        <ele>267.2</ele>
        <time>2017-01-15T14:25:00Z</time>
      </trkpt>
      <trkpt lat="43.48892" lon="5.95018">
        <ele>267.3</ele>
        <time>2017-01-15T14:25:05Z</time>
      </trkpt>
      <trkpt lat="43.48882" lon="5.95021">
        <ele>267.6</ele>
        <time>2017-01-15T14:25:15Z</time>
      </trkpt>
      <trkpt lat="43.48873" lon="5.95024">
        <ele>267.7</ele>
        <time>2017-01-15T14:25:23Z</time>
      </trkpt>
      <trkpt lat="43.48864" lon="5.95026">
        <ele>267.1</ele>
        <time>2017-01-15T14:25:31Z</time>
      </trkpt>
      <trkpt lat="43.48854" lon="5.95028">
        <ele>267.6</ele>
        <time>2017-01-15T14:25:39Z</time>
      </trkpt>
      <trkpt lat="43.48844" lon="5.9503">
        <ele>267.8</ele>
        <time>2017-01-15T14:25:49Z</time>
      </trkpt>
      <trkpt lat="43.48834" lon="5.95028">
        <ele>267.9</ele>
        <time>2017-01-15T14:25:56Z</time>
      </trkpt>
      <trkpt lat="43.48824" lon="5.95028">
        <ele>267.6</ele>
        <time>2017-01-15T14:26:02Z</time>
      </trkpt>
      <trkpt lat="43.48814" lon="5.95031">
        <ele>268.2</ele>
        <time>2017-01-15T14:26:11Z</time>
      </trkpt>
      <trkpt lat="43.48804" lon="5.95035">
        <ele>268</ele>
        <time>2017-01-15T14:26:23Z</time>
      </trkpt>
      <trkpt lat="43.48794" lon="5.95038">
        <ele>268.2</ele>
        <time>2017-01-15T14:26:29Z</time>
      </trkpt>
      <trkpt lat="43.48785" lon="5.95036">
        <ele>268.1</ele>
        <time>2017-01-15T14:26:34Z</time>
      </trkpt>
      <trkpt lat="43.48774" lon="5.95038">
        <ele>268.1</ele>
        <time>2017-01-15T14:26:42Z</time>
      </trkpt>
      <trkpt lat="43.48764" lon="5.9504">
        <ele>268</ele>
        <time>2017-01-15T14:26:51Z</time>
      </trkpt>
      <trkpt lat="43.48755" lon="5.95044">
        <ele>267.9</ele>
        <time>2017-01-15T14:26:58Z</time>
      </trkpt>
      <trkpt lat="43.48746" lon="5.95043">
        <ele>267.9</ele>
        <time>2017-01-15T14:27:05Z</time>
      </trkpt>
      <trkpt lat="43.48738" lon="5.95037">
        <ele>268.9</ele>
        <time>2017-01-15T14:27:22Z</time>
      </trkpt>
      <trkpt lat="43.48741" lon="5.95049">
        <ele>268</ele>
        <time>2017-01-15T14:29:18Z</time>
      </trkpt>
      <trkpt lat="43.48731" lon="5.9505">
        <ele>267</ele>
        <time>2017-01-15T14:29:27Z</time>
      </trkpt>
      <trkpt lat="43.48721" lon="5.9505">
        <ele>267.2</ele>
        <time>2017-01-15T14:29:37Z</time>
      </trkpt>
      <trkpt lat="43.48712" lon="5.95052">
        <ele>267</ele>
        <time>2017-01-15T14:29:45Z</time>
      </trkpt>
      <trkpt lat="43.48702" lon="5.95053">
        <ele>266.8</ele>
        <time>2017-01-15T14:29:51Z</time>
      </trkpt>
      <trkpt lat="43.48693" lon="5.95055">
        <ele>266.7</ele>
        <time>2017-01-15T14:29:58Z</time>
      </trkpt>
      <trkpt lat="43.48683" lon="5.95057">
        <ele>266.5</ele>
        <time>2017-01-15T14:30:06Z</time>
      </trkpt>
      <trkpt lat="43.48674" lon="5.95057">
        <ele>266.5</ele>
        <time>2017-01-15T14:30:14Z</time>
      </trkpt>
      <trkpt lat="43.48665" lon="5.95059">
        <ele>266.5</ele>
        <time>2017-01-15T14:30:21Z</time>
      </trkpt>
      <trkpt lat="43.48656" lon="5.95059">
        <ele>266.8</ele>
        <time>2017-01-15T14:30:31Z</time>
      </trkpt>
      <trkpt lat="43.48647" lon="5.9506">
        <ele>266.7</ele>
        <time>2017-01-15T14:30:38Z</time>
      </trkpt>
      <trkpt lat="43.48636" lon="5.95061">
        <ele>267</ele>
        <time>2017-01-15T14:30:45Z</time>
      </trkpt>
      <trkpt lat="43.48627" lon="5.95063">
        <ele>267.3</ele>
        <time>2017-01-15T14:30:53Z</time>
      </trkpt>
      <trkpt lat="43.48618" lon="5.95066">
        <ele>267.6</ele>
        <time>2017-01-15T14:31:00Z</time>
      </trkpt>
      <trkpt lat="43.48608" lon="5.95065">
        <ele>267.4</ele>
        <time>2017-01-15T14:31:19Z</time>
      </trkpt>
      <trkpt lat="43.48598" lon="5.95066">
        <ele>267.5</ele>
        <time>2017-01-15T14:31:25Z</time>
      </trkpt>
      <trkpt lat="43.48589" lon="5.95068">
        <ele>268.3</ele>
        <time>2017-01-15T14:31:36Z</time>
      </trkpt>
      <trkpt lat="43.4858" lon="5.95067">
        <ele>268.3</ele>
        <time>2017-01-15T14:31:42Z</time>
      </trkpt>
      <trkpt lat="43.48571" lon="5.95067">
        <ele>268.8</ele>
        <time>2017-01-15T14:31:55Z</time>
      </trkpt>
      <trkpt lat="43.48561" lon="5.95067">
        <ele>269</ele>
        <time>2017-01-15T14:32:01Z</time>
      </trkpt>
      <trkpt lat="43.48551" lon="5.95065">
        <ele>269.3</ele>
        <time>2017-01-15T14:32:07Z</time>
      </trkpt>
      <trkpt lat="43.48542" lon="5.95063">
        <ele>269.4</ele>
        <time>2017-01-15T14:32:14Z</time>
      </trkpt>
      <trkpt lat="43.48532" lon="5.95065">
        <ele>269.3</ele>
        <time>2017-01-15T14:32:31Z</time>
      </trkpt>
      <trkpt lat="43.48522" lon="5.95068">
        <ele>269.6</ele>
        <time>2017-01-15T14:32:39Z</time>
      </trkpt>
      <trkpt lat="43.48512" lon="5.95065">
        <ele>270</ele>
        <time>2017-01-15T14:32:47Z</time>
      </trkpt>
      <trkpt lat="43.48503" lon="5.95064">
        <ele>269.8</ele>
        <time>2017-01-15T14:32:56Z</time>
      </trkpt>
      <trkpt lat="43.48493" lon="5.95064">
        <ele>269.8</ele>
        <time>2017-01-15T14:33:09Z</time>
      </trkpt>
      <trkpt lat="43.48484" lon="5.95065">
        <ele>269.5</ele>
        <time>2017-01-15T14:33:16Z</time>
      </trkpt>
      <trkpt lat="43.48475" lon="5.95069">
        <ele>269.3</ele>
        <time>2017-01-15T14:33:22Z</time>
      </trkpt>
      <trkpt lat="43.48465" lon="5.95069">
        <ele>269.5</ele>
        <time>2017-01-15T14:33:31Z</time>
      </trkpt>
      <trkpt lat="43.48455" lon="5.9507">
        <ele>269.4</ele>
        <time>2017-01-15T14:33:42Z</time>
      </trkpt>
      <trkpt lat="43.48446" lon="5.95071">
        <ele>268.8</ele>
        <time>2017-01-15T14:33:50Z</time>
      </trkpt>
      <trkpt lat="43.48437" lon="5.95067">
        <ele>268.6</ele>
        <time>2017-01-15T14:33:59Z</time>
      </trkpt>
      <trkpt lat="43.48427" lon="5.95066">
        <ele>268.6</ele>
        <time>2017-01-15T14:34:08Z</time>
      </trkpt>
      <trkpt lat="43.48417" lon="5.95061">
        <ele>268.3</ele>
        <time>2017-01-15T14:34:16Z</time>
      </trkpt>
      <trkpt lat="43.48408" lon="5.95058">
        <ele>268.6</ele>
        <time>2017-01-15T14:34:23Z</time>
      </trkpt>
      <trkpt lat="43.48398" lon="5.95055">
        <ele>268.6</ele>
        <time>2017-01-15T14:34:31Z</time>
      </trkpt>
      <trkpt lat="43.48389" lon="5.95051">
        <ele>268.8</ele>
        <time>2017-01-15T14:34:40Z</time>
      </trkpt>
      <trkpt lat="43.4838" lon="5.95054">
        <ele>268.6</ele>
        <time>2017-01-15T14:34:47Z</time>
      </trkpt>
      <trkpt lat="43.48371" lon="5.95059">
        <ele>268.6</ele>
        <time>2017-01-15T14:34:57Z</time>
      </trkpt>
      <trkpt lat="43.4836" lon="5.95064">
        <ele>268.6</ele>
        <time>2017-01-15T14:35:05Z</time>
      </trkpt>
      <trkpt lat="43.48351" lon="5.95068">
        <ele>268.6</ele>
        <time>2017-01-15T14:35:14Z</time>
      </trkpt>
      <trkpt lat="43.48342" lon="5.95072">
        <ele>268</ele>
        <time>2017-01-15T14:35:21Z</time>
      </trkpt>
      <trkpt lat="43.48332" lon="5.95073">
        <ele>268.3</ele>
        <time>2017-01-15T14:35:28Z</time>
      </trkpt>
      <trkpt lat="43.48322" lon="5.95072">
        <ele>268.6</ele>
        <time>2017-01-15T14:35:37Z</time>
      </trkpt>
      <trkpt lat="43.48312" lon="5.95069">
        <ele>268.8</ele>
        <time>2017-01-15T14:35:44Z</time>
      </trkpt>
      <trkpt lat="43.48303" lon="5.95061">
        <ele>268.6</ele>
        <time>2017-01-15T14:35:50Z</time>
      </trkpt>
      <trkpt lat="43.48294" lon="5.95058">
        <ele>268.8</ele>
        <time>2017-01-15T14:35:56Z</time>
      </trkpt>
      <trkpt lat="43.48285" lon="5.95053">
        <ele>269</ele>
        <time>2017-01-15T14:36:03Z</time>
      </trkpt>
      <trkpt lat="43.48276" lon="5.95056">
        <ele>269</ele>
        <time>2017-01-15T14:36:14Z</time>
      </trkpt>
      <trkpt lat="43.48266" lon="5.95059">
        <ele>268.7</ele>
        <time>2017-01-15T14:36:22Z</time>
      </trkpt>
      <trkpt lat="43.48256" lon="5.95061">
        <ele>268.6</ele>
        <time>2017-01-15T14:36:27Z</time>
      </trkpt>
      <trkpt lat="43.48246" lon="5.95065">
        <ele>268.5</ele>
        <time>2017-01-15T14:36:35Z</time>
      </trkpt>
      <trkpt lat="43.48237" lon="5.95066">
        <ele>268.8</ele>
        <time>2017-01-15T14:36:43Z</time>
      </trkpt>
      <trkpt lat="43.48228" lon="5.95072">
        <ele>269</ele>
        <time>2017-01-15T14:36:49Z</time>
      </trkpt>
      <trkpt lat="43.48219" lon="5.95075">
        <ele>268.9</ele>
        <time>2017-01-15T14:36:58Z</time>
      </trkpt>
      <trkpt lat="43.48208" lon="5.9508">
        <ele>268.8</ele>
        <time>2017-01-15T14:37:05Z</time>
      </trkpt>
      <trkpt lat="43.48199" lon="5.95083">
        <ele>268.9</ele>
        <time>2017-01-15T14:37:10Z</time>
      </trkpt>
      <trkpt lat="43.48189" lon="5.95085">
        <ele>268.7</ele>
        <time>2017-01-15T14:37:16Z</time>
      </trkpt>
      <trkpt lat="43.48179" lon="5.95082">
        <ele>268.9</ele>
        <time>2017-01-15T14:37:24Z</time>
      </trkpt>
      <trkpt lat="43.48169" lon="5.95083">
        <ele>269</ele>
        <time>2017-01-15T14:37:32Z</time>
      </trkpt>
      <trkpt lat="43.4816" lon="5.95083">
        <ele>269.1</ele>
        <time>2017-01-15T14:37:42Z</time>
      </trkpt>
      <trkpt lat="43.48151" lon="5.9508">
        <ele>269.3</ele>
        <time>2017-01-15T14:37:50Z</time>
      </trkpt>
      <trkpt lat="43.48142" lon="5.95078">
        <ele>269.4</ele>
        <time>2017-01-15T14:37:59Z</time>
      </trkpt>
      <trkpt lat="43.48132" lon="5.95083">
        <ele>269.5</ele>
        <time>2017-01-15T14:38:15Z</time>
      </trkpt>
      <trkpt lat="43.48124" lon="5.95091">
        <ele>269.4</ele>
        <time>2017-01-15T14:38:22Z</time>
      </trkpt>
      <trkpt lat="43.4812" lon="5.95102">
        <ele>269.7</ele>
        <time>2017-01-15T14:38:39Z</time>
      </trkpt>
      <trkpt lat="43.48127" lon="5.9511">
        <ele>268.9</ele>
        <time>2017-01-15T14:39:53Z</time>
      </trkpt>
      <trkpt lat="43.48118" lon="5.95108">
        <ele>269.8</ele>
        <time>2017-01-15T14:40:20Z</time>
      </trkpt>
      <trkpt lat="43.48109" lon="5.95107">
        <ele>269.3</ele>
        <time>2017-01-15T14:41:13Z</time>
      </trkpt>
      <trkpt lat="43.481" lon="5.95107">
        <ele>269</ele>
        <time>2017-01-15T14:42:30Z</time>
      </trkpt>
      <trkpt lat="43.4809" lon="5.95108">
        <ele>268.9</ele>
        <time>2017-01-15T14:42:37Z</time>
      </trkpt>
      <trkpt lat="43.48081" lon="5.95108">
        <ele>268.9</ele>
        <time>2017-01-15T14:42:48Z</time>
      </trkpt>
      <trkpt lat="43.48071" lon="5.95112">
        <ele>268.8</ele>
        <time>2017-01-15T14:42:57Z</time>
      </trkpt>
      <trkpt lat="43.48062" lon="5.95115">
        <ele>268.6</ele>
        <time>2017-01-15T14:43:03Z</time>
      </trkpt>
      <trkpt lat="43.48052" lon="5.95115">
        <ele>268.5</ele>
        <time>2017-01-15T14:43:08Z</time>
      </trkpt>
      <trkpt lat="43.48043" lon="5.95117">
        <ele>268.3</ele>
        <time>2017-01-15T14:43:13Z</time>
      </trkpt>
      <trkpt lat="43.48033" lon="5.95118">
        <ele>268.4</ele>
        <time>2017-01-15T14:43:19Z</time>
      </trkpt>
      <trkpt lat="43.48022" lon="5.9512">
        <ele>268.4</ele>
        <time>2017-01-15T14:43:27Z</time>
      </trkpt>
      <trkpt lat="43.48012" lon="5.95116">
        <ele>268.4</ele>
        <time>2017-01-15T14:43:35Z</time>
      </trkpt>
      <trkpt lat="43.48003" lon="5.95113">
        <ele>268.1</ele>
        <time>2017-01-15T14:43:40Z</time>
      </trkpt>
      <trkpt lat="43.47995" lon="5.95108">
        <ele>268.1</ele>
        <time>2017-01-15T14:43:46Z</time>
      </trkpt>
      <trkpt lat="43.47987" lon="5.95101">
        <ele>268.2</ele>
        <time>2017-01-15T14:43:52Z</time>
      </trkpt>
      <trkpt lat="43.47978" lon="5.95092">
        <ele>268.9</ele>
        <time>2017-01-15T14:44:01Z</time>
      </trkpt>
      <trkpt lat="43.4797" lon="5.95085">
        <ele>268.9</ele>
        <time>2017-01-15T14:44:07Z</time>
      </trkpt>
      <trkpt lat="43.4796" lon="5.95081">
        <ele>268.8</ele>
        <time>2017-01-15T14:44:13Z</time>
      </trkpt>
      <trkpt lat="43.47951" lon="5.95076">
        <ele>268.7</ele>
        <time>2017-01-15T14:44:22Z</time>
      </trkpt>
      <trkpt lat="43.47942" lon="5.95074">
        <ele>268.5</ele>
        <time>2017-01-15T14:44:27Z</time>
      </trkpt>
      <trkpt lat="43.47933" lon="5.95072">
        <ele>268.5</ele>
        <time>2017-01-15T14:44:31Z</time>
      </trkpt>
      <trkpt lat="43.47922" lon="5.95071">
        <ele>268.8</ele>
        <time>2017-01-15T14:44:40Z</time>
      </trkpt>
      <trkpt lat="43.47913" lon="5.95069">
        <ele>268.6</ele>
        <time>2017-01-15T14:44:45Z</time>
      </trkpt>
      <trkpt lat="43.47904" lon="5.95072">
        <ele>268.5</ele>
        <time>2017-01-15T14:44:53Z</time>
      </trkpt>
      <trkpt lat="43.47893" lon="5.95071">
        <ele>268.9</ele>
        <time>2017-01-15T14:44:59Z</time>
      </trkpt>
      <trkpt lat="43.47884" lon="5.95068">
        <ele>268.7</ele>
        <time>2017-01-15T14:45:06Z</time>
      </trkpt>
      <trkpt lat="43.47874" lon="5.95066">
        <ele>268.7</ele>
        <time>2017-01-15T14:45:11Z</time>
      </trkpt>
      <trkpt lat="43.47865" lon="5.95063">
        <ele>268.8</ele>
        <time>2017-01-15T14:45:16Z</time>
      </trkpt>
      <trkpt lat="43.47858" lon="5.95074">
        <ele>268.6</ele>
        <time>2017-01-15T14:45:25Z</time>
      </trkpt>
      <trkpt lat="43.47859" lon="5.95087">
        <ele>269.1</ele>
        <time>2017-01-15T14:45:41Z</time>
      </trkpt>
      <trkpt lat="43.4786" lon="5.95099">
        <ele>269.3</ele>
        <time>2017-01-15T14:46:11Z</time>
      </trkpt>
      <trkpt lat="43.47855" lon="5.95111">
        <ele>269.7</ele>
        <time>2017-01-15T14:46:35Z</time>
      </trkpt>
      <trkpt lat="43.47856" lon="5.95124">
        <ele>269.5</ele>
        <time>2017-01-15T14:46:46Z</time>
      </trkpt>
      <trkpt lat="43.47853" lon="5.95138">
        <ele>268.9</ele>
        <time>2017-01-15T14:46:55Z</time>
      </trkpt>
      <trkpt lat="43.47852" lon="5.9515">
        <ele>269.6</ele>
        <time>2017-01-15T14:47:05Z</time>
      </trkpt>
      <trkpt lat="43.47852" lon="5.95164">
        <ele>269.5</ele>
        <time>2017-01-15T14:47:14Z</time>
      </trkpt>
      <trkpt lat="43.47851" lon="5.95177">
        <ele>269.5</ele>
        <time>2017-01-15T14:47:23Z</time>
      </trkpt>
      <trkpt lat="43.4785" lon="5.9519">
        <ele>269.5</ele>
        <time>2017-01-15T14:47:31Z</time>
      </trkpt>
      <trkpt lat="43.47846" lon="5.95203">
        <ele>269.6</ele>
        <time>2017-01-15T14:47:39Z</time>
      </trkpt>
      <trkpt lat="43.47844" lon="5.95215">
        <ele>269.6</ele>
        <time>2017-01-15T14:47:48Z</time>
      </trkpt>
      <trkpt lat="43.47836" lon="5.95226">
        <ele>269.2</ele>
        <time>2017-01-15T14:47:55Z</time>
      </trkpt>
      <trkpt lat="43.47831" lon="5.95238">
        <ele>269.7</ele>
        <time>2017-01-15T14:48:02Z</time>
      </trkpt>
      <trkpt lat="43.47825" lon="5.95248">
        <ele>269.7</ele>
        <time>2017-01-15T14:48:11Z</time>
      </trkpt>
      <trkpt lat="43.47817" lon="5.95256">
        <ele>269.7</ele>
        <time>2017-01-15T14:48:20Z</time>
      </trkpt>
      <trkpt lat="43.4781" lon="5.95265">
        <ele>269.8</ele>
        <time>2017-01-15T14:48:28Z</time>
      </trkpt>
      <trkpt lat="43.47803" lon="5.95274">
        <ele>270.1</ele>
        <time>2017-01-15T14:48:38Z</time>
      </trkpt>
      <trkpt lat="43.47795" lon="5.95277">
        <ele>270.1</ele>
        <time>2017-01-15T14:48:44Z</time>
      </trkpt>
      <trkpt lat="43.47786" lon="5.95284">
        <ele>270.2</ele>
        <time>2017-01-15T14:48:53Z</time>
      </trkpt>
      <trkpt lat="43.47777" lon="5.95279">
        <ele>270.2</ele>
        <time>2017-01-15T14:49:03Z</time>
      </trkpt>
      <trkpt lat="43.47778" lon="5.95266">
        <ele>269.9</ele>
        <time>2017-01-15T14:49:17Z</time>
      </trkpt>
      <trkpt lat="43.47774" lon="5.95254">
        <ele>269.9</ele>
        <time>2017-01-15T14:49:28Z</time>
      </trkpt>
      <trkpt lat="43.47768" lon="5.95244">
        <ele>270.3</ele>
        <time>2017-01-15T14:49:38Z</time>
      </trkpt>
      <trkpt lat="43.4776" lon="5.95237">
        <ele>270.9</ele>
        <time>2017-01-15T14:49:51Z</time>
      </trkpt>
      <trkpt lat="43.47764" lon="5.95226">
        <ele>271.1</ele>
        <time>2017-01-15T14:50:14Z</time>
      </trkpt>
      <trkpt lat="43.47754" lon="5.95223">
        <ele>273</ele>
        <time>2017-01-15T14:50:37Z</time>
      </trkpt>
      <trkpt lat="43.47744" lon="5.95225">
        <ele>276.2</ele>
        <time>2017-01-15T14:50:57Z</time>
      </trkpt>
      <trkpt lat="43.47734" lon="5.95225">
        <ele>279.1</ele>
        <time>2017-01-15T14:51:15Z</time>
      </trkpt>
      <trkpt lat="43.47725" lon="5.95222">
        <ele>282.2</ele>
        <time>2017-01-15T14:51:34Z</time>
      </trkpt>
      <trkpt lat="43.47716" lon="5.95219">
        <ele>284.1</ele>
        <time>2017-01-15T14:51:47Z</time>
      </trkpt>
      <trkpt lat="43.47708" lon="5.95213">
        <ele>286.7</ele>
        <time>2017-01-15T14:52:03Z</time>
      </trkpt>
      <trkpt lat="43.47699" lon="5.95212">
        <ele>289</ele>
        <time>2017-01-15T14:52:19Z</time>
      </trkpt>
      <trkpt lat="43.47689" lon="5.95213">
        <ele>293.1</ele>
        <time>2017-01-15T14:52:46Z</time>
      </trkpt>
      <trkpt lat="43.47679" lon="5.95212">
        <ele>296.1</ele>
        <time>2017-01-15T14:53:04Z</time>
      </trkpt>
      <trkpt lat="43.4767" lon="5.95211">
        <ele>299.9</ele>
        <time>2017-01-15T14:53:25Z</time>
      </trkpt>
      <trkpt lat="43.47661" lon="5.95207">
        <ele>300.8</ele>
        <time>2017-01-15T14:53:33Z</time>
      </trkpt>
      <trkpt lat="43.47652" lon="5.95205">
        <ele>302.7</ele>
        <time>2017-01-15T14:53:47Z</time>
      </trkpt>
      <trkpt lat="43.47642" lon="5.95205">
        <ele>304.6</ele>
        <time>2017-01-15T14:54:02Z</time>
      </trkpt>
      <trkpt lat="43.47633" lon="5.95206">
        <ele>306.1</ele>
        <time>2017-01-15T14:54:17Z</time>
      </trkpt>
      <trkpt lat="43.47624" lon="5.95206">
        <ele>308.3</ele>
        <time>2017-01-15T14:54:37Z</time>
      </trkpt>
      <trkpt lat="43.47615" lon="5.95207">
        <ele>309.9</ele>
        <time>2017-01-15T14:54:48Z</time>
      </trkpt>
      <trkpt lat="43.47605" lon="5.95207">
        <ele>311.1</ele>
        <time>2017-01-15T14:54:58Z</time>
      </trkpt>
      <trkpt lat="43.47596" lon="5.95205">
        <ele>312</ele>
        <time>2017-01-15T14:55:09Z</time>
      </trkpt>
      <trkpt lat="43.47586" lon="5.95204">
        <ele>313.8</ele>
        <time>2017-01-15T14:55:24Z</time>
      </trkpt>
      <trkpt lat="43.47576" lon="5.95199">
        <ele>315.7</ele>
        <time>2017-01-15T14:55:37Z</time>
      </trkpt>
      <trkpt lat="43.47567" lon="5.95197">
        <ele>317.7</ele>
        <time>2017-01-15T14:56:18Z</time>
      </trkpt>
      <trkpt lat="43.47556" lon="5.952">
        <ele>318.7</ele>
        <time>2017-01-15T14:56:26Z</time>
      </trkpt>
      <trkpt lat="43.47547" lon="5.95201">
        <ele>319.1</ele>
        <time>2017-01-15T14:56:32Z</time>
      </trkpt>
      <trkpt lat="43.47537" lon="5.95204">
        <ele>320.8</ele>
        <time>2017-01-15T14:56:41Z</time>
      </trkpt>
      <trkpt lat="43.47527" lon="5.95205">
        <ele>321.7</ele>
        <time>2017-01-15T14:56:50Z</time>
      </trkpt>
      <trkpt lat="43.47518" lon="5.95202">
        <ele>323.3</ele>
        <time>2017-01-15T14:57:01Z</time>
      </trkpt>
      <trkpt lat="43.47509" lon="5.952">
        <ele>324.4</ele>
        <time>2017-01-15T14:57:11Z</time>
      </trkpt>
      <trkpt lat="43.47504" lon="5.9521">
        <ele>326</ele>
        <time>2017-01-15T14:57:29Z</time>
      </trkpt>
      <trkpt lat="43.47495" lon="5.95206">
        <ele>329.6</ele>
        <time>2017-01-15T14:57:48Z</time>
      </trkpt>
      <trkpt lat="43.47488" lon="5.95215">
        <ele>332.1</ele>
        <time>2017-01-15T14:58:07Z</time>
      </trkpt>
      <trkpt lat="43.47482" lon="5.95225">
        <ele>332.6</ele>
        <time>2017-01-15T14:58:26Z</time>
      </trkpt>
      <trkpt lat="43.47472" lon="5.95227">
        <ele>332.7</ele>
        <time>2017-01-15T14:58:36Z</time>
      </trkpt>
      <trkpt lat="43.47462" lon="5.95229">
        <ele>332.5</ele>
        <time>2017-01-15T14:58:44Z</time>
      </trkpt>
      <trkpt lat="43.47457" lon="5.9524">
        <ele>330.6</ele>
        <time>2017-01-15T14:58:59Z</time>
      </trkpt>
      <trkpt lat="43.47454" lon="5.95252">
        <ele>330.6</ele>
        <time>2017-01-15T14:59:10Z</time>
      </trkpt>
      <trkpt lat="43.47445" lon="5.95256">
        <ele>330.6</ele>
        <time>2017-01-15T14:59:22Z</time>
      </trkpt>
      <trkpt lat="43.47437" lon="5.95263">
        <ele>330.7</ele>
        <time>2017-01-15T14:59:30Z</time>
      </trkpt>
      <trkpt lat="43.47428" lon="5.95264">
        <ele>330.9</ele>
        <time>2017-01-15T14:59:39Z</time>
      </trkpt>
      <trkpt lat="43.47419" lon="5.95261">
        <ele>330.6</ele>
        <time>2017-01-15T14:59:46Z</time>
      </trkpt>
      <trkpt lat="43.47409" lon="5.95264">
        <ele>327.8</ele>
        <time>2017-01-15T15:00:05Z</time>
      </trkpt>
      <trkpt lat="43.474" lon="5.95266">
        <ele>327.6</ele>
        <time>2017-01-15T15:00:17Z</time>
      </trkpt>
      <trkpt lat="43.47391" lon="5.95266">
        <ele>328.1</ele>
        <time>2017-01-15T15:03:29Z</time>
      </trkpt>
      <trkpt lat="43.474" lon="5.95263">
        <ele>327.8</ele>
        <time>2017-01-15T15:04:06Z</time>
      </trkpt>
      <trkpt lat="43.47391" lon="5.95265">
        <ele>324.6</ele>
        <time>2017-01-15T15:04:45Z</time>
      </trkpt>
      <trkpt lat="43.47382" lon="5.95269">
        <ele>322.2</ele>
        <time>2017-01-15T15:05:02Z</time>
      </trkpt>
      <trkpt lat="43.47373" lon="5.95272">
        <ele>319.6</ele>
        <time>2017-01-15T15:05:19Z</time>
      </trkpt>
      <trkpt lat="43.47364" lon="5.95275">
        <ele>317.5</ele>
        <time>2017-01-15T15:05:36Z</time>
      </trkpt>
      <trkpt lat="43.47354" lon="5.95275">
        <ele>315.3</ele>
        <time>2017-01-15T15:05:48Z</time>
      </trkpt>
      <trkpt lat="43.47346" lon="5.95282">
        <ele>313</ele>
        <time>2017-01-15T15:06:01Z</time>
      </trkpt>
      <trkpt lat="43.47337" lon="5.95286">
        <ele>311.2</ele>
        <time>2017-01-15T15:06:13Z</time>
      </trkpt>
      <trkpt lat="43.47327" lon="5.95288">
        <ele>310.2</ele>
        <time>2017-01-15T15:06:21Z</time>
      </trkpt>
      <trkpt lat="43.47317" lon="5.95292">
        <ele>308.9</ele>
        <time>2017-01-15T15:06:30Z</time>
      </trkpt>
      <trkpt lat="43.47309" lon="5.95296">
        <ele>307.9</ele>
        <time>2017-01-15T15:06:39Z</time>
      </trkpt>
      <trkpt lat="43.473" lon="5.95299">
        <ele>306.9</ele>
        <time>2017-01-15T15:06:47Z</time>
      </trkpt>
      <trkpt lat="43.47291" lon="5.95301">
        <ele>305.9</ele>
        <time>2017-01-15T15:06:55Z</time>
      </trkpt>
      <trkpt lat="43.4729" lon="5.95314">
        <ele>304.3</ele>
        <time>2017-01-15T15:07:07Z</time>
      </trkpt>
      <trkpt lat="43.47297" lon="5.95321">
        <ele>302.8</ele>
        <time>2017-01-15T15:07:16Z</time>
      </trkpt>
      <trkpt lat="43.47296" lon="5.95334">
        <ele>300</ele>
        <time>2017-01-15T15:07:36Z</time>
      </trkpt>
      <trkpt lat="43.47287" lon="5.95338">
        <ele>297</ele>
        <time>2017-01-15T15:07:48Z</time>
      </trkpt>
      <trkpt lat="43.47277" lon="5.9534">
        <ele>295.1</ele>
        <time>2017-01-15T15:07:57Z</time>
      </trkpt>
      <trkpt lat="43.47267" lon="5.95339">
        <ele>293.2</ele>
        <time>2017-01-15T15:08:07Z</time>
      </trkpt>
      <trkpt lat="43.47257" lon="5.95335">
        <ele>291.5</ele>
        <time>2017-01-15T15:08:17Z</time>
      </trkpt>
      <trkpt lat="43.4725" lon="5.95342">
        <ele>288.1</ele>
        <time>2017-01-15T15:08:37Z</time>
      </trkpt>
      <trkpt lat="43.4724" lon="5.95342">
        <ele>286.7</ele>
        <time>2017-01-15T15:08:47Z</time>
      </trkpt>
      <trkpt lat="43.47232" lon="5.95348">
        <ele>286.1</ele>
        <time>2017-01-15T15:09:00Z</time>
      </trkpt>
      <trkpt lat="43.47223" lon="5.95353">
        <ele>285.7</ele>
        <time>2017-01-15T15:09:10Z</time>
      </trkpt>
      <trkpt lat="43.47214" lon="5.95357">
        <ele>284.7</ele>
        <time>2017-01-15T15:09:27Z</time>
      </trkpt>
      <trkpt lat="43.47206" lon="5.95364">
        <ele>284.1</ele>
        <time>2017-01-15T15:09:43Z</time>
      </trkpt>
      <trkpt lat="43.47203" lon="5.95377">
        <ele>284.1</ele>
        <time>2017-01-15T15:09:49Z</time>
      </trkpt>
      <trkpt lat="43.47198" lon="5.95389">
        <ele>283.7</ele>
        <time>2017-01-15T15:09:57Z</time>
      </trkpt>
      <trkpt lat="43.47192" lon="5.954">
        <ele>283</ele>
        <time>2017-01-15T15:10:16Z</time>
      </trkpt>
      <trkpt lat="43.47193" lon="5.95414">
        <ele>283.5</ele>
        <time>2017-01-15T15:10:25Z</time>
      </trkpt>
      <trkpt lat="43.47187" lon="5.95426">
        <ele>283</ele>
        <time>2017-01-15T15:10:34Z</time>
      </trkpt>
      <trkpt lat="43.4718" lon="5.95436">
        <ele>283.3</ele>
        <time>2017-01-15T15:10:42Z</time>
      </trkpt>
      <trkpt lat="43.47179" lon="5.95449">
        <ele>283.2</ele>
        <time>2017-01-15T15:10:54Z</time>
      </trkpt>
      <trkpt lat="43.47175" lon="5.95461">
        <ele>283.3</ele>
        <time>2017-01-15T15:11:02Z</time>
      </trkpt>
      <trkpt lat="43.47172" lon="5.95475">
        <ele>283.1</ele>
        <time>2017-01-15T15:11:09Z</time>
      </trkpt>
      <trkpt lat="43.47172" lon="5.95487">
        <ele>283.1</ele>
        <time>2017-01-15T15:11:18Z</time>
      </trkpt>
      <trkpt lat="43.47167" lon="5.95497">
        <ele>283.1</ele>
        <time>2017-01-15T15:11:24Z</time>
      </trkpt>
      <trkpt lat="43.47163" lon="5.95508">
        <ele>283.2</ele>
        <time>2017-01-15T15:11:33Z</time>
      </trkpt>
      <trkpt lat="43.47158" lon="5.9552">
        <ele>283.5</ele>
        <time>2017-01-15T15:11:44Z</time>
      </trkpt>
      <trkpt lat="43.47153" lon="5.95533">
        <ele>284</ele>
        <time>2017-01-15T15:11:53Z</time>
      </trkpt>
      <trkpt lat="43.47149" lon="5.95545">
        <ele>284</ele>
        <time>2017-01-15T15:12:01Z</time>
      </trkpt>
      <trkpt lat="43.47144" lon="5.95558">
        <ele>284.2</ele>
        <time>2017-01-15T15:12:09Z</time>
      </trkpt>
      <trkpt lat="43.47138" lon="5.95569">
        <ele>284.5</ele>
        <time>2017-01-15T15:12:16Z</time>
      </trkpt>
      <trkpt lat="43.47133" lon="5.95579">
        <ele>284.6</ele>
        <time>2017-01-15T15:12:22Z</time>
      </trkpt>
      <trkpt lat="43.47129" lon="5.95592">
        <ele>284.9</ele>
        <time>2017-01-15T15:12:27Z</time>
      </trkpt>
      <trkpt lat="43.47123" lon="5.95607">
        <ele>285.5</ele>
        <time>2017-01-15T15:12:37Z</time>
      </trkpt>
      <trkpt lat="43.4712" lon="5.9562">
        <ele>285.6</ele>
        <time>2017-01-15T15:12:45Z</time>
      </trkpt>
      <trkpt lat="43.47115" lon="5.95632">
        <ele>285</ele>
        <time>2017-01-15T15:12:50Z</time>
      </trkpt>
      <trkpt lat="43.47111" lon="5.95644">
        <ele>286</ele>
        <time>2017-01-15T15:12:56Z</time>
      </trkpt>
      <trkpt lat="43.47106" lon="5.95656">
        <ele>286.5</ele>
        <time>2017-01-15T15:13:04Z</time>
      </trkpt>
      <trkpt lat="43.47101" lon="5.95667">
        <ele>287</ele>
        <time>2017-01-15T15:13:12Z</time>
      </trkpt>
      <trkpt lat="43.47097" lon="5.95679">
        <ele>287.6</ele>
        <time>2017-01-15T15:13:22Z</time>
      </trkpt>
      <trkpt lat="43.47093" lon="5.9569">
        <ele>287.9</ele>
        <time>2017-01-15T15:13:29Z</time>
      </trkpt>
      <trkpt lat="43.47085" lon="5.95698">
        <ele>287.9</ele>
        <time>2017-01-15T15:13:35Z</time>
      </trkpt>
      <trkpt lat="43.47079" lon="5.9571">
        <ele>288.7</ele>
        <time>2017-01-15T15:13:49Z</time>
      </trkpt>
      <trkpt lat="43.47072" lon="5.95718">
        <ele>289.4</ele>
        <time>2017-01-15T15:13:58Z</time>
      </trkpt>
      <trkpt lat="43.47064" lon="5.95727">
        <ele>289.6</ele>
        <time>2017-01-15T15:14:06Z</time>
      </trkpt>
      <trkpt lat="43.47057" lon="5.95737">
        <ele>290.1</ele>
        <time>2017-01-15T15:14:14Z</time>
      </trkpt>
      <trkpt lat="43.47051" lon="5.95745">
        <ele>290.5</ele>
        <time>2017-01-15T15:14:20Z</time>
      </trkpt>
      <trkpt lat="43.47049" lon="5.95758">
        <ele>291</ele>
        <time>2017-01-15T15:14:28Z</time>
      </trkpt>
      <trkpt lat="43.4705" lon="5.95765">
        <ele>291</ele>
        <time>2017-01-15T15:14:32Z</time>
      </trkpt>
    </trkseg>
  </trk>
</gpx>